ftp/pub/palmer/observations_modified/2019/July/AR190729_BASE.txt

Download

Sample DateTime	Unit Id	WS Avg 2min	WD Avg 2min	WGS 10min	WGD 10min	Air Temp	Rel Humidity	Dew Point	Pyranometer	Quantum	Air Pressure	Snow Level	Rainfall	PW Current	Visibility	CBase 1	CBase 2	CBase 3	Vert Vis
2019/07/29  00:00:04  BASE  3.8808   144  4.99212  126  -4.0  100   -4.0  0     0     975.4    NA       0.0000   -SN      BR    3600  0    
2019/07/29  00:01:04  BASE  3.55152  147  4.62756  137  -4.0  100   -4.0  0     0     975.5    NA       0.0000   -SN      BR    3300  0    
2019/07/29  00:02:05  BASE  3.12228  147  4.62756  137  -4.0  100   -4.0  0     0     975.5    NA       0.0000   -SN      BR    3400  0    
2019/07/29  00:03:04  BASE  3.01056  150  4.62756  137  -4.0  100   -4.0  0     0     975.6    NA       0.0000   -SN      BR    3400  0    
2019/07/29  00:04:04  BASE  2.74596  151  4.62756  137  -4.0  100   -4.0  0     0     975.6    NA       0.0000   -SN      BR    3400  0    
2019/07/29  00:05:04  BASE  2.44608  147  4.62756  137  -3.9  100   -3.9  0     0     975.6    NA       0.0000   -SN      BR    3500  0    
2019/07/29  00:06:04  BASE  2.499    147  4.62756  137  -3.9  100   -3.9  0     0     975.6    NA       0.0000   -SN      BR    3600  0    
2019/07/29  00:07:03  BASE  2.79888  146  4.53936  144  -3.9  100   -3.9  0     0     975.6    NA       0.0000   -SN      BR    3600  0    
2019/07/29  00:08:04  BASE  2.96352  145  4.47468  143  -3.9  100   -3.9  0     0     975.6    NA       0.0000   -SN      BR    3600  0    
2019/07/29  00:09:04  BASE  3.10464  147  4.05132  149  -3.9  100   -3.9  0     0     975.6    NA       0.0000   -SN      BR    3200  0    
2019/07/29  00:10:04  BASE  3.19872  146  3.56916  146  -3.9  100   -3.9  0     0     975.6    NA       0.0000   -SN      BR    3400  0    
2019/07/29  00:11:04  BASE  3.33984  145  3.78084  143  -3.9  100   -3.9  0     0     975.6    NA       0.0000   -SN      BR    3700  0    
2019/07/29  00:12:04  BASE  3.56328  144  3.81024  145  -3.9  100   -3.9  0     0     975.6    NA       0.0000   -SN      BR    3700  0    
2019/07/29  00:13:05  BASE  3.38688  141  3.81024  145  -3.9  100   -3.9  0     0     975.6    NA       0.0000   -SN      BR    3600  0    
2019/07/29  00:14:04  BASE  3.33984  135  4.08072  130  -3.9  100   -3.9  0     0     975.6    NA       0.0000   -SN      BR    3400  0    
2019/07/29  00:15:05  BASE  3.40452  131  4.08072  130  -3.9  100   -3.9  0     0     975.6    NA       0.0000   -SN      BR    3500  260  
2019/07/29  00:16:01  BASE  3.21636  130  4.08072  130  -3.9  100   -3.9  0     0     975.6    NA       0.0000   -SN      BR    3700  0    
2019/07/29  00:17:03  BASE  3.23988  131  4.08072  130  -3.9  100   -3.9  0     0     975.7    NA       0.0000   -SN      BR    4200  0    
2019/07/29  00:18:04  BASE  3.47508  132  4.08072  130  -4.0  100   -4.0  0     0     975.7    NA       0.0000   -SN      BR    4200  0    
2019/07/29  00:19:04  BASE  3.59268  133  4.08072  132  -4.0  100   -4.0  0     0     975.8    NA       0.0000   -SN      BR    3800  0    
2019/07/29  00:20:04  BASE  3.80436  134  4.1454   136  -4.0  100   -4.0  0     0     975.8    NA       0.0000   -SN      BR    3800  0    
2019/07/29  00:21:03  BASE  3.85728  135  4.35708  134  -4.0  100   -4.0  0     0     975.8    NA       0.0000   -SN      BR    3800  0    
2019/07/29  00:22:04  BASE  3.89844  134  4.41588  130  -4.0  100   -4.0  0     0     975.8    NA       0.0000   -SN      BR    3600  0    
2019/07/29  00:23:04  BASE  3.99252  134  4.53936  140  -3.9  100   -3.9  0     0     975.8    NA       0.0000   -SN      BR    3800  260  
2019/07/29  00:24:04  BASE  3.94548  137  4.53936  140  -3.9  100   -3.9  0     0     975.9    NA       0.0000   -SN      BR    3900  230  
2019/07/29  00:25:04  BASE  4.06896  141  4.75104  138  -3.9  100   -3.9  0     0     975.9    NA       0.0000   -SN      BR    3900  0    
2019/07/29  00:26:04  BASE  4.13364  139  4.75104  138  -3.9  100   -3.9  0     0     975.9    NA       0.0000   -SN      BR    4800  0    
2019/07/29  00:27:03  BASE  4.116    140  4.75104  138  -3.9  100   -3.9  0     0     975.9    NA       0.0000   -SN      BR    6000  0    
2019/07/29  00:28:04  BASE  4.9098   141  6.86784  148  -3.9  100   -3.9  0     0     975.8    NA       0.0000   -SN      BR    7000  330  
2019/07/29  00:29:04  BASE  5.87412  140  7.02072  136  -3.9  100   -3.9  0     0     975.8    NA       0.0000   -SN      BR    7000  0    
2019/07/29  00:30:04  BASE  6.04464  141  7.05012  146  -3.9  100   -3.9  0     0     975.8    NA       0.0000   -SN      BR    7000  330  
2019/07/29  00:31:04  BASE  6.21516  140  7.3794   145  -3.9  100   -3.9  0     0     975.8    NA       0.0000   -SN      BR    8000  0    
2019/07/29  00:32:04  BASE  5.93292  138  7.3794   145  -3.9  100   -3.9  0     0     975.9    NA       0.0000   -SN      BR    9000  0    
2019/07/29  00:33:04  BASE  5.76828  135  7.3794   145  -4.0  100   -4.0  0     0     975.9    NA       0.0000   -SN      BR    8000  0    
2019/07/29  00:34:04  BASE  6.41508  133  7.3794   145  -4.0  100   -4.0  0     0     975.9    NA       0.0000   -SN      BR    9000  0    
2019/07/29  00:35:04  BASE  6.3798   138  7.3794   145  -4.0  100   -4.0  0     0     975.9    NA       0.0000   -SN      BR    8000  300  
2019/07/29  00:36:04  BASE  6.22692  142  7.95564  136  -4.1  100   -4.1  0     0     975.9    NA       0.0000   -SN      BR    7000  0    
2019/07/29  00:37:03  BASE  6.7326   140  7.95564  136  -4.1  100   -4.1  0     0     975.9    NA       0.0000   -SN      BR    6000  0    
2019/07/29  00:38:04  BASE  7.50876  140  9.3786   145  -4.1  100   -4.1  0     0     975.8    NA       0.0000   -SN      BR    7000  300  
2019/07/29  00:39:05  BASE  7.59696  141  9.3786   145  -4.1  100   -4.1  0     0     975.9    NA       0.0000   -SN      BR    7000  330  
2019/07/29  00:40:04  BASE  7.36764  144  9.3786   145  -4.0  100   -4.0  0     0     975.9    NA       0.0000   -SN      BR    7000  0    
2019/07/29  00:41:04  BASE  7.47936  143  9.3786   145  -4.0  100   -4.0  0     0     975.8    NA       0.0000   -SN      BR    7000  0    
2019/07/29  00:42:04  BASE  7.80864  140  9.3786   145  -4.0  100   -4.0  0     0     975.8    NA       0.0000   -SN      BR    7000  0    
2019/07/29  00:43:04  BASE  7.90272  139  9.3786   145  -4.0  100   -4.0  0     0     975.9    NA       0.0000   -SN      BR    7000  0    
2019/07/29  00:44:04  BASE  7.06776  136  9.3786   145  -4.0  100   -4.0  0     0     975.9    NA       0.0000   -SN      BR    7000  0    
2019/07/29  00:45:04  BASE  6.85608  138  9.3786   145  -4.0  100   -4.0  0     0     975.9    NA       0.0000   -SN      BR    7000  0    
2019/07/29  00:46:04  BASE  7.4382   141  9.3786   145  -4.0  100   -4.0  0     0     976.0    NA       0.0000   -SN      BR    6000  300  
2019/07/29  00:47:04  BASE  7.59108  141  9.3786   145  -4.0  100   -4.0  0     0     976.0    NA       0.0000   -SN      BR    6000  300  
2019/07/29  00:48:04  BASE  7.72632  141  9.25512  140  -4.0  100   -4.0  0     0     976.0    NA       0.0000   -SN      BR    6000  0    
2019/07/29  00:49:04  BASE  7.9968   141  9.25512  140  -4.0  100   -4.0  0     0     976.0    NA       0.0000   -SN      BR    9000  0    
2019/07/29  00:50:05  BASE  7.79688  142  9.25512  140  -4.0  100   -4.0  0     0     976.0    NA       0.0000   -SN      BR    9999  0    
2019/07/29  00:51:04  BASE  7.60872  144  9.25512  140  -4.0  100   -4.0  0     0     976.0    NA       0.0000   -SN      BR    9999  0    
2019/07/29  00:52:04  BASE  7.31472  143  9.25512  140  -4.0  100   -4.0  0     0     976.0    NA       0.0000   -SN      BR    9999  0    
2019/07/29  00:53:04  BASE  7.06776  142  8.92584  143  -4.0  100   -4.0  0     0     976.1    NA       0.0000   -SN      BR    9999  0    
2019/07/29  00:54:04  BASE  7.09128  140  8.92584  143  -4.0  100   -4.0  0     0     976.1    NA       0.0000   -SN      BR    9999  0    
2019/07/29  00:55:04  BASE  7.47348  138  8.92584  143  -4.0  100   -4.0  0     0     976.1    NA       0.0000   -SN      BR    9999  0    
2019/07/29  00:56:04  BASE  7.50288  141  8.92584  143  -4.0  100   -4.0  0     0     976.2    NA       0.0000   -SN      9999  0     0    
2019/07/29  00:57:03  BASE  6.71496  140  8.92584  143  -4.0  100   -4.0  0     0     976.2    NA       0.0000   -SN      9999  0     0    
2019/07/29  00:58:04  BASE  6.79728  136  8.92584  143  -4.0  100   -4.0  0     0     976.2    NA       0.0000   -SN      9999  0     0    
2019/07/29  00:59:04  BASE  6.97368  136  8.92584  143  -4.0  100   -4.0  0     0     976.2    NA       0.0000   -SN      9999  0     0    
2019/07/29  01:00:05  BASE  7.06776  139  8.4378   147  -4.0  100   -4.0  0     0     976.2    NA       0.0000   -SN      9999  0     0    
2019/07/29  01:01:05  BASE  7.35588  141  8.59068  142  -4.0  100   -4.0  0     0     976.3    NA       0.0000   -SN      9999  0     0    
2019/07/29  01:02:04  BASE  7.76748  141  9.04344  141  -4.0  100   -4.0  0     0     976.3    NA       0.0000   -SN      9999  0     0    
2019/07/29  01:03:04  BASE  8.27316  140  9.13752  138  -4.0  100   -4.0  0     0     976.2    NA       0.0000   -SN      9999  0     0    
2019/07/29  01:04:03  BASE  7.54404  139  9.13752  138  -3.9  100   -3.9  0     0     976.3    NA       0.0000   -SN      9999  0     0    
2019/07/29  01:05:04  BASE  6.7326   135  9.13752  138  -3.9  100   -3.9  0     0     976.4    NA       0.0000   -SN      9999  0     0    
2019/07/29  01:06:04  BASE  7.02072  133  9.13752  138  -3.9  100   -3.9  0     0     976.3    NA       0.0000   -SN      9999  0     0    
2019/07/29  01:07:04  BASE  7.17948  133  9.13752  138  -3.9  100   -3.9  0     0     976.4    NA       0.0000   -SN      9999  0     0    
2019/07/29  01:08:03  BASE  6.75024  134  9.13752  138  -3.8  100   -3.8  0     0     976.4    NA       0.0000   -SN      9999  0     0    
2019/07/29  01:09:05  BASE  6.468    136  9.13752  138  -3.8  100   -3.8  0     0     976.5    NA       0.0000   -SN      9999  0     0    
2019/07/29  01:10:04  BASE  6.47388  138  9.13752  138  -3.8  100   -3.8  0     0     976.5    NA       0.0000   -SN      9999  0     0    
2019/07/29  01:11:04  BASE  6.07404  137  9.13752  138  -3.8  100   -3.8  0     0     976.5    NA       0.0000   -SN      9999  0     0    
2019/07/29  01:12:04  BASE  5.92704  132  9.13752  138  -3.8  100   -3.8  0     0     976.5    NA       0.0000   -SN      9999  0     0    
2019/07/29  01:13:04  BASE  6.06816  133  8.01444  134  -3.8  100   -3.8  0     0     976.5    NA       0.0000   -SN      9999  0     0    
2019/07/29  01:14:04  BASE  6.42684  138  8.01444  134  -3.7  100   -3.7  0     0     976.5    NA       0.0000   -SN      9999  0     0    
2019/07/29  01:15:05  BASE  6.67968  139  8.01444  134  -3.7  100   -3.7  0     0     976.5    NA       0.0000   -SN      9999  0     0    
2019/07/29  01:16:01  BASE  6.615    139  7.83216  134  -3.7  100   -3.7  0     0     976.5    NA       0.0000   -SN      9999  0     0    
2019/07/29  01:17:04  BASE  6.50328  135  7.71456  138  -3.6  100   -3.6  0     0     976.6    NA       0.0000   -SN      9999  0     0    
2019/07/29  01:18:03  BASE  6.2328   130  7.71456  138  -3.6  100   -3.6  0     0     976.6    NA       0.0000   -SN      9999  0     0    
2019/07/29  01:19:03  BASE  6.10932  129  7.71456  138  -3.6  100   -3.6  0     0     976.6    NA       0.0000   -SN      9999  0     0    
2019/07/29  01:20:03  BASE  5.65068  128  7.71456  138  -3.6  100   -3.6  0     0     976.7    NA       0.0000   -SN      9999  0     0    
2019/07/29  01:21:04  BASE  5.00976  126  7.71456  138  -3.5  100   -3.5  0     0     976.7    NA       0.0000   -SN      9999  0     0    
2019/07/29  01:22:04  BASE  4.9098   128  7.71456  138  -3.5  100   -3.5  0     0     976.7    NA       0.0000   -SN      9999  0     0    
2019/07/29  01:23:03  BASE  4.78044  126  7.71456  138  -3.5  100   -3.5  0     0     976.7    NA       0.0000   -SN      9999  0     0    
2019/07/29  01:24:04  BASE  4.46292  124  7.53228  142  -3.5  100   -3.5  0     0     976.7    NA       0.0000   -SN      9999  0     0    
2019/07/29  01:25:04  BASE  4.39236  124  7.53228  142  -3.6  100   -3.6  0     0     976.8    NA       0.0000   -SN      9999  0     0    
2019/07/29  01:26:04  BASE  4.116    113  6.86784  137  -3.6  100   -3.6  0     0     976.8    NA       0.0000   -SN      9999  0     0    
2019/07/29  01:27:03  BASE  4.42764  112  6.74436  128  -3.6  100   -3.6  0     0     976.8    NA       0.0000   -SN      9999  0     0    
2019/07/29  01:28:04  BASE  4.58052  123  6.74436  128  -3.6  100   -3.6  0     0     976.8    NA       0.0000   -SN      9999  0     0    
2019/07/29  01:29:03  BASE  3.81024  124  6.71496  107  -3.6  100   -3.6  0     0     976.8    NA       0.0000   -SN      9999  0     0    
2019/07/29  01:30:05  BASE  3.19872  128  6.71496  107  -3.6  100   -3.6  0     0     976.8    NA       0.0000   -SN      9999  0     0    
2019/07/29  01:31:04  BASE  2.88708  135  6.71496  107  -3.5  100   -3.5  0     0     976.8    NA       0.0000   -SN      9999  0     0    
2019/07/29  01:32:03  BASE  2.72832  136  6.71496  107  -3.5  100   -3.5  0     0     976.9    NA       0.0000   -SN      9999  0     0    
2019/07/29  01:33:04  BASE  2.9694   140  6.71496  107  -3.5  100   -3.5  0     0     976.9    NA       0.0000   -SN      9999  0     0    
2019/07/29  01:34:04  BASE  3.27516  139  6.71496  107  -3.5  100   -3.5  0     0     977.0    NA       0.0000   -SN      9999  0     0    
2019/07/29  01:35:04  BASE  3.12816  141  6.71496  107  -3.5  100   -3.5  0     0     977.0    NA       0.0000   -SN      9999  0     0    
2019/07/29  01:36:04  BASE  3.31044  142  6.59148  124  -3.5  100   -3.5  0     0     977.0    NA       0.0000   -SN      9999  0     0    
2019/07/29  01:37:03  BASE  3.86904  143  4.93332  125  -3.4  100   -3.4  0     0     977.0    NA       0.0000   -SN      9999  0     0    
2019/07/29  01:38:03  BASE  4.03956  146  4.75104  148  -3.4  100   -3.4  0     0     977.0    NA       0.0000   -SN      9999  0     0    
2019/07/29  01:39:04  BASE  3.528    140  4.75104  148  -3.4  100   -3.4  0     0     977.0    NA       0.0000   -SN      9999  0     0    
2019/07/29  01:40:03  BASE  3.27516  138  4.75104  148  -3.4  100   -3.4  0     0     977.1    NA       0.0000   -SN      9999  0     0    
2019/07/29  01:41:04  BASE  3.81024  141  4.75104  148  -3.4  100   -3.4  0     0     977.1    NA       0.0000   -SN      9999  0     0    
2019/07/29  01:42:04  BASE  3.71616  146  4.75104  148  -3.4  100   -3.4  0     0     977.2    NA       0.0000   -SN      9999  0     0    
2019/07/29  01:43:03  BASE  3.83376  147  4.75104  148  -3.4  100   -3.4  0     0     977.2    NA       0.0000   -SN      9999  0     0    
2019/07/29  01:44:04  BASE  4.32768  141  4.75104  148  -3.4  100   -3.4  0     0     977.2    NA       0.0000   -SN      9999  0     0    
2019/07/29  01:45:03  BASE  4.116    136  4.75104  148  -3.4  100   -3.4  0     0     977.2    NA       0.0000   -SN      9999  0     0    
2019/07/29  01:46:04  BASE  3.80436  133  4.75104  148  -3.4  100   -3.4  0     0     977.2    NA       0.0000   -SN      9999  0     0    
2019/07/29  01:47:04  BASE  3.50448  135  4.75104  148  -3.4  100   -3.4  0     0     977.3    NA       0.0000   -SN      9999  0     0    
2019/07/29  01:48:03  BASE  3.32808  135  4.65696  135  -3.4  100   -3.4  0     0     977.3    NA       0.0000   -SN      9999  0     0    
2019/07/29  01:49:03  BASE  3.48684  134  4.65696  135  -3.4  100   -3.4  0     0     977.3    NA       0.0000   -SN      9999  0     0    
2019/07/29  01:50:03  BASE  3.47508  130  4.65696  135  -3.4  100   -3.4  0     0     977.3    NA       0.0000   -SN      9999  0     0    
2019/07/29  01:51:04  BASE  3.75732  120  4.86864  117  -3.4  100   -3.4  0     0     977.3    NA       0.0000   -SN      9999  3410  4100 
2019/07/29  01:52:04  BASE  4.23948  116  4.86864  117  -3.4  100   -3.4  0     0     977.3    NA       0.0000   -SN      9999  2920  0    
2019/07/29  01:53:03  BASE  4.28064  118  4.86864  117  -3.4  100   -3.5  0     0     977.3    NA       0.0000   -SN      9999  2720  0    
2019/07/29  01:54:03  BASE  4.33944  120  4.86864  117  -3.4  100   -3.5  0     0     977.3    NA       0.0000   -SN      9999  2590  3970 
2019/07/29  01:55:03  BASE  4.3806   124  4.86864  117  -3.4  99    -3.5  0     0     977.3    NA       0.0000   -SN      9999  2170  3870 
2019/07/29  01:56:04  BASE  3.93372  126  4.86864  117  -3.4  99    -3.5  0     0     977.3    NA       0.0000   9999     3840  0     0    
2019/07/29  01:57:03  BASE  3.54564  122  4.86864  117  -3.4  99    -3.5  0     0     977.4    NA       0.0000   9999     3480  0     0    
2019/07/29  01:58:03  BASE  3.4398   118  4.86864  117  -3.4  99    -3.5  0     0     977.4    NA       0.0000   9999     3020  4040  0    
2019/07/29  01:59:03  BASE  3.09876  114  4.86864  117  -3.3  99    -3.5  0     0     977.4    NA       0.0000   9999     2620  3540  0    
2019/07/29  02:00:04  BASE  2.90472  110  4.86864  117  -3.3  99    -3.5  0     0     977.5    NA       0.0000   9999     2590  4230  0    
2019/07/29  02:01:03  BASE  2.9694   112  4.80984  122  -3.4  98    -3.6  0     0     977.6    NA       0.0000   9999     2530  0     0    
2019/07/29  02:02:03  BASE  3.2046   115  4.80984  122  -3.5  98    -3.7  0     0     977.6    NA       0.0000   9999     2790  0     0    
2019/07/29  02:03:03  BASE  3.59856  115  4.78044  120  -3.5  98    -3.8  0     0     977.6    NA       0.0000   9999     2790  0     0    
2019/07/29  02:04:04  BASE  3.81024  116  4.72164  128  -3.5  98    -3.8  0     0     977.6    NA       0.0000   -SN      9999  2530  3670 
2019/07/29  02:05:04  BASE  3.47508  119  4.53936  117  -3.5  98    -3.7  0     0     977.6    NA       0.0000   -SN      9999  2430  0    
2019/07/29  02:06:04  BASE  3.24576  119  4.53936  117  -3.5  98    -3.7  0     0     977.7    NA       0.0000   -SN      9999  2260  0    
2019/07/29  02:07:03  BASE  3.4104   120  4.53936  117  -3.4  98    -3.6  0     0     977.7    NA       0.0000   -SN      9999  2230  0    
2019/07/29  02:08:04  BASE  3.45156  122  4.53936  117  -3.4  98    -3.6  0     0     977.7    NA       0.0000   -SN      9999  2560  0    
2019/07/29  02:09:04  BASE  3.4986   124  4.53936  117  -3.4  98    -3.6  0     0     977.7    NA       0.0000   -SN      9999  2200  4330 
2019/07/29  02:10:04  BASE  3.31044  128  4.53936  117  -3.4  98    -3.6  0     0     977.7    NA       0.0000   -SN      9999  2260  0    
2019/07/29  02:11:04  BASE  3.09876  130  4.53936  117  -3.4  98    -3.7  0     0     977.7    NA       0.0000   -SN      9999  2000  0    
2019/07/29  02:12:03  BASE  3.12816  132  4.53936  117  -3.4  98    -3.6  0     0     977.7    NA       0.0000   -SN      9999  1740  0    
2019/07/29  02:13:04  BASE  3.25164  135  4.1454   116  -3.4  98    -3.6  0     0     977.7    NA       0.0000   9999     2100  0     0    
2019/07/29  02:14:04  BASE  3.2046   139  3.86904  126  -3.4  98    -3.6  0     0     977.8    NA       0.0000   9999     2100  0     0    
2019/07/29  02:15:05  BASE  2.69304  142  3.86904  126  -3.4  98    -3.6  0     0     977.8    NA       0.0000   9999     2400  0     0    
2019/07/29  02:16:01  BASE  2.54604  146  3.86904  126  -3.4  98    -3.7  0     0     977.9    NA       0.0000   9999     2360  0     0    
2019/07/29  02:17:04  BASE  2.7048   151  3.86904  126  -3.4  98    -3.7  0     0     977.9    NA       0.0000   9999     2460  0     0    
2019/07/29  02:18:05  BASE  2.69892  152  3.86904  126  -3.5  98    -3.8  0     0     977.9    NA       0.0000   9999     2330  0     0    
2019/07/29  02:19:05  BASE  2.62836  153  3.75144  134  -3.5  98    -3.8  0     0     977.9    NA       0.0000   9999     2430  3350  0    
2019/07/29  02:20:06  BASE  2.51664  155  3.75144  134  -3.6  98    -3.8  0     0     977.9    NA       0.0000   9999     2560  3350  0    
2019/07/29  02:21:05  BASE  2.6166   159  3.65736  134  -3.6  98    -3.9  0     0     978.0    NA       0.0000   9999     2560  0     0    
2019/07/29  02:22:04  BASE  2.75772  159  3.65736  134  -3.7  98    -3.9  0     0     978.0    NA       0.0000   9999     2560  0     0    
2019/07/29  02:23:05  BASE  2.78712  154  3.59856  143  -3.6  98    -3.8  0     0     978.1    NA       0.0000   9999     2690  0     0    
2019/07/29  02:24:05  BASE  3.01056  154  3.96312  174  -3.6  98    -3.8  0     0     978.0    NA       0.0000   9999     2590  0     0    
2019/07/29  02:25:05  BASE  3.381    159  4.1454   158  -3.5  98    -3.8  0     0     978.0    NA       0.0000   9999     2490  3900  0    
2019/07/29  02:26:05  BASE  3.09288  154  4.1454   158  -3.5  98    -3.7  0     0     978.1    NA       0.0000   9999     2360  0     0    
2019/07/29  02:27:04  BASE  2.5578   145  4.1454   158  -3.4  98    -3.7  0     0     978.1    NA       0.0000   9999     2490  0     0    
2019/07/29  02:28:04  BASE  2.7342   146  4.1454   158  -3.4  98    -3.7  0     0     978.1    NA       0.0000   9999     2530  0     0    
2019/07/29  02:29:04  BASE  3.234    150  4.1454   158  -3.4  98    -3.7  0     0     978.1    NA       0.0000   9999     2130  2720  0    
2019/07/29  02:30:05  BASE  3.85728  156  5.292    165  -3.4  97    -3.7  0     0     978.2    NA       0.0000   9999     2130  3580  0    
2019/07/29  02:31:04  BASE  4.3512   166  5.292    165  -3.3  97    -3.7  0     0     978.2    NA       0.0000   9999     2070  0     0    
2019/07/29  02:32:05  BASE  4.35708  171  5.292    165  -3.3  97    -3.7  0     0     978.2    NA       0.0000   8000     1800  0     0    
2019/07/29  02:33:04  BASE  4.23948  172  5.292    165  -3.2  97    -3.7  0     0     978.2    NA       0.0000   9999     1870  0     0    
2019/07/29  02:34:04  BASE  4.39236  168  5.292    165  -3.2  96    -3.7  0     0     978.3    NA       0.0000   9999     1800  0     0    
2019/07/29  02:35:04  BASE  4.38648  168  5.292    165  -3.1  96    -3.7  0     0     978.3    NA       0.0000   9999     1640  0     0    
2019/07/29  02:36:04  BASE  4.30416  168  5.292    165  -3.1  95    -3.7  0     0     978.3    NA       0.0000   9999     1710  0     0    
2019/07/29  02:37:04  BASE  4.25712  165  5.292    165  -3.1  95    -3.8  0     0     978.3    NA       0.0000   9999     1670  2990  3970 
2019/07/29  02:38:04  BASE  3.98664  162  5.292    165  -3.1  95    -3.9  0     0     978.3    NA       0.0000   9999     2850  3970  0    
2019/07/29  02:39:04  BASE  4.46292  161  6.05052  158  -3.2  94    -3.9  0     0     978.3    NA       0.0000   9999     1840  4040  0    
2019/07/29  02:40:04  BASE  4.95684  167  6.05052  158  -3.1  94    -3.9  0     0     978.3    NA       0.0000   9999     3970  0     0    
2019/07/29  02:41:04  BASE  4.80984  169  6.05052  158  -3.1  94    -4.0  0     0     978.3    NA       0.0000   9999     4000  0     0    
2019/07/29  02:42:04  BASE  4.69224  161  6.05052  158  -3.1  94    -3.9  0     0     978.4    NA       0.0000   9999     1970  4000  0    
2019/07/29  02:43:04  BASE  4.38648  153  6.05052  158  -3.1  94    -3.9  0     0     978.4    NA       0.0000   9999     1840  2530  4100 
2019/07/29  02:44:04  BASE  4.21596  148  6.05052  158  -3.1  94    -3.9  0     0     978.4    NA       0.0000   9999     4070  0     0    
2019/07/29  02:45:04  BASE  3.91608  144  6.05052  158  -3.1  94    -3.9  0     0     978.5    NA       0.0000   9999     1870  2620  4170 
2019/07/29  02:46:05  BASE  4.01604  144  6.05052  158  -3.1  94    -4.0  0     0     978.5    NA       0.0000   9999     2460  4230  0    
2019/07/29  02:47:04  BASE  4.86864  145  6.05052  158  -3.1  93    -4.0  0     0     978.5    NA       0.0000   9999     1900  2460  4200 
2019/07/29  02:48:04  BASE  4.95684  144  6.05052  158  -3.1  93    -4.0  0     0     978.5    NA       0.0000   9999     2360  4270  0    
2019/07/29  02:49:01  BASE  4.39236  144  5.71536  147  -3.0  93    -4.0  0     0     978.5    NA       0.0000   9999     2230  0     0    
2019/07/29  02:50:04  BASE  4.40412  147  5.71536  147  -3.0  93    -4.0  0     0     978.5    NA       0.0000   9999     1840  0     0    
2019/07/29  02:51:03  BASE  4.07484  150  5.71536  147  -3.0  93    -4.1  0     0     978.5    NA       0.0000   9999     1800  0     0    
2019/07/29  02:52:04  BASE  3.7338   147  5.71536  147  -3.0  92    -4.1  0     0     978.5    NA       0.0000   9999     1870  0     0    
2019/07/29  02:53:03  BASE  4.02192  143  5.71536  147  -3.0  92    -4.1  0     0     978.5    NA       0.0000   9999     1710  0     0    
2019/07/29  02:54:04  BASE  4.09248  147  5.71536  147  -3.0  92    -4.1  0     0     978.6    NA       0.0000   9999     1710  0     0    
2019/07/29  02:55:04  BASE  4.19832  148  5.71536  147  -3.0  92    -4.1  0     0     978.6    NA       0.0000   9999     1670  0     0    
2019/07/29  02:56:04  BASE  4.23948  147  5.59776  145  -3.0  92    -4.1  0     0     978.6    NA       0.0000   9000     1640  0     0    
2019/07/29  02:57:04  BASE  3.85728  145  5.145    149  -3.0  92    -4.1  0     0     978.6    NA       0.0000   -SN      8000  1510  2690 
2019/07/29  02:58:04  BASE  3.72204  140  5.145    149  -3.0  92    -4.1  0     0     978.7    NA       0.0000   -SN      7000  2920  0    
2019/07/29  02:59:04  BASE  3.53388  145  5.145    149  -3.0  92    -4.0  0     0     978.7    NA       0.0000   -SN      7000  1510  2850 
2019/07/29  03:00:04  BASE  3.54564  147  5.145    149  -3.0  93    -4.0  0     0     978.7    NA       0.0000   -SN      BR    7000  1540 
2019/07/29  03:01:04  BASE  3.87492  149  5.145    149  -3.0  93    -4.0  0     0     978.7    NA       0.0000   -SN      BR    6000  1410 
2019/07/29  03:02:04  BASE  3.3222   150  5.145    149  -3.0  93    -4.0  0     0     978.8    NA       0.0000   -SN      BR    5000  1410 
2019/07/29  03:03:04  BASE  2.8812   143  5.145    149  -3.0  93    -4.0  0     0     978.8    NA       0.0000   -SN      BR    5000  1410 
2019/07/29  03:04:04  BASE  3.42804  140  5.145    149  -3.0  93    -4.0  0     0     978.9    NA       0.0000   -SN      BR    5000  1410 
2019/07/29  03:05:04  BASE  3.92196  146  4.65696  153  -3.0  93    -4.0  0     0     978.9    NA       0.0000   -SN      BR    4700  1440 
2019/07/29  03:06:04  BASE  3.53976  150  4.65696  153  -3.0  93    -4.0  0     0     978.9    NA       0.0000   -SN      BR    4400  1410 
2019/07/29  03:07:04  BASE  3.00468  144  4.65696  153  -3.1  94    -4.0  0     0     978.9    NA       0.0000   -SN      BR    4100  1350 
2019/07/29  03:08:04  BASE  2.75772  143  4.65696  153  -3.1  94    -3.9  0     0     978.9    NA       0.0000   -SN      BR    3900  1350 
2019/07/29  03:09:04  BASE  2.50488  144  4.65696  153  -3.1  94    -3.9  0     0     979.0    NA       0.0000   -SN      BR    3700  1380 
2019/07/29  03:10:05  BASE  2.6166   141  4.65696  153  -3.1  94    -3.9  0     0     979.0    NA       0.0000   -SN      BR    3400  1310 
2019/07/29  03:11:05  BASE  2.72244  146  4.65696  153  -3.1  94    -3.9  0     0     979.1    NA       0.0000   -SN      BR    3200  1310 
2019/07/29  03:12:04  BASE  2.33436  146  4.65696  153  -3.1  94    -4.0  0     0     979.1    NA       0.0000   -SN      BR    3000  1380 
2019/07/29  03:13:04  BASE  2.35788  142  4.65696  153  -3.1  94    -4.0  0     0     979.1    NA       0.0000   -SN      BR    2800  1350 
2019/07/29  03:14:04  BASE  2.48136  140  4.65696  153  -3.1  94    -3.9  0     0     979.1    NA       0.0000   -SN      BR    2700  1310 
2019/07/29  03:15:05  BASE  2.42844  139  3.53976  160  -3.2  94    -3.9  0     0     979.1    NA       0.0000   -SN      BR    2500  1380 
2019/07/29  03:16:02  BASE  2.79888  146  3.83964  148  -3.2  95    -3.9  0     0     979.1    NA       0.0000   BR       2400  1350  2100 
2019/07/29  03:17:05  BASE  3.07524  153  3.83964  148  -3.1  95    -3.9  0     0     979.1    NA       0.0000   BR       2300  2330  4790 
2019/07/29  03:18:04  BASE  2.74008  161  3.83964  148  -3.1  95    -3.8  0     0     979.1    NA       0.0000   BR       2200  1310  2200 
2019/07/29  03:19:05  BASE  2.2638   156  3.83964  148  -3.1  95    -3.8  0     0     979.2    NA       0.0000   BR       2000  1310  0    
2019/07/29  03:20:06  BASE  2.00508  143  3.83964  148  -3.1  95    -3.8  0     0     979.2    NA       0.0000   BR       1900  1350  0    
2019/07/29  03:21:05  BASE  2.1168   147  3.83964  148  -3.1  95    -3.8  0     0     979.2    NA       0.0000   BR       1800  1280  0    
2019/07/29  03:22:05  BASE  2.42256  148  3.83964  148  -3.2  95    -3.8  0     0     979.2    NA       0.0000   BR       1700  1310  2430 
2019/07/29  03:23:05  BASE  2.58132  150  3.83964  148  -3.2  96    -3.8  0     0     979.2    NA       0.0000   BR       1700  2230  0    
2019/07/29  03:24:05  BASE  2.42844  154  3.83964  148  -3.2  96    -3.7  0     0     979.2    NA       0.0000   BR       1700  1380  2030 
2019/07/29  03:25:04  BASE  2.205    157  3.83964  148  -3.1  96    -3.6  0     0     979.2    NA       0.0000   BR       1700  1250  1940 
2019/07/29  03:26:04  BASE  2.03448  160  3.51036  172  -3.1  97    -3.6  0     0     979.2    NA       0.0000   BR       1600  1210  0    
2019/07/29  03:27:05  BASE  1.78752  151  3.2046   138  -3.1  97    -3.5  0     0     979.2    NA       0.0000   BR       1500  1250  0    
2019/07/29  03:28:05  BASE  2.1168   148  3.2046   138  -3.1  97    -3.5  0     0     979.2    NA       0.0000   BR       1400  1280  0    
2019/07/29  03:29:06  BASE  2.28732  153  3.2046   138  -3.1  97    -3.5  0     0     979.2    NA       0.0000   BR       1400  1250  1840 
2019/07/29  03:30:06  BASE  1.9992   153  3.2046   138  -3.1  97    -3.5  0     0     979.3    NA       0.0000   BR       1300  1280  1800 
2019/07/29  03:31:05  BASE  1.89336  156  3.2046   138  -3.1  97    -3.5  0     0     979.3    NA       0.0000   BR       1300  1510  0    
2019/07/29  03:32:05  BASE  1.911    166  3.087    139  -3.1  97    -3.5  0     0     979.3    NA       0.0000   BR       1200  1250  0    
2019/07/29  03:33:04  BASE  1.95804  157  2.87532  154  -3.1  97    -3.4  0     0     979.3    NA       0.0000   BR       1200  1410  0    
2019/07/29  03:34:04  BASE  2.01684  142  2.87532  154  -3.1  98    -3.4  0     0     979.3    NA       0.0000   BR       1100  1350  0    
2019/07/29  03:35:04  BASE  2.16972  147  2.87532  154  -3.1  98    -3.4  0     0     979.3    NA       0.0000   BR       1100  1250  2130 
2019/07/29  03:36:03  BASE  2.11092  154  2.87532  154  -3.1  98    -3.3  0     0     979.3    NA       0.0000   BR       1000  1540  0    
2019/07/29  03:37:04  BASE  2.12856  156  2.87532  154  -3.0  98    -3.3  0     0     979.3    NA       0.0000   BR       1000  1380  0    
2019/07/29  03:38:03  BASE  2.07564  146  2.54016  177  -3.0  98    -3.3  0     0     979.3    NA       0.0000   BR       1000  1310  0    
2019/07/29  03:39:03  BASE  1.80516  133  2.54016  177  -3.0  98    -3.2  0     0     979.3    NA       0.0000   BR       1400  1250  0    
2019/07/29  03:40:04  BASE  1.76988  132  2.54016  177  -3.0  99    -3.2  0     0     979.3    NA       0.0000   BR       6000  1210  0    
2019/07/29  03:41:03  BASE  1.94628  130  2.54016  177  -3.0  99    -3.2  0     0     979.3    NA       0.0000   BR       9999  1180  0    
2019/07/29  03:42:04  BASE  2.34024  124  3.087    122  -3.1  99    -3.2  0     0     979.3    NA       0.0000   BR       9999  1180  0    
2019/07/29  03:43:04  BASE  2.49312  125  3.087    122  -3.1  99    -3.2  0     0     979.3    NA       0.0000   BR       9999  1180  0    
2019/07/29  03:44:03  BASE  2.3226   120  3.087    122  -3.0  99    -3.2  0     0     979.3    NA       0.0000   BR       9999  1180  0    
2019/07/29  03:45:04  BASE  2.3814   116  3.087    122  -3.0  99    -3.2  0     0     979.3    NA       0.0000   BR       9999  1180  0    
2019/07/29  03:46:04  BASE  2.59308  123  3.087    122  -3.0  99    -3.2  0     0     979.3    NA       0.0000   BR       9999  1210  0    
2019/07/29  03:47:04  BASE  2.51076  131  3.087    122  -3.0  99    -3.1  0     0     979.4    NA       0.0000   BR       9999  1210  0    
2019/07/29  03:48:04  BASE  2.3226   133  3.087    122  -3.0  99    -3.1  0     0     979.5    NA       0.0000   BR       9999  1210  0    
2019/07/29  03:49:04  BASE  2.3814   132  3.087    122  -3.0  100   -3.1  0     0     979.5    NA       0.0000   9999     1180  0     0    
2019/07/29  03:50:04  BASE  2.46372  132  3.087    122  -3.0  100   -3.0  0     0     979.5    NA       0.0000   9999     1180  0     0    
2019/07/29  03:51:04  BASE  2.69304  130  3.69264  130  -3.0  100   -3.0  0     0     979.5    NA       0.0000   9999     1150  0     0    
2019/07/29  03:52:04  BASE  2.82828  131  3.69264  130  -3.0  100   -3.0  0     0     979.5    NA       0.0000   9999     1150  0     0    
2019/07/29  03:53:04  BASE  2.48136  122  3.69264  130  -3.0  100   -3.0  0     0     979.5    NA       0.0000   9999     1150  0     0    
2019/07/29  03:54:03  BASE  2.5578   118  3.69264  130  -3.0  100   -3.0  0     0     979.6    NA       0.0000   9999     1150  0     0    
2019/07/29  03:55:04  BASE  2.77536  128  3.69264  130  -3.0  100   -3.0  0     0     979.6    NA       0.0000   9999     1150  0     0    
2019/07/29  03:56:04  BASE  2.45784  136  3.69264  130  -3.0  100   -3.0  0     0     979.6    NA       0.0000   9999     1150  0     0    
2019/07/29  03:57:04  BASE  2.39904  142  3.69264  130  -3.0  100   -3.0  0     0     979.6    NA       0.0000   9999     1120  0     0    
2019/07/29  03:58:04  BASE  2.19324  140  3.69264  130  -3.0  100   -3.0  0     0     979.7    NA       0.0000   9999     1080  0     0    
2019/07/29  03:59:04  BASE  2.25792  135  3.69264  130  -2.9  100   -2.9  0     0     979.7    NA       0.0000   9999     1080  0     0    
2019/07/29  04:00:04  BASE  2.57544  141  3.69264  130  -2.9  100   -2.9  0     0     979.7    NA       0.0000   9999     1080  0     0    
2019/07/29  04:01:03  BASE  2.25204  160  3.62796  140  -2.9  100   -2.9  0     0     979.7    NA       0.0000   9999     1080  0     0    
2019/07/29  04:02:03  BASE  1.66404  170  3.62796  140  -2.9  100   -2.9  0     0     979.8    NA       0.0000   9999     1080  0     0    
2019/07/29  04:03:04  BASE  1.31124  168  3.62796  140  -2.9  100   -2.9  0     0     979.8    NA       0.0000   9999     1080  0     0    
2019/07/29  04:04:03  BASE  1.42296  148  3.2046   127  -2.9  100   -2.9  0     0     979.8    NA       0.0000   9999     1080  0     0    
2019/07/29  04:05:04  BASE  1.84044  142  2.87532  139  -2.9  100   -2.9  0     0     979.8    NA       0.0000   9999     1080  0     0    
2019/07/29  04:06:04  BASE  1.98744  151  2.87532  139  -2.9  100   -2.9  0     0     979.8    NA       0.0000   9999     1050  0     0    
2019/07/29  04:07:04  BASE  1.764    148  2.87532  139  -2.9  100   -2.9  0     0     979.8    NA       0.0000   9999     1120  0     0    
2019/07/29  04:08:05  BASE  1.78752  144  2.87532  139  -2.9  100   -2.9  0     0     979.8    NA       0.0000   9999     1080  0     0    
2019/07/29  04:09:04  BASE  1.76988  143  2.87532  139  -2.9  100   -2.9  0     0     979.8    NA       0.0000   9999     1050  0     0    
2019/07/29  04:10:04  BASE  1.6464   144  2.48136  163  -2.9  100   -2.9  0     0     979.8    NA       0.0000   9999     980   0     0    
2019/07/29  04:11:04  BASE  1.8522   149  2.48136  163  -2.9  100   -2.9  0     0     979.8    NA       0.0000   9999     980   0     0    
2019/07/29  04:12:05  BASE  1.83456  148  2.48136  163  -2.9  100   -2.9  0     0     979.8    NA       0.0000   9999     980   0     0    
2019/07/29  04:13:05  BASE  1.92864  142  2.48136  163  -2.9  100   -2.9  0     0     979.8    NA       0.0000   9999     950   0     0    
2019/07/29  04:14:05  BASE  2.1462   146  2.48136  163  -2.9  100   -2.9  0     0     979.8    NA       0.0000   9999     980   0     0    
2019/07/29  04:15:06  BASE  1.97568  148  2.42256  145  -2.9  100   -2.9  0     0     979.9    NA       0.0000   9999     980   1770  0    
2019/07/29  04:16:01  BASE  1.84044  141  2.42256  145  -2.9  100   -2.9  0     0     979.9    NA       0.0000   9999     920   0     0    
2019/07/29  04:17:06  BASE  2.22264  135  2.81064  137  -2.9  100   -2.9  0     0     979.9    NA       0.0000   9999     950   1970  0    
2019/07/29  04:18:06  BASE  2.3814   136  2.81064  137  -2.9  100   -2.9  0     0     979.9    NA       0.0000   9999     920   1840  0    
2019/07/29  04:19:05  BASE  2.10504  130  2.81064  137  -2.9  100   -2.9  0     0     979.9    NA       0.0000   9999     850   1710  0    
2019/07/29  04:20:05  BASE  2.205    126  2.81064  137  -2.9  100   -2.9  0     0     979.9    NA       0.0000   9999     920   1480  0    
2019/07/29  04:21:05  BASE  2.15796  130  2.81064  137  -2.9  100   -2.9  0     0     979.9    NA       0.0000   9999     920   0     0    
2019/07/29  04:22:05  BASE  1.79928  128  2.81064  137  -2.9  100   -2.9  0     0     979.9    NA       0.0000   9999     850   0     0    
2019/07/29  04:23:05  BASE  1.54056  127  2.81064  137  -2.9  100   -2.9  0     0     979.9    NA       0.0000   9999     890   0     0    
2019/07/29  04:24:05  BASE  1.37004  132  2.81064  137  -2.9  100   -2.9  0     0     979.9    NA       0.0000   9999     850   0     0    
2019/07/29  04:25:04  BASE  1.4112   128  2.81064  137  -2.9  100   -2.9  0     0     979.9    NA       0.0000   9999     790   0     0    
2019/07/29  04:26:05  BASE  1.58172  127  2.81064  137  -2.9  100   -2.9  0     0     980.0    NA       0.0000   9999     820   0     0    
2019/07/29  04:27:04  BASE  1.56408  136  2.72244  130  -2.9  100   -2.9  0     0     980.1    NA       0.0000   9999     850   0     0    
2019/07/29  04:28:04  BASE  1.36416  133  2.72244  130  -2.9  100   -2.9  0     0     980.1    NA       0.0000   9999     980   0     0    
2019/07/29  04:29:05  BASE  1.12308  134  2.72244  130  -2.9  100   -2.9  0     0     980.1    NA       0.0000   9999     850   0     0    
2019/07/29  04:30:06  BASE  0.98196  150  2.38728  132  -2.9  100   -2.9  0     0     980.2    NA       0.0000   9999     790   0     0    
2019/07/29  04:31:04  BASE  0.9702   160  1.9992   123  -2.9  100   -2.9  0     0     980.2    NA       0.0000   9999     1210  0     0    
2019/07/29  04:32:04  BASE  1.04076  161  1.9992   123  -2.9  100   -2.9  0     0     980.2    NA       0.0000   9999     980   0     0    
2019/07/29  04:33:04  BASE  0.97608  159  1.9992   123  -2.9  100   -2.9  0     0     980.2    NA       0.0000   9999     890   0     0    
2019/07/29  04:34:04  BASE  0.47628  164  1.9992   123  -2.9  100   -2.9  0     0     980.2    NA       0.0000   9999     920   0     0    
2019/07/29  04:35:05  BASE  0.11172  220  1.87572  140  -2.9  100   -2.9  0     0     980.2    NA       0.0000   9999     950   0     0    
2019/07/29  04:36:05  BASE  0.81732  286  1.9992   304  -2.9  100   -2.9  0     0     980.2    NA       0.0000   9999     920   0     0    
2019/07/29  04:37:05  BASE  1.72284  306  2.0874   316  -2.9  100   -2.9  0     0     980.2    NA       0.0000   9999     920   0     0    
2019/07/29  04:38:04  BASE  2.08152  311  2.35788  310  -2.9  100   -2.9  0     0     980.2    NA       0.0000   9999     790   0     0    
2019/07/29  04:39:05  BASE  2.32848  311  2.72244  307  -2.9  100   -2.9  0     0     980.2    NA       0.0000   9999     790   0     0    
2019/07/29  04:40:11  BASE  2.37552  312  2.72244  307  -2.9  100   -2.9  0     0     980.2    NA       0.0000   9999     980   0     0    
2019/07/29  04:41:05  BASE  2.27556  310  2.72244  307  -2.8  100   -2.8  0     0     980.2    NA       0.0000   9999     1080  0     0    
2019/07/29  04:42:05  BASE  2.14032  301  2.72244  307  -2.8  100   -2.8  0     0     980.3    NA       0.0000   9999     620   0     0    
2019/07/29  04:43:05  BASE  2.29908  283  2.96352  273  -2.8  100   -2.8  0     0     980.3    NA       0.0000   9999     430   0     0    
2019/07/29  04:44:05  BASE  2.90472  269  4.59816  251  -2.8  100   -2.8  0     0     980.4    NA       0.0000   5000     260   0     0    
2019/07/29  04:45:04  BASE  4.21008  266  6.16812  267  -2.8  100   -2.8  0     0     980.4    NA       0.0000   -SN      BR    4100  360  
2019/07/29  04:46:04  BASE  5.18616  267  6.16812  267  -2.7  100   -2.7  0     0     980.4    NA       0.0000   -SN      BR    6000  360  
2019/07/29  04:47:04  BASE  6.027    264  7.3794   252  -2.7  100   -2.7  0     0     980.4    NA       0.0000   -SN      BR    9999  360  
2019/07/29  04:48:04  BASE  6.57384  258  7.3794   252  -2.7  100   -2.7  0     0     980.4    NA       0.0000   -SN      BR    9999  260  
2019/07/29  04:49:03  BASE  6.59148  257  7.50288  253  -2.7  100   -2.7  0     0     980.4    NA       0.0000   -SN      BR    9999  0    
2019/07/29  04:50:05  BASE  6.70908  257  7.50288  253  -2.7  100   -2.7  0     0     980.4    NA       0.0000   -SN      BR    9999  0    
2019/07/29  04:51:04  BASE  6.46212  253  7.50288  253  -2.7  100   -2.7  0     0     980.4    NA       0.0000   -SN      BR    9000  0    
2019/07/29  04:52:05  BASE  6.91488  251  8.59068  254  -2.8  100   -2.8  0     0     980.5    NA       0.0000   -SN      BR    9999  0    
2019/07/29  04:53:04  BASE  7.36176  248  8.59068  254  -2.8  100   -2.8  0     0     980.5    NA       0.0000   -SN      BR    9999  300  
2019/07/29  04:54:05  BASE  7.09716  246  8.59068  254  -2.8  100   -2.8  0     0     980.5    NA       0.0000   -SN      BR    9999  330  
2019/07/29  04:55:04  BASE  6.92076  247  8.59068  254  -2.9  100   -2.9  0     0     980.5    NA       0.0000   -SN      9999  360   0    
2019/07/29  04:56:04  BASE  7.68516  248  8.95524  252  -2.9  100   -2.9  0     0     980.6    NA       0.0000   -SN      9999  360   0    
2019/07/29  04:57:04  BASE  8.30256  246  9.31392  245  -2.9  100   -2.9  0     0     980.5    NA       0.0000   -SN      9999  430   0    
2019/07/29  04:58:04  BASE  7.89096  244  9.31392  245  -2.9  100   -2.9  0     0     980.6    NA       0.0000   -SN      9999  590   0    
2019/07/29  04:59:03  BASE  7.71456  244  9.31392  245  -2.9  100   -2.9  0     0     980.6    NA       0.0000   -SN      9999  820   0    
2019/07/29  05:00:04  BASE  7.81452  247  9.31392  245  -2.9  100   -2.9  0     0     980.6    NA       0.0000   -SN      9999  1050  0    
2019/07/29  05:01:04  BASE  7.8204   250  9.31392  245  -2.9  100   -2.9  0     0     980.6    NA       0.0000   -SN      9999  1250  0    
2019/07/29  05:02:05  BASE  8.24964  252  9.31392  257  -2.9  100   -2.9  0     0     980.6    NA       0.0000   -SN      9999  1440  0    
2019/07/29  05:03:05  BASE  8.32608  251  9.31392  257  -2.9  100   -2.9  0     0     980.6    NA       0.0000   -SN      9999  1540  0    
2019/07/29  05:04:05  BASE  8.39076  252  9.31392  257  -2.8  100   -2.8  0     0     980.6    NA       0.0000   -SN      9999  1710  0    
2019/07/29  05:05:04  BASE  8.33784  252  9.31392  257  -2.8  100   -2.8  0     0     980.6    NA       0.0000   -SN      9999  1900  0    
2019/07/29  05:06:04  BASE  8.60244  250  9.4668   251  -2.9  100   -2.9  0     0     980.6    NA       0.0000   9999     2030  0     0    
2019/07/29  05:07:04  BASE  8.88468  249  9.4668   245  -2.9  100   -2.9  0     0     980.7    NA       0.0000   9999     2130  3480  0    
2019/07/29  05:08:04  BASE  8.673    248  9.4668   245  -3.0  100   -3.0  0     0     980.7    NA       0.0000   9999     3450  0     0    
2019/07/29  05:09:03  BASE  8.0556   248  9.4668   245  -3.0  100   -3.0  0     0     980.7    NA       0.0000   9999     3350  0     0    
2019/07/29  05:10:04  BASE  7.79688  249  9.4668   245  -3.0  100   -3.0  0     0     980.7    NA       0.0000   9999     3350  0     0    
2019/07/29  05:11:05  BASE  7.63812  247  9.4668   245  -3.0  100   -3.0  0     0     980.8    NA       0.0000   9999     2820  0     0    
2019/07/29  05:12:06  BASE  7.46172  248  9.4668   245  -3.0  100   -3.0  0     0     980.8    NA       0.0000   9999     850   2890  0    
2019/07/29  05:13:05  BASE  7.67928  247  9.4668   245  -2.9  100   -2.9  0     0     980.8    NA       0.0000   9999     790   3050  0    
2019/07/29  05:14:05  BASE  7.79688  246  9.4668   245  -2.9  100   -2.9  0     0     980.8    NA       0.0000   9999     790   3310  0    
2019/07/29  05:15:06  BASE  7.60872  248  9.4668   245  -2.9  100   -2.9  0     0     980.8    NA       0.0000   9999     890   3220  0    
2019/07/29  05:16:05  BASE  7.88508  249  9.4668   245  -2.9  100   -2.9  0     0     980.9    NA       0.0000   9999     1120  3180  0    
2019/07/29  05:17:06  BASE  7.92036  248  9.3786   245  -2.9  100   -2.9  0     0     980.9    NA       0.0000   9999     750   3220  0    
2019/07/29  05:18:06  BASE  8.20848  245  9.4374   240  -2.9  100   -2.9  0     0     980.9    NA       0.0000   9999     330   0     0    
2019/07/29  05:19:05  BASE  8.39664  242  9.4374   240  -2.9  100   -2.9  0     0     980.9    NA       0.0000   9999     300   0     0    
2019/07/29  05:20:06  BASE  7.77924  242  9.4374   240  -2.9  100   -2.9  0     0     980.9    NA       0.0000   9999     360   0     0    
2019/07/29  05:21:05  BASE  7.92624  245  9.4374   240  -2.9  100   -2.9  0     0     981.0    NA       0.0000   9999     720   0     0    
2019/07/29  05:22:06  BASE  8.24964  247  9.4374   240  -2.9  100   -2.9  0     0     981.0    NA       0.0000   9999     890   0     0    
2019/07/29  05:23:05  BASE  8.00856  250  9.4374   240  -2.9  100   -2.9  0     0     981.0    NA       0.0000   9999     950   0     0    
2019/07/29  05:24:05  BASE  7.68516  247  9.4374   240  -2.9  100   -2.9  0     0     981.0    NA       0.0000   9999     750   3540  0    
2019/07/29  05:25:05  BASE  7.85568  243  9.4374   235  -3.0  100   -3.0  0     0     981.0    NA       0.0000   9999     820   3640  0    
2019/07/29  05:26:05  BASE  8.22612  242  9.4374   235  -3.0  100   -3.0  0     0     981.0    NA       0.0000   9999     1080  3710  0    
2019/07/29  05:27:05  BASE  7.9674   243  9.4374   235  -3.0  100   -3.0  0     0     981.0    NA       0.0000   9999     720   0     0    
2019/07/29  05:28:04  BASE  8.0262   244  10.043   243  -3.0  100   -3.0  0     0     981.1    NA       0.0000   9999     790   0     0    
2019/07/29  05:29:05  BASE  8.0262   242  10.043   243  -3.0  100   -3.0  0     0     981.1    NA       0.0000   9999     1150  3740  0    
2019/07/29  05:30:05  BASE  7.62048  242  10.043   243  -3.0  100   -3.0  0     0     981.2    NA       0.0000   9999     750   3740  0    
2019/07/29  05:31:05  BASE  7.36764  244  10.043   243  -3.0  100   -3.0  0     0     981.2    NA       0.0000   9999     790   3740  0    
2019/07/29  05:32:05  BASE  7.3794   246  10.043   243  -3.1  100   -3.1  0     0     981.2    NA       0.0000   9999     790   3710  0    
2019/07/29  05:33:05  BASE  7.44996  244  10.043   243  -3.1  100   -3.1  0     0     981.2    NA       0.0000   9999     750   0     0    
2019/07/29  05:34:04  BASE  7.54992  242  10.043   243  -3.1  100   -3.1  0     0     981.3    NA       0.0000   9999     950   3640  0    
2019/07/29  05:35:04  BASE  8.0556   241  10.043   243  -3.1  100   -3.1  0     0     981.3    NA       0.0000   9999     1440  3610  0    
2019/07/29  05:36:04  BASE  8.51424  243  10.043   245  -3.1  100   -3.1  0     0     981.3    NA       0.0000   9999     790   3410  0    
2019/07/29  05:37:04  BASE  8.56716  245  10.043   245  -3.1  100   -3.1  0     0     981.4    NA       0.0000   9999     790   3540  0    
2019/07/29  05:38:05  BASE  8.32608  248  10.043   245  -3.1  100   -3.1  0     0     981.4    NA       0.0000   9999     460   0     0    
2019/07/29  05:39:05  BASE  7.94388  250  10.043   245  -3.1  100   -3.1  0     0     981.4    NA       0.0000   9999     520   3610  0    
2019/07/29  05:40:04  BASE  7.45584  250  10.043   245  -3.1  100   -3.1  0     0     981.4    NA       0.0000   9999     1380  1940  3480 
2019/07/29  05:41:05  BASE  7.15596  252  10.043   245  -3.2  100   -3.2  0     0     981.5    NA       0.0000   9999     850   1900  0    
2019/07/29  05:42:05  BASE  7.33236  251  10.043   245  -3.2  100   -3.2  0     0     981.5    NA       0.0000   9999     1510  2100  0    
2019/07/29  05:43:04  BASE  7.36176  251  10.043   245  -3.2  100   -3.2  0     0     981.5    NA       0.0000   9999     1440  2030  3610 
2019/07/29  05:44:05  BASE  7.29708  252  10.043   245  -3.2  100   -3.2  0     0     981.5    NA       0.0000   9999     1150  0     0    
2019/07/29  05:45:04  BASE  7.1442   248  10.043   245  -3.2  100   -3.2  0     0     981.5    NA       0.0000   9999     850   0     0    
2019/07/29  05:46:05  BASE  7.13244  249  9.22572  243  -3.2  100   -3.2  0     0     981.5    NA       0.0000   9999     850   0     0    
2019/07/29  05:47:04  BASE  7.50288  249  9.01404  249  -3.2  100   -3.2  0     0     981.5    NA       0.0000   9999     820   0     0    
2019/07/29  05:48:04  BASE  7.44408  246  8.59068  257  -3.2  100   -3.2  0     0     981.5    NA       0.0000   9999     790   0     0    
2019/07/29  05:49:05  BASE  7.4382   243  8.59068  257  -3.2  100   -3.2  0     0     981.5    NA       0.0000   9999     460   0     0    
2019/07/29  05:50:05  BASE  7.02072  242  8.59068  257  -3.2  100   -3.2  0     0     981.6    NA       0.0000   9999     520   0     0    
2019/07/29  05:51:05  BASE  6.69144  243  8.59068  257  -3.2  100   -3.2  0     0     981.6    NA       0.0000   9999     520   0     0    
2019/07/29  05:52:05  BASE  6.86196  243  8.59068  257  -3.2  100   -3.2  0     0     981.6    NA       0.0000   9999     620   0     0    
2019/07/29  05:53:05  BASE  7.13832  243  8.59068  257  -3.2  100   -3.2  0     0     981.6    NA       0.0000   9999     950   0     0    
2019/07/29  05:54:04  BASE  7.5264   241  8.59068  257  -3.2  100   -3.2  0     0     981.6    NA       0.0000   9999     690   1380  0    
2019/07/29  05:55:05  BASE  7.03248  240  8.59068  257  -3.2  100   -3.2  0     0     981.6    NA       0.0000   9999     430   0     0    
2019/07/29  05:56:06  BASE  5.99172  244  8.4672   240  -3.2  100   -3.2  0     0     981.6    NA       0.0000   9999     560   0     0    
2019/07/29  05:57:06  BASE  6.321    248  8.4672   240  -3.2  100   -3.2  0     0     981.6    NA       0.0000   9999     920   0     0    
2019/07/29  05:58:06  BASE  6.98544  249  8.4672   240  -3.3  100   -3.3  0     0     981.7    NA       0.0000   9999     920   0     0    
2019/07/29  05:59:05  BASE  6.97368  251  8.379    241  -3.3  100   -3.3  0     0     981.7    NA       0.0000   9999     950   0     0    
2019/07/29  06:00:06  BASE  6.69732  250  8.379    241  -3.3  100   -3.3  0     0     981.6    NA       0.0000   9999     950   0     0    
2019/07/29  06:01:06  BASE  6.54444  248  8.379    241  -3.3  100   -3.3  0     0     981.7    NA       0.0000   9999     1210  0     0    
2019/07/29  06:02:06  BASE  6.62088  249  8.379    241  -3.3  100   -3.3  0     0     981.7    NA       0.0000   9999     1250  0     0    
2019/07/29  06:03:06  BASE  6.63264  248  8.3202   242  -3.3  100   -3.3  0     0     981.7    NA       0.0000   9999     1080  1570  0    
2019/07/29  06:04:06  BASE  6.93252  245  7.80276  246  -3.3  100   -3.3  0     0     981.7    NA       0.0000   9999     1020  0     0    
2019/07/29  06:05:05  BASE  7.40292  244  8.22612  248  -3.3  100   -3.3  0     0     981.7    NA       0.0000   9999     1120  0     0    
2019/07/29  06:06:04  BASE  7.43232  246  8.22612  248  -3.3  100   -3.3  0     0     981.7    NA       0.0000   9999     1050  0     0    
2019/07/29  06:07:04  BASE  7.27944  245  8.22612  248  -3.3  100   -3.3  0     0     981.8    NA       0.0000   9999     1080  0     0    
2019/07/29  06:08:04  BASE  7.47348  244  8.22612  248  -3.3  100   -3.3  0     0     981.8    NA       0.0000   9999     1210  1970  0    
2019/07/29  06:09:06  BASE  7.47936  247  8.22612  248  -3.3  100   -3.3  0     0     981.8    NA       0.0000   9999     1180  0     0    
2019/07/29  06:10:05  BASE  7.36176  249  8.22612  248  -3.3  100   -3.3  0     0     981.8    NA       0.0000   9999     520   1280  0    
2019/07/29  06:11:04  BASE  7.10304  249  8.22612  248  -3.3  100   -3.3  0     0     981.9    NA       0.0000   9999     460   0     0    
2019/07/29  06:12:05  BASE  6.94428  249  8.22612  248  -3.4  100   -3.4  0     0     981.9    NA       0.0000   9999     430   0     0    
2019/07/29  06:13:05  BASE  7.2912   248  8.379    246  -3.4  100   -3.4  0     0     981.9    NA       0.0000   9999     850   2030  0    
2019/07/29  06:14:05  BASE  7.05012  242  8.379    246  -3.4  100   -3.4  0     0     981.9    NA       0.0000   9999     1870  0     0    
2019/07/29  06:15:05  BASE  6.17988  238  8.379    246  -3.5  100   -3.5  0     0     981.9    NA       0.0000   9999     790   2000  0    
2019/07/29  06:16:14  BASE  5.55072  239  8.379    246  -3.5  100   -3.5  0     0     982.0    NA       0.0000   9999     850   2030  0    
2019/07/29  06:17:05  BASE  5.69184  247  8.379    246  -3.5  100   -3.5  0     0     982.0    NA       0.0000   9999     850   0     0    
2019/07/29  06:18:05  BASE  6.37392  255  8.379    246  -3.5  100   -3.5  0     0     982.0    NA       0.0000   9999     1150  0     0    
2019/07/29  06:19:05  BASE  6.76788  258  8.379    246  -3.4  100   -3.4  0     0     982.1    NA       0.0000   9999     660   0     0    
2019/07/29  06:20:04  BASE  7.05012  257  8.379    246  -3.4  100   -3.4  0     0     982.1    NA       0.0000   9999     390   0     0    
2019/07/29  06:21:05  BASE  7.57932  253  8.80236  252  -3.4  100   -3.4  0     0     982.1    NA       0.0000   9999     390   0     0    
2019/07/29  06:22:06  BASE  8.00268  258  8.92584  257  -3.3  100   -3.3  0     0     982.1    NA       0.0000   9999     300   0     0    
2019/07/29  06:23:04  BASE  7.66752  260  8.92584  257  -3.3  100   -3.3  0     0     982.1    NA       0.0000   9999     260   920   0    
2019/07/29  06:24:05  BASE  7.27944  260  8.92584  257  -3.3  100   -3.3  0     0     982.1    NA       0.0000   9999     330   0     0    
2019/07/29  06:25:04  BASE  6.78552  260  8.92584  257  -3.3  100   -3.3  0     0     982.1    NA       0.0000   9999     390   0     0    
2019/07/29  06:26:05  BASE  6.33864  261  8.92584  257  -3.4  100   -3.4  0     0     982.1    NA       0.0000   9999     460   0     0    
2019/07/29  06:27:05  BASE  6.6444   259  8.92584  257  -3.4  100   -3.4  0     0     982.1    NA       0.0000   9999     660   0     0    
2019/07/29  06:28:05  BASE  6.95604  256  8.92584  257  -3.4  100   -3.4  0     0     982.2    NA       0.0000   9999     690   0     0    
2019/07/29  06:29:05  BASE  7.06188  257  8.92584  257  -3.5  100   -3.5  0     0     982.2    NA       0.0000   9999     1120  0     0    
2019/07/29  06:30:02  BASE  6.63264  259  8.92584  257  -3.5  100   -3.5  0     0     982.2    NA       0.0000   9999     520   0     0    
2019/07/29  06:31:05  BASE  5.6448   263  8.92584  257  -3.5  100   -3.5  0     0     982.2    NA       0.0000   9999     520   0     0    
2019/07/29  06:32:06  BASE  5.58012  264  8.3496   262  -3.5  100   -3.5  0     0     982.3    NA       0.0000   9999     520   0     0    
2019/07/29  06:33:05  BASE  5.7624   262  8.07912  254  -3.5  100   -3.5  0     0     982.3    NA       0.0000   9999     460   0     0    
2019/07/29  06:34:05  BASE  6.34452  268  8.07912  254  -3.4  100   -3.4  0     0     982.3    NA       0.0000   9999     620   0     0    
2019/07/29  06:35:02  BASE  7.26768  266  8.71416  260  -3.4  100   -3.4  0     0     982.3    NA       0.0000   9999     390   0     0    
2019/07/29  06:36:05  BASE  7.54404  258  8.80236  248  -3.4  100   -3.4  0     0     982.3    NA       0.0000   9999     330   0     0    
2019/07/29  06:37:04  BASE  7.69104  255  8.80236  248  -3.3  100   -3.3  0     0     982.3    NA       0.0000   9999     260   0     0    
2019/07/29  06:38:06  BASE  7.73808  253  8.80236  248  -3.3  100   -3.3  0     0     982.3    NA       0.0000   9999     330   0     0    
2019/07/29  06:39:01  BASE  7.74396  253  8.80236  248  -3.4  100   -3.4  0     0     982.3    NA       0.0000   9999     330   0     0    
2019/07/29  06:40:04  BASE  7.73808  256  8.80236  248  -3.4  100   -3.4  0     0     982.4    NA       0.0000   9999     330   0     0    
2019/07/29  06:41:04  BASE  7.74396  259  8.80236  248  -3.4  100   -3.4  0     0     982.4    NA       0.0000   9999     360   1180  0    
2019/07/29  06:42:04  BASE  7.4088   258  8.80236  248  -3.5  100   -3.5  0     0     982.4    NA       0.0000   9999     520   0     0    
2019/07/29  06:43:01  BASE  6.92076  255  8.80236  248  -3.5  100   -3.5  0     0     982.4    NA       0.0000   9999     790   0     0    
2019/07/29  06:45:00  BASE  6.60324  253  8.80236  248  -3.5  100   -3.5  0     0     982.4    NA       0.0000   9999     460   0     0    
2019/07/29  06:46:00  BASE  6.6738   255  8.80236  248  -3.6  100   -3.6  0     0     982.4    NA       0.0000   9999     430   0     0    
2019/07/29  06:47:00  BASE  6.83256  252  8.64948  264  -3.6  100   -3.6  0     0     982.4    NA       0.0000   9999     390   0     0    
2019/07/29  06:48:00  BASE  6.16812  248  8.64948  264  -3.6  100   -3.6  0     0     982.4    NA       0.0000   9999     390   0     0    
2019/07/29  06:49:00  BASE  5.4978   247  8.64948  264  -3.6  100   -3.6  0     0     982.4    NA       0.0000   9999     750   0     0    
2019/07/29  06:50:00  BASE  5.57424  250  8.64948  264  -3.6  100   -3.6  0     0     982.5    NA       0.0000   9999     230   0     0    
2019/07/29  06:51:00  BASE  5.95056  251  8.2908   258  -3.6  100   -3.6  0     0     982.6    NA       0.0000   9999     460   0     0    
2019/07/29  06:52:00  BASE  6.15636  247  8.04384  251  -3.5  100   -3.5  0     0     982.6    NA       0.0000   9999     390   0     0    
2019/07/29  06:53:00  BASE  6.09756  247  8.04384  251  -3.5  100   -3.5  0     0     982.6    NA       0.0000   9000     330   0     0    
2019/07/29  06:54:00  BASE  6.37392  249  8.04384  251  -3.5  100   -3.5  0     0     982.6    NA       0.0000   9999     260   0     0    
2019/07/29  06:55:00  BASE  6.52092  248  8.04384  251  -3.5  100   -3.5  0     0     982.6    NA       0.0000   9999     520   1250  0    
2019/07/29  06:56:00  BASE  6.56208  251  8.74356  259  -3.6  100   -3.6  0     0     982.6    NA       0.0000   9999     460   0     0    
2019/07/29  06:57:00  BASE  7.07364  259  8.74356  259  -3.6  100   -3.6  0     0     982.6    NA       0.0000   9999     390   0     0    
2019/07/29  06:58:00  BASE  7.42056  262  8.74356  259  -3.6  100   -3.6  0     0     982.6    NA       0.0000   9999     390   0     0    
2019/07/29  06:59:00  BASE  7.29708  261  8.74356  259  -3.6  100   -3.6  0     0     982.6    NA       0.0000   9999     390   0     0    
2019/07/29  07:00:00  BASE  6.70908  261  8.74356  259  -3.6  100   -3.6  0     0     982.7    NA       0.0000   9999     330   1610  0    
2019/07/29  07:01:00  BASE  6.76788  259  8.74356  259  -3.7  100   -3.7  0     0     982.7    NA       0.0000   9999     430   1080  0    
2019/07/29  07:02:00  BASE  7.1736   259  8.74356  259  -3.7  100   -3.7  0     0     982.7    NA       0.0000   9999     560   1050  0    
2019/07/29  07:03:00  BASE  6.80316  261  8.74356  259  -3.7  100   -3.7  0     0     982.7    NA       0.0000   9999     1180  2360  0    
2019/07/29  07:04:00  BASE  6.75024  262  8.74356  259  -3.7  100   -3.7  0     0     982.7    NA       0.0000   9999     1280  0     0    
2019/07/29  07:05:00  BASE  6.91488  260  8.74356  259  -3.8  100   -3.8  0     0     982.7    NA       0.0000   9999     950   1380  2490 
2019/07/29  07:06:00  BASE  6.93252  258  8.25552  252  -3.8  100   -3.8  0     0     982.8    NA       0.0000   9999     950   2560  0    
2019/07/29  07:07:00  BASE  6.86196  257  8.13792  259  -3.8  100   -3.8  0     0     982.8    NA       0.0000   9999     790   2430  0    
2019/07/29  07:08:00  BASE  6.09756  256  8.13792  259  -3.8  100   -3.8  0     0     982.8    NA       0.0000   9999     1050  0     0    
2019/07/29  07:09:00  BASE  5.45664  254  7.92624  252  -3.7  100   -3.7  0     0     982.8    NA       0.0000   9999     1020  0     0    
2019/07/29  07:10:00  BASE  5.9388   256  7.92624  252  -3.7  100   -3.7  0     0     982.9    NA       0.0000   9999     1150  2430  0    
2019/07/29  07:11:00  BASE  6.40332  260  7.89684  263  -3.7  100   -3.7  0     0     982.9    NA       0.0000   9999     1210  0     0    
2019/07/29  07:12:00  BASE  6.3504   258  7.89684  263  -3.7  100   -3.7  0     0     982.9    NA       0.0000   9999     1080  0     0    
2019/07/29  07:13:00  BASE  6.38568  255  7.89684  263  -3.8  100   -3.8  0     0     982.9    NA       0.0000   9999     1180  0     0    
2019/07/29  07:14:00  BASE  5.89176  255  7.80276  257  -3.8  100   -3.8  0     0     982.9    NA       0.0000   9999     920   0     0    
2019/07/29  07:15:00  BASE  5.63304  255  7.80276  257  -3.8  100   -3.8  0     0     982.9    NA       0.0000   9999     850   1900  0    
2019/07/29  07:16:00  BASE  6.22104  251  7.4088   259  -3.8  100   -3.8  0     0     982.9    NA       0.0000   9999     890   2000  0    
2019/07/29  07:17:00  BASE  6.45036  250  7.65576  252  -3.8  100   -3.8  0     0     982.9    NA       0.0000   9999     820   1740  0    
2019/07/29  07:18:00  BASE  6.4386   253  7.65576  252  -3.8  100   -3.8  0     0     982.9    NA       0.0000   9999     660   0     0    
2019/07/29  07:19:00  BASE  6.15048  250  7.65576  252  -3.7  100   -3.7  0     0     982.9    NA       0.0000   9999     520   1180  0    
2019/07/29  07:20:00  BASE  6.10932  245  7.74396  240  -3.7  100   -3.7  0     0     982.9    NA       0.0000   9999     520   1020  0    
2019/07/29  07:21:00  BASE  6.59148  243  7.74396  240  -3.7  100   -3.7  0     0     982.9    NA       0.0000   9999     390   0     0    
2019/07/29  07:22:00  BASE  6.65616  244  7.74396  240  -3.7  100   -3.7  0     0     982.9    NA       0.0000   9999     360   0     0    
2019/07/29  07:23:00  BASE  6.50328  244  7.74396  240  -3.7  100   -3.7  0     0     982.9    NA       0.0000   9999     360   0     0    
2019/07/29  07:24:00  BASE  6.67968  243  7.74396  240  -3.7  100   -3.7  0     0     983.0    NA       0.0000   9999     620   0     0    
2019/07/29  07:25:00  BASE  6.45624  242  7.74396  240  -3.8  100   -3.8  0     0     983.0    NA       0.0000   9999     1050  0     0    
2019/07/29  07:26:00  BASE  5.97996  242  7.74396  240  -3.8  100   -3.8  0     0     983.1    NA       0.0000   9999     490   0     0    
2019/07/29  07:27:00  BASE  5.63892  243  7.74396  240  -3.8  100   -3.8  0     0     983.1    NA       0.0000   9999     820   2760  0    
2019/07/29  07:28:00  BASE  5.56248  247  7.74396  240  -3.8  100   -3.8  0     0     983.1    NA       0.0000   9999     820   0     0    
2019/07/29  07:29:00  BASE  5.59188  250  7.74396  240  -3.9  100   -3.9  0     0     983.1    NA       0.0000   9999     690   0     0    
2019/07/29  07:30:00  BASE  5.60364  254  7.71456  247  -3.9  100   -3.9  0     0     983.1    NA       0.0000   9999     660   0     0    
2019/07/29  07:31:00  BASE  5.51544  259  7.65576  241  -3.9  100   -3.9  0     0     983.1    NA       0.0000   9999     690   0     0    
2019/07/29  07:32:00  BASE  5.70948  257  7.65576  241  -3.9  100   -3.9  0     0     983.1    NA       0.0000   9999     850   0     0    
2019/07/29  07:33:00  BASE  6.10932  253  7.65576  241  -3.8  100   -3.8  0     0     983.1    NA       0.0000   9999     850   0     0    
2019/07/29  07:34:00  BASE  6.37392  251  7.2618   252  -3.8  100   -3.8  0     0     983.2    NA       0.0000   9999     920   0     0    
2019/07/29  07:35:00  BASE  6.65028  250  7.2618   252  -3.8  100   -3.8  0     0     983.2    NA       0.0000   9999     690   0     0    
2019/07/29  07:36:00  BASE  6.59148  247  7.2618   252  -3.9  100   -3.9  0     0     983.2    NA       0.0000   9999     920   0     0    
2019/07/29  07:37:00  BASE  6.45624  246  7.2618   252  -3.9  100   -3.9  0     0     983.2    NA       0.0000   9999     1080  0     0    
2019/07/29  07:38:00  BASE  6.16224  245  7.2618   252  -3.9  100   -3.9  0     0     983.2    NA       0.0000   9999     980   0     0    
2019/07/29  07:39:00  BASE  5.86824  248  7.2618   252  -3.9  100   -3.9  0     0     983.2    NA       0.0000   9999     1050  0     0    
2019/07/29  07:40:00  BASE  5.7918   253  7.2618   252  -3.9  100   -3.9  0     0     983.2    NA       0.0000   9999     1120  0     0    
2019/07/29  07:41:00  BASE  5.5272   262  7.2618   252  -3.9  100   -3.9  0     0     983.3    NA       0.0000   9999     1180  0     0    
2019/07/29  07:42:01  BASE  4.87452  268  7.2618   252  -3.9  100   -3.9  0     0     983.3    NA       0.0000   9999     1280  0     0    
2019/07/29  07:43:00  BASE  5.2038   265  7.2618   252  -3.9  100   -3.9  0     0     983.3    NA       0.0000   9999     1410  0     0    
2019/07/29  07:44:00  BASE  5.6742   262  7.10892  249  -3.8  100   -3.8  0     0     983.2    NA       0.0000   9999     1210  0     0    
2019/07/29  07:45:00  BASE  5.29788  264  6.86784  269  -3.8  100   -3.8  0     0     983.3    NA       0.0000   9999     1180  0     0    
2019/07/29  07:46:00  BASE  4.8804   268  6.86784  269  -3.8  100   -3.8  0     0     983.3    NA       0.0000   9999     1150  0     0    
2019/07/29  07:47:00  BASE  4.9392   263  6.86784  269  -3.7  100   -3.7  0     0     983.3    NA       0.0000   9999     1210  0     0    
2019/07/29  07:48:00  BASE  5.56248  257  6.86784  269  -3.7  100   -3.7  0     0     983.3    NA       0.0000   9999     1210  0     0    
2019/07/29  07:49:00  BASE  5.88588  257  6.86784  269  -3.7  100   -3.7  0     0     983.3    NA       0.0000   9999     1280  0     0    
2019/07/29  07:50:00  BASE  5.90352  255  6.92664  255  -3.8  100   -3.8  0     0     983.3    NA       0.0000   9999     1210  1900  0    
2019/07/29  07:51:00  BASE  5.60364  254  6.92664  255  -3.8  100   -3.8  0     0     983.4    NA       0.0000   9999     1150  0     0    
2019/07/29  07:52:00  BASE  5.56248  259  6.92664  255  -3.8  100   -3.8  0     0     983.4    NA       0.0000   9999     1310  2230  0    
2019/07/29  07:53:00  BASE  5.65656  261  6.92664  255  -3.8  100   -3.8  0     0     983.4    NA       0.0000   9999     1210  0     0    
2019/07/29  07:54:00  BASE  5.53308  258  6.92664  255  -3.8  100   -3.8  0     0     983.4    NA       0.0000   9999     1150  0     0    
2019/07/29  07:55:00  BASE  5.72712  258  7.05012  257  -3.8  100   -3.8  0     0     983.4    NA       0.0000   9999     1120  0     0    
2019/07/29  07:56:00  BASE  6.00348  262  7.2618   266  -3.7  100   -3.7  0     0     983.4    NA       0.0000   9999     1080  0     0    
2019/07/29  07:57:00  BASE  5.88588  262  7.2618   266  -3.7  100   -3.7  0     0     983.5    NA       0.0000   9999     1050  0     0    
2019/07/29  07:58:00  BASE  5.50368  262  7.2618   266  -3.7  100   -3.7  0     0     983.5    NA       0.0000   9999     1280  0     0    
2019/07/29  07:59:00  BASE  5.58012  265  7.2618   266  -3.7  100   -3.7  0     0     983.5    NA       0.0000   9999     1080  0     0    
2019/07/29  08:00:00  BASE  5.68596  270  7.2618   266  -3.7  100   -3.7  0     0     983.5    NA       0.0000   9999     1670  0     0    
2019/07/29  08:01:01  BASE  5.38608  274  7.2618   266  -3.7  100   -3.7  0     0     983.5    NA       0.0000   9999     1120  0     0    
2019/07/29  08:02:00  BASE  5.37432  266  7.2618   266  -3.7  100   -3.7  0     0     983.5    NA       0.0000   9999     2170  2920  0    
2019/07/29  08:03:00  BASE  5.25084  263  7.2618   266  -3.7  100   -3.7  0     0     983.5    NA       0.0000   9999     890   0     0    
2019/07/29  08:04:00  BASE  4.93332  267  7.2618   266  -3.8  100   -3.8  0     0     983.5    NA       0.0000   9999     790   0     0    
2019/07/29  08:05:00  BASE  5.28612  264  7.2618   266  -3.8  100   -3.8  0     0     983.5    NA       0.0000   9999     720   2200  0    
2019/07/29  08:06:00  BASE  5.92704  259  7.13832  260  -3.8  100   -3.8  0     0     983.5    NA       0.0000   9999     720   2200  0    
2019/07/29  08:07:00  BASE  6.27396  256  7.2324   254  -3.8  100   -3.8  0     0     983.5    NA       0.0000   9999     690   0     0    
2019/07/29  08:08:00  BASE  6.2328   255  7.2324   254  -3.8  100   -3.8  0     0     983.6    NA       0.0000   9999     1050  0     0    
2019/07/29  08:09:00  BASE  5.586    259  7.2324   254  -3.8  100   -3.8  0     0     983.6    NA       0.0000   9999     1250  0     0    
2019/07/29  08:10:00  BASE  4.94508  269  7.2324   254  -3.8  100   -3.8  0     0     983.7    NA       0.0000   9999     1020  2100  0    
2019/07/29  08:11:00  BASE  4.68048  274  7.2324   254  -3.8  100   -3.8  0     0     983.7    NA       0.0000   9999     1050  0     0    
2019/07/29  08:12:00  BASE  5.10384  273  7.2324   254  -3.8  100   -3.8  0     0     983.7    NA       0.0000   9999     950   0     0    
2019/07/29  08:13:00  BASE  5.91528  272  7.2324   254  -3.7  100   -3.7  0     0     983.7    NA       0.0000   9999     790   0     0    
2019/07/29  08:14:00  BASE  5.92704  275  7.2324   254  -3.7  100   -3.7  0     0     983.7    NA       0.0000   9999     750   0     0    
2019/07/29  08:15:00  BASE  5.76828  278  7.2324   254  -3.7  100   -3.7  0     0     983.7    NA       0.0000   9999     660   0     0    
2019/07/29  08:16:00  BASE  5.68008  276  7.2324   254  -3.7  100   -3.7  0     0     983.7    NA       0.0000   9999     390   0     0    
2019/07/29  08:17:00  BASE  5.47428  276  7.13832  277  -3.7  100   -3.7  0     0     983.7    NA       0.0000   9999     950   0     0    
2019/07/29  08:18:00  BASE  5.1156   277  7.13832  277  -3.7  100   -3.7  0     0     983.8    NA       0.0000   9999     1770  0     0    
2019/07/29  08:19:00  BASE  4.9098   280  7.13832  277  -3.8  100   -3.8  0     0     983.9    NA       0.0000   9999     890   2100  0    
2019/07/29  08:20:00  BASE  4.99212  280  7.13832  277  -3.8  100   -3.8  0     0     983.9    NA       0.0000   9999     1410  2460  0    
2019/07/29  08:21:00  BASE  4.704    274  7.13832  277  -3.8  100   -3.8  0     0     983.9    NA       0.0000   9999     920   2070  0    
2019/07/29  08:22:00  BASE  4.04544  269  7.13832  277  -3.8  100   -3.8  0     0     983.9    NA       0.0000   9999     890   2400  0    
2019/07/29  08:23:00  BASE  3.6456   271  6.62676  270  -3.8  100   -3.8  0     0     983.9    NA       0.0000   9999     920   0     0    
2019/07/29  08:24:00  BASE  4.54524  277  6.62676  270  -3.8  100   -3.8  0     0     984.0    NA       0.0000   9999     720   0     0    
2019/07/29  08:25:00  BASE  5.1744   279  6.2622   275  -3.8  100   -3.8  0     0     984.0    NA       0.0000   9999     720   0     0    
2019/07/29  08:26:00  BASE  4.69812  275  6.2034   285  -3.8  100   -3.8  0     0     984.0    NA       0.0000   9999     950   0     0    
2019/07/29  08:27:00  BASE  4.77456  270  6.2034   285  -3.8  100   -3.8  0     0     984.0    NA       0.0000   9999     920   0     0    
2019/07/29  08:28:00  BASE  4.83924  266  6.2034   285  -3.8  100   -3.8  0     0     984.1    NA       0.0000   9999     430   0     0    
2019/07/29  08:29:00  BASE  4.07484  267  6.2034   285  -3.9  100   -3.9  0     0     984.1    NA       0.0000   9999     1180  2200  0    
2019/07/29  08:30:00  BASE  3.4104   265  6.2034   285  -3.9  100   -3.9  0     0     984.1    NA       0.0000   9999     890   2200  0    
2019/07/29  08:31:00  BASE  3.3222   267  6.2034   285  -3.9  100   -3.9  0     0     984.1    NA       0.0000   9999     980   0     0    
2019/07/29  08:32:00  BASE  3.61032  278  6.2034   285  -3.9  100   -3.9  0     0     984.1    NA       0.0000   9999     920   2530  0    
2019/07/29  08:33:00  BASE  4.10424  283  6.2034   285  -3.9  100   -3.9  0     0     984.1    NA       0.0000   9999     890   0     0    
2019/07/29  08:34:00  BASE  4.11012  285  5.99172  278  -3.8  100   -3.8  0     0     984.1    NA       0.0000   9999     950   0     0    
2019/07/29  08:35:00  BASE  3.96312  274  5.92704  269  -3.8  100   -3.8  0     0     984.2    NA       0.0000   9999     920   0     0    
2019/07/29  08:36:00  BASE  4.42764  258  5.92704  269  -3.8  100   -3.8  0     0     984.2    NA       0.0000   9999     1150  2590  0    
2019/07/29  08:37:00  BASE  4.58052  255  5.56836  261  -3.8  100   -3.8  0     0     984.2    NA       0.0000   9999     980   2620  0    
2019/07/29  08:38:00  BASE  4.50996  256  5.53308  251  -3.8  100   -3.8  0     0     984.2    NA       0.0000   9999     920   0     0    
2019/07/29  08:39:00  BASE  4.65696  255  5.53308  251  -3.8  100   -3.8  0     0     984.3    NA       0.0000   9999     890   2850  0    
2019/07/29  08:40:00  BASE  4.6158   251  5.53308  251  -3.9  100   -3.9  0     0     984.3    NA       0.0000   9999     980   2790  0    
2019/07/29  08:41:00  BASE  4.6452   248  5.53308  251  -3.9  100   -3.9  0     0     984.3    NA       0.0000   9999     2850  0     0    
2019/07/29  08:42:00  BASE  4.52172  245  5.53308  251  -4.0  100   -4.0  0     0     984.3    NA       0.0000   9999     950   2890  0    
2019/07/29  08:43:00  BASE  4.116    248  5.53308  251  -4.0  100   -4.0  0     0     984.3    NA       0.0000   9999     950   2920  3510 
2019/07/29  08:44:00  BASE  3.78672  252  5.53308  251  -4.0  100   -4.0  0     0     984.3    NA       0.0000   9999     920   2920  3580 
2019/07/29  08:45:00  BASE  4.07484  253  5.53308  251  -4.0  100   -4.0  0     0     984.3    NA       0.0000   9999     890   0     0    
2019/07/29  08:46:00  BASE  4.7628   254  5.47428  251  -4.0  100   -4.0  0     0     984.4    NA       0.0000   9999     790   0     0    
2019/07/29  08:47:00  BASE  5.12736  256  6.13872  270  -4.0  100   -4.0  0     0     984.4    NA       0.0000   9999     790   0     0    
2019/07/29  08:48:00  BASE  4.5276   265  6.13872  270  -4.0  100   -4.0  0     0     984.5    NA       0.0000   9999     520   0     0    
2019/07/29  08:49:00  BASE  3.72792  270  6.13872  270  -3.9  100   -3.9  0     0     984.5    NA       0.0000   9999     620   0     0    
2019/07/29  08:50:00  BASE  3.65148  272  6.13872  270  -3.9  100   -3.9  0     0     984.5    NA       0.0000   9999     2560  0     0    
2019/07/29  08:51:00  BASE  3.82788  274  6.13872  270  -3.9  100   -3.9  0     0     984.5    NA       0.0000   9999     720   0     0    
2019/07/29  08:52:00  BASE  4.36296  278  6.13872  270  -3.8  100   -3.8  0     0     984.5    NA       0.0000   9999     690   0     0    
2019/07/29  08:53:00  BASE  4.56876  280  6.13872  270  -3.8  100   -3.8  0     0     984.5    NA       0.0000   9999     920   0     0    
2019/07/29  08:54:00  BASE  4.23948  278  6.13872  270  -3.8  100   -3.8  0     0     984.5    NA       0.0000   9999     2620  0     0    
2019/07/29  08:55:00  BASE  4.22772  275  6.13872  270  -3.8  100   -3.8  0     0     984.6    NA       0.0000   9999     2590  0     0    
2019/07/29  08:56:00  BASE  3.9984   274  6.13872  270  -3.8  100   -3.8  0     0     984.6    NA       0.0000   9999     2590  0     0    
2019/07/29  08:57:00  BASE  3.87492  272  5.83884  279  -3.8  100   -3.8  0     0     984.6    NA       0.0000   9999     1050  2560  0    
2019/07/29  08:58:00  BASE  4.22772  270  5.83884  279  -3.8  100   -3.8  0     0     984.6    NA       0.0000   9999     720   0     0    
2019/07/29  08:59:00  BASE  4.15128  273  5.83884  279  -3.8  100   -3.8  0     0     984.6    NA       0.0000   9999     820   2620  0    
2019/07/29  09:00:00  BASE  4.62756  269  5.83884  279  -3.8  100   -3.8  0     0     984.6    NA       0.0000   9999     920   0     0    
2019/07/29  09:01:00  BASE  4.95684  259  5.83884  279  -3.8  100   -3.8  0     0     984.7    NA       0.0000   9999     1080  2560  0    
2019/07/29  09:02:00  BASE  4.31004  258  5.62716  264  -3.8  100   -3.8  0     0     984.7    NA       0.0000   9999     1120  2560  0    
2019/07/29  09:03:00  BASE  3.81024  261  5.62716  264  -3.8  100   -3.8  0     0     984.7    NA       0.0000   9999     1020  2560  0    
2019/07/29  09:04:00  BASE  3.6456   260  5.62716  264  -3.8  100   -3.8  0     0     984.7    NA       0.0000   9999     950   0     0    
2019/07/29  09:05:00  BASE  4.11012  262  5.62716  264  -3.8  100   -3.8  0     0     984.7    NA       0.0000   9999     1120  2490  0    
2019/07/29  09:06:00  BASE  4.3512   266  5.62716  264  -3.8  100   -3.8  0     0     984.7    NA       0.0000   9999     1050  2560  0    
2019/07/29  09:07:00  BASE  4.1748   264  5.62716  264  -3.8  100   -3.8  0     0     984.7    NA       0.0000   9999     1050  2460  0    
2019/07/29  09:08:00  BASE  4.00428  266  5.62716  264  -3.8  100   -3.8  0     0     984.8    NA       0.0000   9999     1020  2490  0    
2019/07/29  09:09:00  BASE  3.95136  276  5.62716  264  -3.8  100   -3.8  0     0     984.8    NA       0.0000   9999     890   1640  0    
2019/07/29  09:10:00  BASE  3.98664  273  5.38608  251  -3.8  100   -3.8  0     0     984.8    NA       0.0000   9999     850   0     0    
2019/07/29  09:11:00  BASE  3.86904  265  5.2626   267  -3.8  100   -3.8  0     0     984.8    NA       0.0000   9999     890   0     0    
2019/07/29  09:12:00  BASE  4.19244  262  5.41548  263  -3.8  100   -3.8  0     0     984.8    NA       0.0000   9999     750   0     0    
2019/07/29  09:13:00  BASE  4.82748  257  5.74476  252  -3.8  100   -3.8  0     0     984.8    NA       0.0000   9999     850   2330  0    
2019/07/29  09:14:00  BASE  4.9098   254  5.74476  252  -3.8  100   -3.8  0     0     984.8    NA       0.0000   9999     980   2200  0    
2019/07/29  09:15:00  BASE  4.56288  255  5.74476  252  -3.8  100   -3.8  0     0     984.8    NA       0.0000   9999     2260  0     0    
2019/07/29  09:16:00  BASE  4.4982   262  5.74476  252  -3.8  100   -3.8  0     0     984.8    NA       0.0000   9999     790   2300  0    
2019/07/29  09:17:00  BASE  4.3512   267  5.74476  252  -3.8  100   -3.8  0     0     984.8    NA       0.0000   9999     2260  0     0    
2019/07/29  09:18:00  BASE  4.04544  264  5.74476  252  -3.8  100   -3.8  0     0     984.8    NA       0.0000   9999     2230  0     0    
2019/07/29  09:19:00  BASE  3.27516  266  5.74476  252  -3.8  100   -3.8  0     0     984.8    NA       0.0000   9999     980   2230  0    
2019/07/29  09:20:00  BASE  2.95176  270  5.74476  252  -3.8  100   -3.8  0     0     984.9    NA       0.0000   9999     950   2260  0    
2019/07/29  09:21:00  BASE  3.4398   271  5.74476  252  -3.8  100   -3.8  0     0     984.9    NA       0.0000   9999     890   0     0    
2019/07/29  09:22:00  BASE  3.4986   273  5.74476  252  -3.7  100   -3.7  0     0     984.9    NA       0.0000   9999     920   0     0    
2019/07/29  09:23:00  BASE  3.4986   271  5.44488  252  -3.7  100   -3.7  0     0     984.9    NA       0.0000   9999     920   2490  0    
2019/07/29  09:24:00  BASE  3.45156  267  5.145    267  -3.7  100   -3.7  0     0     984.9    NA       0.0000   9999     1020  2430  0    
2019/07/29  09:25:00  BASE  3.675    270  5.145    267  -3.7  100   -3.7  0     0     984.9    NA       0.0000   9999     1120  2360  0    
2019/07/29  09:26:00  BASE  4.07484  271  4.78044  270  -3.7  100   -3.7  0     0     984.9    NA       0.0000   9999     980   2360  0    
2019/07/29  09:27:00  BASE  3.82788  272  4.78044  270  -3.7  100   -3.7  0     0     984.9    NA       0.0000   9999     980   2400  0    
2019/07/29  09:28:00  BASE  3.22224  273  4.78044  270  -3.7  100   -3.7  0     0     984.9    NA       0.0000   9999     1020  0     0    
2019/07/29  09:29:00  BASE  3.30456  266  4.86864  256  -3.7  100   -3.7  0     0     985.0    NA       0.0000   9999     1210  2400  0    
2019/07/29  09:30:00  BASE  4.16892  256  5.05092  254  -3.7  100   -3.7  0     0     985.0    NA       0.0000   9999     2330  0     0    
2019/07/29  09:31:00  BASE  4.46292  253  5.05092  254  -3.7  100   -3.7  0     0     985.0    NA       0.0000   9999     1250  2260  0    
2019/07/29  09:32:00  BASE  3.9396   260  5.05092  254  -3.7  100   -3.7  0     0     985.1    NA       0.0000   9999     2230  0     0    
2019/07/29  09:33:00  BASE  3.9102   265  5.05092  254  -3.7  100   -3.7  0     0     985.1    NA       0.0000   9999     1080  2490  0    
2019/07/29  09:34:00  BASE  4.25124  259  5.05092  254  -3.7  100   -3.7  0     0     985.1    NA       0.0000   9999     1120  2490  0    
2019/07/29  09:35:00  BASE  4.263    256  5.05092  254  -3.7  100   -3.7  0     0     985.1    NA       0.0000   9999     1150  2430  0    
2019/07/29  09:36:00  BASE  3.97488  260  5.05092  254  -3.7  100   -3.7  0     0     985.2    NA       0.0000   9999     920   2590  0    
2019/07/29  09:37:00  BASE  4.19244  262  5.08032  265  -3.7  100   -3.7  0     0     985.2    NA       0.0000   9999     790   0     0    
2019/07/29  09:38:00  BASE  4.29828  259  5.08032  265  -3.7  100   -3.7  0     0     985.2    NA       0.0000   9999     750   2620  0    
2019/07/29  09:39:00  BASE  3.72204  259  5.08032  265  -3.7  100   -3.7  0     0     985.2    NA       0.0000   9999     980   0     0    
2019/07/29  09:40:00  BASE  3.77496  257  5.08032  265  -3.7  100   -3.7  0     0     985.2    NA       0.0000   9999     1080  2490  0    
2019/07/29  09:41:00  BASE  3.95724  249  5.08032  265  -3.7  100   -3.7  0     0     985.2    NA       0.0000   9999     1180  2490  0    
2019/07/29  09:42:00  BASE  3.91608  248  5.08032  265  -3.7  100   -3.7  0     0     985.2    NA       0.0000   9999     1120  2530  0    
2019/07/29  09:43:00  BASE  4.3218   254  5.1744   256  -3.7  100   -3.7  0     0     985.2    NA       0.0000   9999     1050  0     0    
2019/07/29  09:44:00  BASE  4.78044  255  5.53308  255  -3.7  100   -3.7  0     0     985.3    NA       0.0000   9999     1020  0     0    
2019/07/29  09:45:00  BASE  4.89804  252  5.53308  255  -3.7  100   -3.7  0     0     985.3    NA       0.0000   9999     1050  0     0    
2019/07/29  09:46:00  BASE  4.75692  250  5.53308  255  -3.7  100   -3.7  0     0     985.3    NA       0.0000   9999     820   0     0    
2019/07/29  09:47:00  BASE  4.32768  251  5.53308  255  -3.7  100   -3.7  0     0     985.3    NA       0.0000   9999     980   2820  0    
2019/07/29  09:48:00  BASE  4.22184  252  5.53308  255  -3.7  100   -3.7  0     0     985.3    NA       0.0000   9999     890   0     0    
2019/07/29  09:49:00  BASE  4.33356  256  5.53308  255  -3.7  100   -3.7  0     0     985.4    NA       0.0000   9999     980   0     0    
2019/07/29  09:50:00  BASE  4.46292  260  5.53308  255  -3.7  100   -3.7  0     0     985.4    NA       0.0000   9999     1020  0     0    
2019/07/29  09:51:00  BASE  4.35708  257  5.53308  255  -3.7  100   -3.7  0     0     985.4    NA       0.0000   9999     2790  0     0    
2019/07/29  09:52:00  BASE  4.01016  256  5.53308  255  -3.6  100   -3.6  0     0     985.4    NA       0.0000   9999     1050  2620  3310 
2019/07/29  09:53:00  BASE  4.60992  253  5.53308  255  -3.6  100   -3.6  0     0     985.4    NA       0.0000   9999     2790  0     0    
2019/07/29  09:54:00  BASE  4.99212  252  5.47428  252  -3.6  100   -3.6  0     0     985.4    NA       0.0000   9999     2720  0     0    
2019/07/29  09:55:00  BASE  4.60992  256  5.47428  252  -3.6  100   -3.6  0     0     985.4    NA       0.0000   9999     2590  0     0    
2019/07/29  09:56:00  BASE  4.50996  258  5.47428  252  -3.7  100   -3.7  0     0     985.4    NA       0.0000   9999     2790  0     0    
2019/07/29  09:57:00  BASE  4.50996  255  5.47428  252  -3.7  100   -3.7  0     0     985.4    NA       0.0000   9999     2690  0     0    
2019/07/29  09:58:00  BASE  4.27476  254  5.47428  252  -3.7  100   -3.7  0     0     985.4    NA       0.0000   9999     2560  0     0    
2019/07/29  09:59:00  BASE  4.45704  257  5.47428  252  -3.7  100   -3.7  0     0     985.4    NA       0.0000   9999     980   2620  0    
2019/07/29  10:00:00  BASE  4.59816  259  5.47428  252  -3.7  100   -3.7  0     0     985.5    NA       0.0000   9999     2620  0     0    
2019/07/29  10:01:00  BASE  4.68048  258  5.47428  252  -3.7  100   -3.7  0     0     985.6    NA       0.0000   9999     2890  0     0    
2019/07/29  10:02:00  BASE  4.998    256  5.47428  252  -3.7  100   -3.7  0     0     985.6    NA       0.0000   9999     2990  0     0    
2019/07/29  10:03:00  BASE  4.851    255  5.38608  261  -3.7  100   -3.7  0     0     985.6    NA       0.0000   9999     3020  0     0    
2019/07/29  10:04:00  BASE  4.48056  257  5.38608  261  -3.7  100   -3.7  0     0     985.6    NA       0.0000   9999     3050  0     0    
2019/07/29  10:05:00  BASE  4.39236  255  5.38608  261  -3.7  100   -3.7  0     0     985.7    NA       0.0000   9999     3080  0     0    
2019/07/29  10:06:00  BASE  4.33944  252  5.38608  261  -3.7  100   -3.7  0     0     985.7    NA       0.0000   9999     3080  0     0    
2019/07/29  10:07:00  BASE  4.09248  250  5.38608  261  -3.7  100   -3.7  0     0     985.7    NA       0.0000   9999     920   3120  0    
2019/07/29  10:08:00  BASE  4.09836  254  5.38608  261  -3.7  100   -3.7  0     0     985.7    NA       0.0000   9999     890   3120  0    
2019/07/29  10:09:00  BASE  3.91608  264  5.3214   257  -3.7  100   -3.7  0     0     985.8    NA       0.0000   9999     980   3080  0    
2019/07/29  10:10:00  BASE  3.55152  269  5.3214   257  -3.7  100   -3.7  0     0     985.8    NA       0.0000   9999     890   3120  0    
2019/07/29  10:11:00  BASE  3.69264  266  5.145    257  -3.6  100   -3.6  0     0     985.8    NA       0.0000   9999     980   3020  0    
2019/07/29  10:12:00  BASE  3.9396   263  5.1744   259  -3.6  100   -3.6  0     0     985.8    NA       0.0000   9999     980   2950  0    
2019/07/29  10:13:00  BASE  4.50408  259  5.71536  258  -3.6  100   -3.6  0     0     985.8    NA       0.0000   9999     2890  0     0    
2019/07/29  10:14:00  BASE  4.9098   258  5.71536  258  -3.6  100   -3.6  0     0     985.8    NA       0.0000   9999     2920  0     0    
2019/07/29  10:15:00  BASE  4.34532  262  5.71536  258  -3.6  100   -3.6  0     0     985.9    NA       0.0000   9999     2920  0     0    
2019/07/29  10:16:00  BASE  3.73968  262  5.71536  258  -3.6  100   -3.6  0     0     985.9    NA       0.0000   9999     2850  0     0    
2019/07/29  10:17:00  BASE  3.61032  260  5.71536  258  -3.6  100   -3.6  0     0     985.9    NA       0.0000   9999     1770  2850  0    
2019/07/29  10:18:00  BASE  3.33396  263  5.71536  258  -3.6  100   -3.6  0     0     985.9    NA       0.0000   9999     720   2790  0    
2019/07/29  10:19:00  BASE  2.63424  265  5.71536  258  -3.6  100   -3.6  0     0     985.9    NA       0.0000   9999     2620  0     0    
2019/07/29  10:20:00  BASE  2.61072  267  5.71536  258  -3.6  100   -3.6  0     0     986.0    NA       0.0000   9999     2530  0     0    
2019/07/29  10:21:00  BASE  2.8224   266  5.71536  258  -3.6  100   -3.6  0     0     986.0    NA       0.0000   9999     2230  0     0    
2019/07/29  10:22:00  BASE  2.5578   263  5.71536  258  -3.6  100   -3.6  0     0     986.0    NA       0.0000   9999     2530  0     0    
2019/07/29  10:23:00  BASE  2.74008  268  5.2038   261  -3.6  100   -3.6  0     0     986.0    NA       0.0000   9999     2530  0     0    
2019/07/29  10:24:00  BASE  3.4986   269  4.68636  266  -3.6  100   -3.6  0     0     986.0    NA       0.0000   9999     2890  0     0    
2019/07/29  10:25:00  BASE  3.51036  266  4.62756  261  -3.6  100   -3.6  0     0     986.0    NA       0.0000   9999     2790  0     0    
2019/07/29  10:26:00  BASE  3.42216  270  4.62756  261  -3.6  100   -3.6  0     0     986.0    NA       0.0000   9999     1350  2790  0    
2019/07/29  10:27:00  BASE  3.33396  275  4.50996  275  -3.7  100   -3.7  0     0     986.0    NA       0.0000   9999     2660  0     0    
2019/07/29  10:28:00  BASE  2.80476  273  4.50996  275  -3.7  100   -3.7  0     0     986.0    NA       0.0000   9999     2890  0     0    
2019/07/29  10:29:00  BASE  2.74008  274  4.50996  275  -3.6  100   -3.6  0     0     986.0    NA       0.0000   9999     2620  0     0    
2019/07/29  10:30:00  BASE  2.6166   278  4.50996  275  -3.6  100   -3.6  0     0     986.0    NA       0.0000   9999     2490  0     0    
2019/07/29  10:31:00  BASE  2.42256  278  4.50996  275  -3.6  100   -3.6  0     0     986.0    NA       0.0000   9999     2760  0     0    
2019/07/29  10:32:00  BASE  2.29908  278  4.50996  275  -3.6  100   -3.6  0     0     986.1    NA       0.0000   9999     2560  0     0    
2019/07/29  10:33:00  BASE  2.07564  277  4.50996  275  -3.6  100   -3.6  0     0     986.1    NA       0.0000   9999     2660  0     0    
2019/07/29  10:34:00  BASE  2.0286   274  4.50996  275  -3.6  100   -3.6  0     0     986.2    NA       0.0000   9999     2170  0     0    
2019/07/29  10:35:00  BASE  2.09916  277  4.50996  275  -3.6  100   -3.6  0     0     986.2    NA       0.0000   9999     720   2920  0    
2019/07/29  10:36:00  BASE  2.12856  286  3.41628  275  -3.6  100   -3.6  0     0     986.2    NA       0.0000   9999     950   3150  0    
2019/07/29  10:37:00  BASE  2.2344   284  3.38688  260  -3.6  100   -3.6  0     0     986.2    NA       0.0000   9999     950   0     0    
2019/07/29  10:38:00  BASE  2.55192  284  3.41628  290  -3.6  100   -3.6  0     0     986.2    NA       0.0000   9999     820   0     0    
2019/07/29  10:39:00  BASE  2.81652  289  3.41628  290  -3.5  100   -3.5  0     0     986.2    NA       0.0000   9999     820   0     0    
2019/07/29  10:40:00  BASE  2.59308  290  3.41628  290  -3.5  100   -3.5  0     0     986.2    NA       0.0000   9999     920   0     0    
2019/07/29  10:41:00  BASE  2.4402   286  3.41628  290  -3.5  100   -3.5  0     0     986.2    NA       0.0000   9999     890   0     0    
2019/07/29  10:42:00  BASE  2.29908  285  3.41628  290  -3.5  100   -3.5  0     0     986.3    NA       0.0000   9999     920   0     0    
2019/07/29  10:43:00  BASE  2.47548  293  3.41628  292  -3.5  100   -3.5  0     0     986.3    NA       0.0000   9999     850   0     0    
2019/07/29  10:44:00  BASE  3.13992  291  4.08072  293  -3.5  100   -3.5  0     0     986.3    NA       0.0000   9999     890   0     0    
2019/07/29  10:45:00  BASE  3.18108  289  4.08072  293  -3.5  100   -3.5  0     0     986.3    NA       0.0000   9999     920   0     0    
2019/07/29  10:46:00  BASE  2.66952  292  4.08072  293  -3.4  100   -3.4  0     0     986.3    NA       0.0000   9999     820   0     0    
2019/07/29  10:47:00  BASE  2.71656  289  4.08072  293  -3.4  100   -3.4  0     0     986.3    NA       0.0000   9999     660   0     0    
2019/07/29  10:48:00  BASE  2.89296  287  4.08072  293  -3.4  100   -3.4  0     0     986.3    NA       0.0000   9999     750   0     0    
2019/07/29  10:49:00  BASE  2.95764  292  4.08072  288  -3.4  100   -3.4  0     0     986.3    NA       0.0000   9999     820   0     0    
2019/07/29  10:50:00  BASE  3.6456   293  4.53936  282  -3.4  100   -3.4  0     0     986.3    NA       0.0000   9999     690   0     0    
2019/07/29  10:51:00  BASE  4.04544  283  4.59816  282  -3.4  100   -3.4  0     0     986.4    NA       0.0000   9999     430   0     0    
2019/07/29  10:52:00  BASE  3.48096  277  4.59816  282  -3.4  100   -3.4  0     0     986.4    NA       0.0000   9999     390   0     0    
2019/07/29  10:53:00  BASE  3.21048  275  4.59816  282  -3.3  100   -3.3  0     0     986.4    NA       0.0000   9999     430   0     0    
2019/07/29  10:54:00  BASE  3.81024  268  4.68636  264  -3.3  100   -3.3  0     0     986.4    NA       0.0000   9999     690   0     0    
2019/07/29  10:55:00  BASE  3.89256  261  4.68636  264  -3.4  100   -3.4  0     0     986.4    NA       0.0000   9999     890   3580  0    
2019/07/29  10:56:00  BASE  3.36924  262  4.68636  264  -3.4  100   -3.4  0     0     986.4    NA       0.0000   9999     3510  0     0    
2019/07/29  10:57:00  BASE  3.04584  265  4.68636  264  -3.5  100   -3.5  0     0     986.4    NA       0.0000   9999     3510  0     0    
2019/07/29  10:58:00  BASE  2.76948  267  4.68636  264  -3.5  100   -3.5  0     0     986.4    NA       0.0000   9999     3580  0     0    
2019/07/29  10:59:00  BASE  2.54604  270  4.68636  264  -3.6  100   -3.6  0     0     986.4    NA       0.0000   9999     3480  0     0    
2019/07/29  11:00:00  BASE  2.43432  273  4.68636  264  -3.6  100   -3.6  0     0     986.5    NA       0.0000   9999     3220  0     0    
2019/07/29  11:01:00  BASE  2.6166   278  4.68636  264  -3.6  100   -3.6  0     0     986.5    NA       0.0000   9999     3180  0     0    
2019/07/29  11:02:00  BASE  2.69304  282  4.68636  264  -3.6  100   -3.6  0     0     986.5    NA       0.0000   9999     3050  0     0    
2019/07/29  11:03:00  BASE  2.46372  280  4.68636  264  -3.6  100   -3.6  0     0     986.5    NA       0.0000   9999     3150  0     0    
2019/07/29  11:04:00  BASE  2.40492  282  3.93372  254  -3.6  100   -3.6  0     0     986.5    NA       0.0000   9999     3080  0     0    
2019/07/29  11:05:00  BASE  2.65188  281  3.51036  254  -3.6  100   -3.6  0     0     986.5    NA       0.0000   9999     890   3220  0    
2019/07/29  11:06:00  BASE  2.95176  274  3.56916  276  -3.6  100   -3.6  0     0     986.6    NA       0.0000   9999     3280  0     0    
2019/07/29  11:07:00  BASE  3.2634   270  4.1454   266  -3.6  100   -3.6  0     0     986.6    NA       0.0000   9999     690   0     0    
2019/07/29  11:08:00  BASE  3.1458   277  4.1454   266  -3.6  100   -3.6  0     0     986.6    NA       0.0000   9999     3580  0     0    
2019/07/29  11:09:00  BASE  2.58132  285  4.1454   266  -3.6  100   -3.6  0     0     986.6    NA       0.0000   9999     890   3540  0    
2019/07/29  11:10:00  BASE  2.37552  290  4.1454   266  -3.6  100   -3.6  0     0     986.6    NA       0.0000   9999     660   0     0    
2019/07/29  11:11:00  BASE  2.43432  294  4.1454   266  -3.6  100   -3.6  0     0     986.6    NA       0.0000   9999     660   3180  0    
2019/07/29  11:12:00  BASE  2.4108   295  4.1454   266  -3.5  100   -3.5  0     0     986.6    NA       0.0000   9999     3180  0     0    
2019/07/29  11:13:00  BASE  2.55192  302  4.1454   266  -3.5  100   -3.5  0     0     986.6    NA       0.0000   9999     2950  0     0    
2019/07/29  11:14:00  BASE  2.58132  311  4.1454   266  -3.5  100   -3.5  0     0     986.6    NA       0.0000   9999     2590  0     0    
2019/07/29  11:15:00  BASE  2.34612  319  4.1454   266  -3.5  100   -3.5  0     0     986.6    NA       0.0000   9999     2400  0     0    
2019/07/29  11:16:00  BASE  2.10504  321  4.1454   266  -3.5  100   -3.5  0     0     986.6    NA       0.0000   9999     2170  3770  0    
2019/07/29  11:17:00  BASE  2.11092  320  3.44568  271  -3.5  100   -3.5  0     0     986.6    NA       0.0000   9999     1940  3670  0    
2019/07/29  11:18:00  BASE  2.19912  318  2.96352  302  -3.6  100   -3.6  0     0     986.6    NA       0.0000   9999     1970  3310  0    
2019/07/29  11:19:00  BASE  2.25792  317  2.96352  302  -3.6  100   -3.6  0     0     986.6    NA       0.0000   9999     1640  0     0    
2019/07/29  11:20:00  BASE  2.56368  318  2.96352  302  -3.6  100   -3.6  0     0     986.6    NA       0.0000   9999     1840  0     0    
2019/07/29  11:21:00  BASE  2.78124  318  2.99292  314  -3.6  100   -3.6  0     0     986.7    NA       0.0000   9999     430   2490  0    
2019/07/29  11:22:00  BASE  2.74008  312  2.99292  314  -3.6  100   -3.6  0     0     986.7    NA       0.0000   9999     330   0     0    
2019/07/29  11:23:00  BASE  2.79888  311  3.48096  311  -3.6  100   -3.6  0     0     986.7    NA       0.0000   -SN      9000  330   0    
2019/07/29  11:24:00  BASE  3.06348  309  3.48096  311  -3.5  100   -3.5  0     0     986.7    NA       0.0000   -SN      9999  330   0    
2019/07/29  11:25:00  BASE  3.0282   309  3.48096  311  -3.5  100   -3.5  0     0     986.7    NA       0.0000   -SN      9999  3080  0    
2019/07/29  11:26:00  BASE  2.8518   314  3.48096  311  -3.5  100   -3.5  0     0     986.7    NA       0.0000   -SN      9999  1840  2990 
2019/07/29  11:27:00  BASE  2.86356  315  3.48096  311  -3.5  100   -3.5  0     0     986.7    NA       0.0000   -SN      9999  360   2790 
2019/07/29  11:28:00  BASE  3.06348  316  3.48096  315  -3.5  100   -3.5  0     0     986.7    NA       0.0000   -SN      9999  2720  0    
2019/07/29  11:29:00  BASE  3.19872  321  3.48096  315  -3.5  100   -3.5  0     0     986.7    NA       0.0000   -SN      9999  2720  0    
2019/07/29  11:30:00  BASE  3.16932  324  3.48096  324  -3.5  100   -3.5  0     0     986.7    NA       0.0000   -SN      9999  2590  0    
2019/07/29  11:31:00  BASE  3.09876  326  3.48096  324  -3.5  100   -3.5  0     0     986.7    NA       0.0000   -SN      9999  0     0    
2019/07/29  11:32:00  BASE  3.00468  332  3.48096  324  -3.5  100   -3.5  0     0     986.7    NA       0.0000   -SN      9999  0     0    
2019/07/29  11:33:00  BASE  2.92824  336  3.48096  324  -3.5  100   -3.5  0     0     986.7    NA       0.0000   -SN      9999  0     0    
2019/07/29  11:34:00  BASE  2.92824  338  3.48096  324  -3.5  100   -3.5  0     0     986.7    NA       0.0000   -SN      9999  0     0    
2019/07/29  11:35:00  BASE  2.89884  342  3.48096  324  -3.5  100   -3.5  0     0     986.8    NA       0.0000   -SN      9999  0     0    
2019/07/29  11:36:00  BASE  2.85768  345  3.48096  324  -3.6  100   -3.6  0     0     986.8    NA       0.0000   -SN      9999  0     0    
2019/07/29  11:37:00  BASE  2.84004  346  3.48096  324  -3.6  100   -3.6  0     0     986.8    NA       0.0000   -SN      9999  0     0    
2019/07/29  11:38:00  BASE  2.82828  345  3.48096  324  -3.6  100   -3.6  0     0     986.9    NA       0.0000   -SN      9999  0     0    
2019/07/29  11:39:00  BASE  2.84004  345  3.48096  324  -3.7  100   -3.7  0     0     987.0    NA       0.0000   9999     0     0     0    
2019/07/29  11:40:00  BASE  2.8518   345  3.29868  336  -3.7  100   -3.7  0     0     987.0    NA       0.0000   9999     0     0     0    
2019/07/29  11:41:00  BASE  2.80476  344  3.29868  336  -3.7  100   -3.7  0     0     987.0    NA       0.0000   9999     0     0     0    
2019/07/29  11:42:00  BASE  2.84592  343  3.1164   344  -3.7  100   -3.7  0     0     987.0    NA       0.0000   9999     0     0     0    
2019/07/29  11:43:00  BASE  2.89884  341  3.02232  347  -3.7  100   -3.7  0     0     987.0    NA       0.0000   9999     0     0     0    
2019/07/29  11:44:00  BASE  2.90472  341  3.0576   340  -3.7  100   -3.7  0     0     987.1    NA       0.0000   9999     0     0     0    
2019/07/29  11:45:00  BASE  3.06936  341  3.35748  339  -3.7  100   -3.7  0     0     987.1    NA       0.0000   9999     2890  0     0    
2019/07/29  11:46:00  BASE  3.28692  340  3.53976  338  -3.8  100   -3.8  0     0     987.0    NA       0.0000   9999     0     0     0    
2019/07/29  11:47:00  BASE  3.33984  339  3.53976  338  -3.8  100   -3.8  0     0     987.0    NA       0.0000   9999     3020  0     0    
2019/07/29  11:48:00  BASE  3.27516  342  3.53976  338  -3.8  100   -3.8  0     0     987.1    NA       0.0000   9999     3250  0     0    
2019/07/29  11:49:00  BASE  3.01644  352  3.53976  338  -3.8  100   -3.8  0     0     987.1    NA       0.0000   9999     3150  0     0    
2019/07/29  11:50:00  BASE  2.74008  357  3.53976  338  -3.8  100   -3.8  0     0     987.1    NA       0.0000   9999     3080  0     0    
2019/07/29  11:51:00  BASE  2.5578   349  3.53976  338  -3.8  100   -3.8  0     0     987.1    NA       0.0000   9999     3050  0     0    
2019/07/29  11:52:00  BASE  2.27556  343  3.53976  338  -3.8  100   -3.8  0     0     987.2    NA       0.0000   9999     2990  0     0    
2019/07/29  11:53:00  BASE  2.1462   339  3.53976  338  -3.8  100   -3.8  0     0     987.2    NA       0.0000   9999     2950  0     0    
2019/07/29  11:54:00  BASE  2.11092  336  3.53976  338  -3.9  100   -3.9  0     0     987.3    NA       0.0000   9999     2890  0     0    
2019/07/29  11:55:00  BASE  2.00508  333  3.53976  338  -3.9  100   -3.9  0     0     987.3    NA       0.0000   9999     2950  0     0    
2019/07/29  11:56:00  BASE  1.81692  323  3.38688  338  -3.9  100   -3.9  0     0     987.3    NA       0.0000   9999     2760  0     0    
2019/07/29  11:57:00  BASE  1.82868  306  3.35748  339  -3.9  100   -3.9  0     0     987.4    NA       0.0000   9999     2920  0     0    
2019/07/29  11:58:00  BASE  1.89924  292  3.02232  354  -4.0  100   -4.0  0     0     987.4    NA       0.0000   9999     2890  0     0    
2019/07/29  11:59:00  BASE  2.00508  283  2.87532  354  -3.9  100   -3.9  0     0     987.4    NA       0.0000   9999     1770  2990  0    
2019/07/29  12:00:00  BASE  2.2932   284  2.69304  286  -3.9  100   -3.9  0     0     987.4    NA       0.0000   9999     1710  2990  0    
2019/07/29  12:01:00  BASE  2.45196  290  2.69304  286  -3.8  100   -3.8  0     0     987.5    NA       0.0000   9999     560   1610  0    
2019/07/29  12:02:00  BASE  2.47548  290  2.78124  288  -3.7  100   -3.7  0     0     987.6    NA       0.0000   9999     1440  2200  2920 
2019/07/29  12:03:00  BASE  2.56368  286  2.93412  288  -3.6  100   -3.6  0     0     987.6    NA       0.0000   9999     660   2230  0    
2019/07/29  12:04:00  BASE  2.59308  286  2.93412  288  -3.5  100   -3.5  0     0     987.6    NA       0.0000   9999     690   2200  0    
2019/07/29  12:05:00  BASE  2.46372  287  2.93412  288  -3.4  100   -3.4  0     0     987.6    NA       0.0000   9999     1180  1870  0    
2019/07/29  12:06:00  BASE  2.53428  289  2.93412  288  -3.4  100   -3.4  0     0     987.7    NA       0.0000   9999     1150  1800  2360 
2019/07/29  12:07:00  BASE  2.57544  291  2.93412  288  -3.4  100   -3.4  0     0     987.7    NA       0.0000   9999     1080  0     0    
2019/07/29  12:08:00  BASE  2.46372  291  2.93412  288  -3.4  100   -3.4  0     0     987.8    NA       0.0000   9999     1080  0     0    
2019/07/29  12:09:00  BASE  2.5578   291  3.02232  289  -3.3  100   -3.3  0     0     987.8    NA       0.0000   9999     1080  0     0    
2019/07/29  12:10:00  BASE  2.69892  285  3.1458   277  -3.3  100   -3.3  0     0     987.8    NA       0.0000   9999     1050  0     0    
2019/07/29  12:11:00  BASE  2.50488  266  3.1458   277  -3.3  100   -3.3  0     0     987.8    NA       0.0000   9999     980   0     0    
2019/07/29  12:12:00  BASE  2.4402   261  3.1458   277  -3.3  100   -3.3  0     0     987.8    NA       0.0000   9999     890   1440  2720 
2019/07/29  12:13:00  BASE  2.5578   274  3.1458   277  -3.3  100   -3.3  0     0     987.8    NA       0.0000   9999     2200  0     0    
2019/07/29  12:14:00  BASE  2.4402   283  3.1458   277  -3.3  100   -3.3  0     0     987.9    NA       0.0000   9999     1540  2360  0    
2019/07/29  12:15:00  BASE  2.22264  280  3.1458   277  -3.3  100   -3.3  0     0     987.9    NA       0.0000   9999     980   0     0    
2019/07/29  12:16:00  BASE  1.8816   264  3.1458   277  -3.4  100   -3.4  0     0     987.9    NA       0.0000   9999     820   0     0    
2019/07/29  12:17:00  BASE  1.62876  269  3.1458   277  -3.4  100   -3.4  0     0     987.9    NA       0.0000   9999     690   0     0    
2019/07/29  12:18:00  BASE  1.7934   277  3.1458   277  -3.3  100   -3.3  0     0     987.9    NA       0.0000   9999     750   1570  0    
2019/07/29  12:19:00  BASE  1.92864  267  3.1458   277  -3.3  100   -3.3  0     0     987.9    NA       0.0000   9999     850   2460  0    
2019/07/29  12:20:00  BASE  2.22852  261  3.41628  253  -3.3  100   -3.3  0     0     987.9    NA       0.0000   9999     2790  0     0    
2019/07/29  12:21:00  BASE  3.06348  249  3.78084  233  -3.3  100   -3.3  0     0     987.9    NA       0.0000   9999     2400  2920  0    
2019/07/29  12:22:00  BASE  3.48096  239  3.81024  242  -3.3  100   -3.3  0     0     987.9    NA       0.0000   9999     2460  0     0    
2019/07/29  12:23:00  BASE  3.69264  233  4.29828  220  -3.3  100   -3.3  0     0     988.0    NA       0.0000   9999     2260  2950  0    
2019/07/29  12:24:00  BASE  4.07484  230  4.41588  233  -3.3  100   -3.3  0     0     988.0    NA       0.0000   9999     2430  0     0    
2019/07/29  12:25:00  BASE  4.1454   234  4.47468  234  -3.4  100   -3.4  0     0     988.0    NA       0.0000   9999     2720  0     0    
2019/07/29  12:26:00  BASE  3.96312  235  4.59816  230  -3.4  100   -3.4  0     0     988.1    NA       0.0000   9999     2920  0     0    
2019/07/29  12:27:00  BASE  3.97488  233  4.68636  238  -3.4  100   -3.4  0     0     988.2    NA       0.0000   9999     1970  3080  0    
2019/07/29  12:28:00  BASE  4.10424  234  4.68636  238  -3.4  100   -3.4  0     0     988.2    NA       0.0000   9999     3180  0     0    
2019/07/29  12:29:00  BASE  3.78084  240  4.68636  238  -3.5  100   -3.5  0     0     988.2    NA       0.0000   9999     3080  3640  0    
2019/07/29  12:30:00  BASE  3.68088  247  4.68636  238  -3.5  100   -3.5  0     0     988.2    NA       0.0000   9999     3050  0     0    
2019/07/29  12:31:00  BASE  3.7044   250  4.68636  238  -3.5  100   -3.5  0     0     988.2    NA       0.0000   9999     2170  3080  0    
2019/07/29  12:32:00  BASE  3.65148  250  4.68636  238  -3.6  100   -3.6  0     0     988.2    NA       0.0000   9999     1770  0     0    
2019/07/29  12:33:00  BASE  3.50448  250  4.68636  238  -3.6  100   -3.6  0     0     988.2    NA       0.0000   9999     1210  0     0    
2019/07/29  12:34:00  BASE  3.33396  249  4.68636  238  -3.5  100   -3.5  0     0     988.2    NA       0.0000   9999     1570  0     0    
2019/07/29  12:35:00  BASE  3.51624  247  4.68636  238  -3.5  100   -3.5  0     0     988.2    NA       0.0000   9999     890   0     0    
2019/07/29  12:36:00  BASE  3.63972  245  4.68636  238  -3.4  100   -3.4  0     0     988.3    NA       0.0000   9999     690   0     0    
2019/07/29  12:37:00  BASE  3.88668  245  4.68636  249  -3.4  100   -3.4  0     0     988.3    NA       0.0000   9999     1770  0     0    
2019/07/29  12:38:00  BASE  4.4394   247  5.2038   243  -3.3  100   -3.3  0     0     988.3    NA       0.0000   9999     1180  0     0    
2019/07/29  12:39:00  BASE  4.6158   245  5.2038   243  -3.3  100   -3.3  0     0     988.4    NA       0.0000   9999     490   0     0    
2019/07/29  12:40:00  BASE  4.3218   247  5.2038   253  -3.3  100   -3.3  0     0     988.4    NA       0.0000   9999     460   0     0    
2019/07/29  12:41:00  BASE  4.7628   250  5.95644  250  -3.2  100   -3.2  0     0     988.4    NA       0.0000   9999     460   0     0    
2019/07/29  12:42:00  BASE  5.25084  248  6.13872  246  -3.2  100   -3.2  0     0     988.4    NA       0.0000   9999     430   1770  0    
2019/07/29  12:43:00  BASE  4.72752  247  6.13872  246  -3.2  100   -3.2  0     0     988.4    NA       0.0000   9999     1350  2890  0    
2019/07/29  12:44:00  BASE  3.95136  247  6.13872  246  -3.2  100   -3.2  0     0     988.4    NA       0.0000   9999     1710  2890  0    
2019/07/29  12:45:00  BASE  3.54564  249  6.13872  246  -3.3  100   -3.3  0     0     988.5    NA       0.0000   9999     1210  2820  0    
2019/07/29  12:46:00  BASE  3.57504  250  6.13872  246  -3.3  100   -3.3  0     0     988.5    NA       0.0000   9999     1280  2720  0    
2019/07/29  12:47:00  BASE  3.53976  247  6.13872  246  -3.3  100   -3.3  0     0     988.5    NA       0.0000   9999     1150  2620  0    
2019/07/29  12:48:00  BASE  3.44568  250  6.13872  246  -3.3  100   -3.3  0     0     988.5    NA       0.0000   9999     1180  0     0    
2019/07/29  12:49:00  BASE  3.53388  251  6.13872  246  -3.3  100   -3.3  0     0     988.5    NA       0.0000   9999     1410  0     0    
2019/07/29  12:50:00  BASE  3.6162   246  6.13872  246  -3.3  100   -3.3  1     0     988.5    NA       0.0000   9999     1440  0     0    
2019/07/29  12:51:00  BASE  3.71616  242  6.13872  246  -3.3  100   -3.3  1     0     988.5    NA       0.0000   9999     1410  2100  0    
2019/07/29  12:52:00  BASE  3.91608  242  4.56876  251  -3.2  100   -3.2  1     0     988.6    NA       0.0000   9999     1510  0     0    
2019/07/29  12:53:00  BASE  4.01016  245  4.68636  236  -3.2  100   -3.2  1     0     988.6    NA       0.0000   9999     1570  0     0    
2019/07/29  12:54:00  BASE  4.3512   243  5.2038   230  -3.2  100   -3.2  1     0     988.7    NA       0.0000   9999     1380  0     0    
2019/07/29  12:55:00  BASE  5.76828  235  7.3206   231  -3.1  100   -3.1  1     0     988.6    NA       0.0000   9999     1350  2200  0    
2019/07/29  12:56:00  BASE  6.65028  229  7.3206   231  -3.1  100   -3.1  1     0     988.6    NA       0.0000   9999     1280  0     0    
2019/07/29  12:57:00  BASE  6.60324  225  7.3206   231  -3.1  100   -3.1  1     0     988.7    NA       0.0000   9999     1840  0     0    
2019/07/29  12:58:00  BASE  6.40332  219  7.3206   231  -3.0  100   -3.0  1     0     988.7    NA       0.0000   9999     1710  0     0    
2019/07/29  12:59:00  BASE  6.34452  217  7.3206   218  -3.0  100   -3.0  1     0     988.7    NA       0.0000   9999     1410  0     0    
2019/07/29  13:00:00  BASE  6.16224  216  7.3206   218  -3.1  100   -3.1  1     0     988.7    NA       0.0000   9999     1670  0     0    
2019/07/29  13:01:00  BASE  5.25084  216  7.3206   218  -3.1  100   -3.1  1     0     988.7    NA       0.0000   9999     1740  0     0    
2019/07/29  13:02:00  BASE  4.51584  221  7.3206   218  -3.2  100   -3.2  1     0     988.7    NA       0.0000   9999     2130  0     0    
2019/07/29  13:03:00  BASE  4.22772  223  7.3206   218  -3.2  100   -3.2  1     0     988.7    NA       0.0000   9999     1710  0     0    
2019/07/29  13:04:00  BASE  4.07484  227  7.3206   218  -3.2  100   -3.2  1     0     988.7    NA       0.0000   9999     1940  0     0    
2019/07/29  13:05:00  BASE  4.13952  232  7.3206   218  -3.2  100   -3.2  1     0     988.8    NA       0.0000   9999     1870  0     0    
2019/07/29  13:06:00  BASE  4.56288  232  7.3206   218  -3.1  100   -3.1  1     0     988.8    NA       0.0000   9999     1250  0     0    
2019/07/29  13:07:00  BASE  5.16264  231  7.80276  231  -3.1  100   -3.1  1     0     988.8    NA       0.0000   9999     1050  0     0    
2019/07/29  13:08:00  BASE  6.7032   231  8.53188  231  -3.0  100   -3.0  1     0     988.8    NA       0.0000   9999     1020  0     0    
2019/07/29  13:09:00  BASE  7.7322   232  8.53188  231  -3.0  100   -3.0  1     0     988.9    NA       0.0000   9000     460   0     0    
2019/07/29  13:10:00  BASE  7.09716  233  8.53188  231  -3.0  100   -3.0  1     0     988.9    NA       0.0000   8000     430   0     0    
2019/07/29  13:11:00  BASE  6.2034   234  8.53188  231  -3.0  100   -3.0  1     0     988.9    NA       0.0000   6000     460   0     0    
2019/07/29  13:12:00  BASE  5.8212   234  8.53188  231  -3.0  100   -3.0  1     0     989.0    NA       0.0000   BR       5000  330   0    
2019/07/29  13:13:00  BASE  5.9682   235  8.53188  231  -3.0  100   -3.0  1     0     989.0    NA       0.0000   -SN      BR    6000  390  
2019/07/29  13:14:00  BASE  6.00348  233  8.53188  231  -3.0  100   -3.0  1     0     989.0    NA       0.0000   -SN      BR    6000  430  
2019/07/29  13:15:00  BASE  5.733    236  8.53188  231  -3.1  100   -3.1  2     0     989.0    NA       0.0000   -SN      BR    5000  360  
2019/07/29  13:16:00  BASE  5.50368  240  8.53188  231  -3.1  100   -3.1  2     0     989.0    NA       0.0000   -SN      BR    6000  520  
2019/07/29  13:17:00  BASE  5.69772  236  8.53188  231  -3.1  100   -3.1  2     0     989.0    NA       0.0000   -SN      BR    9000  590  
2019/07/29  13:18:00  BASE  5.9682   232  7.95564  236  -3.1  100   -3.1  2     0     989.1    NA       0.0000   -SN      BR    9999  1310 
2019/07/29  13:19:00  BASE  6.07992  229  7.74396  231  -3.1  100   -3.1  2     0     989.1    NA       0.0000   -SN      BR    8000  660  
2019/07/29  13:20:00  BASE  6.174    227  6.95604  226  -3.0  100   -3.0  3     0     989.1    NA       0.0000   -SN      BR    8000  490  
2019/07/29  13:21:00  BASE  6.4092   228  7.19712  237  -3.0  100   -3.0  3     0     989.1    NA       0.0000   -SN      BR    9999  690  
2019/07/29  13:22:00  BASE  6.44448  224  7.19712  237  -3.0  100   -3.0  3     0     989.1    NA       0.0000   -SN      BR    9999  1020 
2019/07/29  13:23:00  BASE  6.10932  219  7.19712  237  -3.0  100   -3.0  3     0     989.1    NA       0.0000   -SN      BR    9999  2100 
2019/07/29  13:24:00  BASE  6.07992  222  7.19712  237  -3.0  100   -3.0  4     0     989.1    NA       0.0000   BR       9999  2070  0    
2019/07/29  13:25:00  BASE  6.0858   222  7.19712  237  -3.0  100   -3.0  4     0     989.1    NA       0.0000   BR       9999  2530  0    
2019/07/29  13:26:00  BASE  5.83296  220  7.19712  237  -3.1  100   -3.1  4     0     989.1    NA       0.0000   9999     2720  0     0    
2019/07/29  13:27:00  BASE  5.74476  221  7.19712  237  -3.1  100   -3.1  4     0     989.1    NA       0.0000   9999     2490  0     0    
2019/07/29  13:28:00  BASE  5.75064  220  7.19712  237  -3.1  100   -3.1  4     0     989.1    NA       0.0000   9999     2530  0     0    
2019/07/29  13:29:00  BASE  5.99172  220  7.19712  237  -3.1  100   -3.1  4     0     989.1    NA       0.0000   9999     2430  0     0    
2019/07/29  13:30:00  BASE  6.36804  223  7.19712  237  -3.1  100   -3.1  4     0     989.1    NA       0.0000   9999     2460  0     0    
2019/07/29  13:31:00  BASE  6.55032  224  6.98544  226  -3.1  100   -3.1  4     0     989.2    NA       0.0000   9999     2260  0     0    
2019/07/29  13:32:00  BASE  6.2916   222  6.98544  226  -3.1  100   -3.1  4     0     989.2    NA       0.0000   9999     2100  0     0    
2019/07/29  13:33:00  BASE  6.03876  221  6.98544  226  -3.1  100   -3.1  4     0     989.2    NA       0.0000   9999     2950  0     0    
2019/07/29  13:34:00  BASE  5.88     221  6.98544  226  -3.1  100   -3.1  5     0     989.3    NA       0.0000   9999     1800  0     0    
2019/07/29  13:35:00  BASE  5.68596  219  6.98544  226  -3.1  100   -3.1  5     0     989.4    NA       0.0000   9999     1800  0     0    
2019/07/29  13:36:00  BASE  5.53308  218  6.98544  226  -3.1  100   -3.1  5     0     989.4    NA       0.0000   9999     2070  0     0    
2019/07/29  13:38:00  BASE  5.9388   218  7.59108  214  -3.0  100   -3.0  5     0     989.4    NA       0.0000   9999     1280  2360  0    
2019/07/29  13:39:00  BASE  6.95016  221  7.80276  217  -3.0  100   -3.0  6     0     989.4    NA       0.0000   9999     1020  0     0    
2019/07/29  13:40:00  BASE  7.0854   227  7.80276  217  -3.0  100   -3.0  6     0     989.4    NA       0.0000   9999     1020  1640  0    
2019/07/29  13:41:00  BASE  6.9972   227  7.80276  217  -3.0  100   -3.0  6     0     989.4    NA       0.0000   9999     690   0     0    
2019/07/29  13:42:00  BASE  7.04424  225  7.80276  217  -3.0  100   -3.0  6     0     989.5    NA       0.0000   9999     1350  0     0    
2019/07/29  13:43:00  BASE  6.47388  222  7.80276  217  -3.1  100   -3.1  7     0     989.5    NA       0.0000   9999     1840  0     0    
2019/07/29  13:44:00  BASE  6.12108  222  7.80276  217  -3.1  100   -3.1  7     0     989.5    NA       0.0000   9999     4560  0     0    
2019/07/29  13:45:00  BASE  6.03288  218  7.80276  217  -3.2  100   -3.2  8     0     989.5    NA       0.0000   9999     1380  4360  0    
2019/07/29  13:46:00  BASE  5.4684   215  7.80276  217  -3.2  100   -3.2  8     0     989.5    NA       0.0000   9999     1570  4170  0    
2019/07/29  13:47:00  BASE  4.72164  217  7.80276  217  -3.2  100   -3.2  9     0     989.6    NA       0.0000   9999     4270  0     0    
2019/07/29  13:48:00  BASE  4.44528  217  7.80276  217  -3.3  100   -3.3  9     0     989.6    NA       0.0000   9999     4400  0     0    
2019/07/29  13:49:00  BASE  4.42764  213  7.44408  226  -3.3  100   -3.3  9     0     989.7    NA       0.0000   9999     0     0     0    
2019/07/29  13:50:00  BASE  4.26888  215  7.44408  226  -3.3  100   -3.3  9     0     989.7    NA       0.0000   9999     0     0     0    
2019/07/29  13:51:00  BASE  4.65696  223  7.3206   225  -3.3  100   -3.3  9     0     989.7    NA       0.0000   9999     0     0     0    
2019/07/29  13:52:00  BASE  5.3214   223  6.65616  225  -3.3  100   -3.3  10    0     989.7    NA       0.0000   9999     0     0     0    
2019/07/29  13:53:00  BASE  5.39196  218  6.65616  225  -3.3  100   -3.3  10    0     989.7    NA       0.0000   9999     0     0     0    
2019/07/29  13:54:00  BASE  5.09208  216  6.3798   219  -3.3  100   -3.3  11    0     989.7    NA       0.0000   9999     1410  0     0    
2019/07/29  13:55:00  BASE  4.87452  216  5.78004  224  -3.3  100   -3.3  11    0     989.8    NA       0.0000   9999     950   1540  0    
2019/07/29  13:56:00  BASE  4.6746   221  5.78004  224  -3.3  100   -3.3  12    0     989.8    NA       0.0000   9999     1480  0     0    
2019/07/29  13:57:00  BASE  4.4394   228  5.78004  224  -3.3  100   -3.3  11    0     989.8    NA       0.0000   9999     1510  0     0    
2019/07/29  13:58:00  BASE  4.3512   227  5.78004  224  -3.3  100   -3.3  10    0     989.8    NA       0.0000   9999     1570  0     0    
2019/07/29  13:59:00  BASE  4.06308  227  5.78004  224  -3.3  100   -3.3  10    0     989.9    NA       0.0000   9999     1640  0     0    
2019/07/29  14:00:00  BASE  3.81612  232  5.78004  224  -3.3  100   -3.3  11    0     989.9    NA       0.0000   9999     950   1840  0    
2019/07/29  14:01:00  BASE  3.73968  233  5.78004  224  -3.3  100   -3.3  12    0     989.9    NA       0.0000   9999     850   0     0    
2019/07/29  14:02:00  BASE  3.58092  230  5.41548  217  -3.3  100   -3.3  12    0     989.9    NA       0.0000   9999     920   0     0    
2019/07/29  14:03:00  BASE  3.2928   232  5.1744   217  -3.3  100   -3.3  12    0     989.9    NA       0.0000   9999     1770  4360  0    
2019/07/29  14:04:00  BASE  3.08112  232  5.02152  215  -3.4  100   -3.4  12    0     989.9    NA       0.0000   9999     1740  4790  0    
2019/07/29  14:05:00  BASE  3.68088  233  5.47428  229  -3.4  100   -3.4  12    0     989.9    NA       0.0000   9999     4490  0     0    
2019/07/29  14:06:00  BASE  4.66284  234  5.47428  229  -3.4  100   -3.4  13    0     989.9    NA       0.0000   9999     4820  0     0    
2019/07/29  14:07:00  BASE  5.07444  231  5.47428  229  -3.4  100   -3.4  14    0     989.9    NA       0.0000   9999     1410  4950  0    
2019/07/29  14:08:00  BASE  4.89216  230  5.47428  229  -3.4  100   -3.4  15    0     989.9    NA       0.0000   9999     1410  0     0    
2019/07/29  14:09:00  BASE  4.60992  231  5.47428  229  -3.3  100   -3.3  16    0     990.0    NA       0.0000   9999     1570  0     0    
2019/07/29  14:10:00  BASE  4.39824  235  5.47428  229  -3.3  100   -3.3  15    0     990.1    NA       0.0000   9999     1410  0     0    
2019/07/29  14:11:00  BASE  4.18068  239  5.47428  229  -3.3  100   -3.3  13    0     990.1    NA       0.0000   9999     1250  0     0    
2019/07/29  14:12:00  BASE  4.263    236  5.47428  229  -3.3  100   -3.3  13    0     990.1    NA       0.0000   9999     1210  0     0    
2019/07/29  14:13:00  BASE  4.23948  233  5.47428  229  -3.2  100   -3.2  13    0     990.2    NA       0.0000   9999     2030  0     0    
2019/07/29  14:14:00  BASE  3.96312  235  5.47428  229  -3.2  100   -3.2  15    0     990.2    NA       0.0000   9999     1940  0     0    
2019/07/29  14:15:00  BASE  4.19832  234  5.41548  231  -3.3  100   -3.3  15    0     990.2    NA       0.0000   9999     1770  0     0    
2019/07/29  14:16:00  BASE  4.59228  233  5.41548  231  -3.2  100   -3.2  14    0     990.2    NA       0.0000   9999     1410  1800  0    
2019/07/29  14:17:00  BASE  4.76868  235  5.47428  236  -3.2  100   -3.2  14    0     990.3    NA       0.0000   9999     1280  0     0    
2019/07/29  14:18:00  BASE  5.03328  234  5.53308  233  -3.2  100   -3.2  15    0     990.3    NA       0.0000   9999     1280  0     0    
2019/07/29  14:19:00  BASE  4.75104  238  5.53308  233  -3.1  100   -3.1  16    0     990.3    NA       0.0000   9999     1310  0     0    
2019/07/29  14:20:00  BASE  4.78632  240  5.74476  233  -3.1  100   -3.1  17    0     990.3    NA       0.0000   9999     1210  0     0    
2019/07/29  14:21:00  BASE  5.43312  239  6.07992  246  -3.0  100   -3.0  17    0     990.3    NA       0.0000   9999     1410  0     0    
2019/07/29  14:22:00  BASE  5.76828  240  6.80316  240  -3.0  100   -3.0  17    0     990.4    NA       0.0000   9999     1380  0     0    
2019/07/29  14:23:00  BASE  5.73888  237  6.80316  240  -3.0  100   -3.0  19    0     990.4    NA       0.0000   9999     1670  0     0    
2019/07/29  14:24:00  BASE  5.75064  236  6.86784  239  -3.0  100   -3.0  19    0     990.4    NA       0.0000   9999     1540  0     0    
2019/07/29  14:25:00  BASE  5.84472  234  6.86784  239  -3.0  100   -3.0  19    0     990.4    NA       0.0000   9999     1840  5280  0    
2019/07/29  14:26:00  BASE  5.72124  232  6.86784  239  -3.0  100   -3.0  18    0     990.4    NA       0.0000   9999     1410  0     0    
2019/07/29  14:27:00  BASE  6.10344  233  6.95604  229  -3.0  100   -3.0  18    0     990.4    NA       0.0000   9999     1610  0     0    
2019/07/29  14:28:00  BASE  6.31512  234  7.16772  232  -3.0  100   -3.0  21    0     990.5    NA       0.0000   9999     1640  0     0    
2019/07/29  14:29:00  BASE  6.21516  238  7.2618   238  -3.0  100   -3.0  21    0     990.5    NA       0.0000   9999     1670  0     0    
2019/07/29  14:30:00  BASE  6.59736  237  7.86744  229  -3.1  100   -3.1  21    0     990.5    NA       0.0000   9999     1670  0     0    
2019/07/29  14:31:00  BASE  6.39744  231  7.86744  229  -3.1  100   -3.1  20    0     990.5    NA       0.0000   9999     1640  0     0    
2019/07/29  14:32:00  BASE  5.78004  231  7.86744  229  -3.1  100   -3.1  19    0     990.5    NA       0.0000   9999     1800  0     0    
2019/07/29  14:33:00  BASE  6.05052  234  7.86744  229  -3.1  100   -3.1  17    0     990.5    NA       0.0000   9999     1610  2030  0    
2019/07/29  14:34:00  BASE  6.01524  233  7.86744  229  -3.1  100   -3.1  17    0     990.5    NA       0.0000   9999     2030  0     0    
2019/07/29  14:35:00  BASE  5.39784  235  7.86744  229  -3.1  100   -3.1  18    0     990.5    NA       0.0000   9999     2000  0     0    
2019/07/29  14:36:00  BASE  5.2332   235  7.86744  229  -3.0  100   -3.0  21    0     990.5    NA       0.0000   9999     4820  0     0    
2019/07/29  14:37:00  BASE  5.3802   233  7.86744  229  -3.0  100   -3.0  25    0     990.5    NA       0.0000   9999     1670  0     0    
2019/07/29  14:38:00  BASE  5.30964  233  7.86744  229  -3.0  100   -3.0  25    0     990.6    NA       0.0000   9999     1540  0     0    
2019/07/29  14:39:00  BASE  5.49192  233  7.86744  229  -3.0  100   -3.0  23    0     990.6    NA       0.0000   9999     1770  0     0    
2019/07/29  14:40:00  BASE  6.4974   231  7.98504  224  -3.0  100   -3.0  21    0     990.6    NA       0.0000   9999     1610  0     0    
2019/07/29  14:41:00  BASE  7.51464  229  8.379    232  -3.0  100   -3.0  20    0     990.6    NA       0.0000   9999     1640  0     0    
2019/07/29  14:42:00  BASE  7.86156  229  8.4672   223  -3.0  100   -3.0  21    0     990.6    NA       0.0000   9999     1640  0     0    
2019/07/29  14:43:00  BASE  7.6734   228  8.4672   223  -3.0  100   -3.0  24    0     990.6    NA       0.0000   9999     1770  5870  0    
2019/07/29  14:44:00  BASE  7.00896  226  8.4672   223  -3.1  100   -3.1  26    0     990.7    NA       0.0000   9999     1800  0     0    
2019/07/29  14:45:00  BASE  6.468    227  8.4672   223  -3.1  100   -3.1  26    0     990.8    NA       0.0000   9999     1770  0     0    
2019/07/29  14:46:00  BASE  6.71496  230  8.4672   223  -3.1  100   -3.1  27    0     990.8    NA       0.0000   9999     1710  0     0    
2019/07/29  14:47:00  BASE  6.93252  231  8.4672   223  -3.1  100   -3.1  26    0     990.8    NA       0.0000   9999     1800  0     0    
2019/07/29  14:48:00  BASE  6.68556  232  8.4672   223  -3.1  100   -3.1  25    0     990.8    NA       0.0000   9999     1740  0     0    
2019/07/29  14:49:00  BASE  6.72084  230  8.4672   223  -3.0  100   -3.1  24    0     990.9    NA       0.0000   9999     1770  5910  0    
2019/07/29  14:50:00  BASE  6.89136  228  8.4672   223  -3.0  100   -3.1  27    0     990.9    NA       0.0000   9999     5910  0     0    
2019/07/29  14:51:00  BASE  6.5562   228  8.4672   223  -3.0  99    -3.1  30    0     990.9    NA       0.0000   9999     1570  5840  0    
2019/07/29  14:52:00  BASE  6.15636  226  7.98504  228  -3.0  99    -3.1  33    0     990.9    NA       0.0000   9999     1740  0     0    
2019/07/29  14:53:01  BASE  6.4386   222  7.53228  224  -3.0  99    -3.1  30    0     991.0    NA       0.0000   9999     1710  0     0    
2019/07/29  14:54:00  BASE  6.75612  217  7.92624  215  -3.0  99    -3.1  28    0     991.0    NA       0.0000   9000     1510  0     0    
2019/07/29  14:55:00  BASE  6.63264  219  7.92624  215  -3.0  99    -3.1  26    0     991.0    NA       0.0000   4800     1480  0     0    
2019/07/29  14:56:00  BASE  6.94428  222  8.25552  223  -3.0  99    -3.1  25    0     991.0    NA       0.0000   9999     1480  0     0    
2019/07/29  14:57:00  BASE  7.73808  225  8.59068  229  -2.9  99    -3.1  25    0     991.0    NA       0.0000   9999     1570  0     0    
2019/07/29  14:58:00  BASE  7.97328  227  8.59068  229  -2.9  99    -3.1  28    0     991.0    NA       0.0000   9999     1670  0     0    
2019/07/29  14:59:00  BASE  7.94976  226  9.4374   227  -2.9  99    -3.1  29    0     991.0    NA       0.0000   9999     1540  0     0    
2019/07/29  15:00:01  BASE  8.00268  227  9.4374   227  -3.0  99    -3.1  27    0     991.0    NA       0.0000   9999     1570  0     0    
2019/07/29  15:01:00  BASE  7.5852   226  9.4374   227  -3.0  99    -3.1  24    0     991.0    NA       0.0000   9999     1540  0     0    
2019/07/29  15:02:00  BASE  7.36764  223  9.4374   227  -3.0  99    -3.1  24    0     991.1    NA       0.0000   9999     1610  0     0    
2019/07/29  15:03:00  BASE  7.97328  219  9.4374   227  -3.0  99    -3.2  26    0     991.1    NA       0.0000   9999     1610  6100  0    
2019/07/29  15:04:00  BASE  8.67888  218  9.4374   227  -3.0  99    -3.2  29    0     991.1    NA       0.0000   9999     6200  0     0    
2019/07/29  15:05:00  BASE  8.69652  218  9.4374   227  -3.1  98    -3.3  31    0     991.2    NA       0.0000   9999     6100  0     0    
2019/07/29  15:06:00  BASE  8.00856  219  9.4374   227  -3.1  98    -3.4  35    0     991.2    NA       0.0000   9999     1640  6200  0    
2019/07/29  15:07:01  BASE  7.07364  221  9.4374   227  -3.1  98    -3.4  37    0     991.3    NA       0.0000   9999     1670  0     0    
2019/07/29  15:08:01  BASE  7.09716  219  9.4374   227  -3.2  98    -3.4  36    0     991.3    NA       0.0000   9999     1640  0     0    
2019/07/29  15:09:00  BASE  7.4088   217  9.28452  218  -3.2  98    -3.4  33    0     991.3    NA       0.0000   9999     1640  0     0    
2019/07/29  15:10:01  BASE  6.9972   220  9.28452  218  -3.2  98    -3.5  35    0     991.3    NA       0.0000   9999     1710  6370  0    
2019/07/29  15:11:01  BASE  7.12068  224  9.28452  218  -3.2  98    -3.5  37    0     991.3    NA       0.0000   9999     1670  0     0    
2019/07/29  15:12:00  BASE  7.79688  225  9.31392  222  -3.2  97    -3.5  35    0     991.3    NA       0.0000   9999     1610  0     0    
2019/07/29  15:13:00  BASE  8.24964  228  9.31392  222  -3.1  97    -3.5  32    0     991.3    NA       0.0000   9999     1640  0     0    
2019/07/29  15:14:00  BASE  7.8792   229  9.31392  222  -3.2  97    -3.6  30    0     991.3    NA       0.0000   9999     1610  0     0    
2019/07/29  15:15:00  BASE  7.56756  227  9.31392  222  -3.2  97    -3.6  30    0     991.4    NA       0.0000   9999     1540  0     0    
2019/07/29  15:16:00  BASE  7.7028   225  9.31392  222  -3.2  97    -3.6  32    0     991.4    NA       0.0000   9999     1540  0     0    
2019/07/29  15:17:00  BASE  7.16772  223  9.31392  222  -3.2  97    -3.6  34    0     991.4    NA       0.0000   9999     0     0     0    
2019/07/29  15:18:00  BASE  7.09128  218  9.31392  222  -3.2  97    -3.6  37    0     991.4    NA       0.0000   9999     6070  0     0    
2019/07/29  15:19:00  BASE  8.41428  215  9.86076  219  -3.2  97    -3.6  36    0     991.4    NA       0.0000   9999     1570  0     0    
2019/07/29  15:20:00  BASE  8.62596  216  9.86076  219  -3.2  97    -3.6  31    0     991.4    NA       0.0000   9999     1540  0     0    
2019/07/29  15:21:00  BASE  8.00856  216  9.86076  219  -3.2  97    -3.6  30    0     991.5    NA       0.0000   9999     6500  0     0    
2019/07/29  15:22:00  BASE  7.98504  218  9.86076  219  -3.2  97    -3.6  30    0     991.5    NA       0.0000   9999     6530  0     0    
2019/07/29  15:23:00  BASE  7.83804  221  9.86076  219  -3.2  97    -3.6  30    0     991.5    NA       0.0000   9999     6560  0     0    
2019/07/29  15:24:00  BASE  7.54404  220  9.86076  219  -3.2  97    -3.6  31    0     991.6    NA       0.0000   9999     6560  0     0    
2019/07/29  15:25:00  BASE  6.97368  219  9.86076  219  -3.2  97    -3.6  31    0     991.6    NA       0.0000   9999     6590  0     0    
2019/07/29  15:26:00  BASE  6.91488  218  9.86076  219  -3.2  97    -3.6  29    0     991.6    NA       0.0000   9999     1480  6630  0    
2019/07/29  15:27:00  BASE  7.39116  215  9.86076  219  -3.2  98    -3.5  30    0     991.6    NA       0.0000   9999     1380  6660  0    
2019/07/29  15:28:00  BASE  7.30296  213  9.86076  219  -3.2  98    -3.5  30    0     991.6    NA       0.0000   9999     1440  6690  0    
2019/07/29  15:29:00  BASE  6.8796   218  8.95524  210  -3.2  98    -3.4  29    0     991.6    NA       0.0000   9999     1350  6730  0    
2019/07/29  15:30:00  BASE  6.91488  224  8.89056  217  -3.1  98    -3.4  29    0     991.6    NA       0.0000   9999     1440  0     0    
2019/07/29  15:31:00  BASE  7.31472  225  8.56128  219  -3.2  99    -3.3  29    0     991.7    NA       0.0000   9999     1280  0     0    
2019/07/29  15:32:00  BASE  8.24376  225  9.5256   224  -3.2  99    -3.3  29    0     991.7    NA       0.0000   9999     1350  0     0    
2019/07/29  15:33:00  BASE  8.81412  224  9.70788  215  -3.2  99    -3.3  29    0     991.7    NA       0.0000   9999     1350  6820  0    
2019/07/29  15:34:00  BASE  8.53776  219  9.70788  215  -3.2  100   -3.3  30    0     991.7    NA       0.0000   9999     6790  0     0    
2019/07/29  15:35:00  BASE  7.53228  218  9.70788  215  -3.3  100   -3.3  33    0     991.8    NA       0.0000   9999     1250  0     0    
2019/07/29  15:36:00  BASE  7.07952  220  9.70788  215  -3.3  100   -3.3  33    0     991.8    NA       0.0000   9999     1250  0     0    
2019/07/29  15:37:00  BASE  7.46172  221  9.70788  215  -3.4  100   -3.4  37    0     991.8    NA       0.0000   9999     1210  0     0    
2019/07/29  15:38:00  BASE  7.36176  222  9.70788  215  -3.4  100   -3.4  33    0     991.8    NA       0.0000   9999     1380  0     0    
2019/07/29  15:39:00  BASE  6.87372  220  9.70788  215  -3.4  100   -3.4  30    0     991.8    NA       0.0000   9999     0     0     0    
2019/07/29  15:40:00  BASE  6.6738   217  9.70788  215  -3.3  100   -3.3  30    0     991.8    NA       0.0000   9999     0     0     0    
2019/07/29  15:41:00  BASE  6.63852  218  9.70788  215  -3.3  100   -3.3  34    0     991.8    NA       0.0000   9999     0     0     0    
2019/07/29  15:42:01  BASE  6.65616  220  9.70788  215  -3.3  100   -3.3  37    0     991.9    NA       0.0000   9999     1350  0     0    
2019/07/29  15:43:00  BASE  6.83844  222  9.3786   213  -3.3  100   -3.3  37    0     991.9    NA       0.0000   9999     0     0     0    
2019/07/29  15:44:00  BASE  6.82668  225  7.98504  220  -3.3  100   -3.3  37    0     992.0    NA       0.0000   9999     0     0     0    
2019/07/29  15:45:00  BASE  6.51504  227  7.98504  220  -3.3  100   -3.3  35    0     992.0    NA       0.0000   9999     1510  0     0    
2019/07/29  15:46:00  BASE  5.85648  230  7.98504  220  -3.3  100   -3.3  30    0     992.0    NA       0.0000   9999     1250  0     0    
2019/07/29  15:47:00  BASE  6.00348  233  7.62048  218  -3.3  100   -3.3  27    0     992.0    NA       0.0000   9999     1180  6690  0    
2019/07/29  15:48:00  BASE  6.77376  234  7.65576  233  -3.3  100   -3.3  32    0     992.0    NA       0.0000   9999     1210  6690  0    
2019/07/29  15:49:00  BASE  6.80316  235  7.65576  233  -3.3  100   -3.3  31    0     992.1    NA       0.0000   9999     1180  6690  0    
2019/07/29  15:50:00  BASE  6.3504   231  7.65576  233  -3.3  100   -3.3  32    0     992.1    NA       0.0000   9999     1440  6730  0    
2019/07/29  15:51:00  BASE  6.8796   224  7.98504  212  -3.4  100   -3.4  32    0     992.1    NA       0.0000   9999     1280  0     0    
2019/07/29  15:52:01  BASE  7.30296  222  7.98504  212  -3.4  100   -3.4  31    0     992.1    NA       0.0000   9999     6820  0     0    
2019/07/29  15:53:01  BASE  6.79728  222  7.98504  212  -3.4  100   -3.4  33    0     992.2    NA       0.0000   9999     6760  0     0    
2019/07/29  15:54:01  BASE  7.09128  223  8.13792  219  -3.4  100   -3.4  36    0     992.2    NA       0.0000   9999     1250  6630  0    
2019/07/29  15:55:00  BASE  7.68516  220  8.19672  214  -3.3  100   -3.3  38    0     992.2    NA       0.0000   9999     6630  0     0    
2019/07/29  15:56:00  BASE  7.65576  219  8.19672  214  -3.3  100   -3.3  41    0     992.2    NA       0.0000   9999     6730  0     0    
2019/07/29  15:57:01  BASE  7.00896  226  8.19672  214  -3.3  100   -3.3  49    0     992.2    NA       0.0000   9999     1310  6790  0    
2019/07/29  15:58:00  BASE  6.81492  228  8.19672  214  -3.3  100   -3.3  48    0     992.2    NA       0.0000   9999     1310  6860  0    
2019/07/29  15:59:00  BASE  7.03248  223  8.19672  214  -3.3  100   -3.3  41    0     992.2    NA       0.0000   9999     1310  6890  0    
2019/07/29  16:00:00  BASE  7.30296  221  9.04344  226  -3.3  100   -3.3  35    0     992.2    NA       0.0000   9999     1350  0     0    
2019/07/29  16:01:00  BASE  7.4382   224  9.04344  226  -3.3  100   -3.3  32    0     992.2    NA       0.0000   9999     1410  0     0    
2019/07/29  16:02:00  BASE  7.59696  224  9.04344  226  -3.3  100   -3.3  31    0     992.2    NA       0.0000   9999     1410  0     0    
2019/07/29  16:03:00  BASE  8.2026   222  9.04344  226  -3.3  100   -3.3  32    0     992.2    NA       0.0000   9999     0     0     0    
2019/07/29  16:04:00  BASE  8.17908  221  9.04344  226  -3.3  100   -3.3  31    0     992.2    NA       0.0000   9999     0     0     0    
2019/07/29  16:05:00  BASE  7.54992  219  9.04344  226  -3.4  100   -3.4  31    0     992.3    NA       0.0000   9999     0     0     0    
2019/07/29  16:06:00  BASE  7.54404  220  9.04344  226  -3.4  100   -3.4  31    0     992.3    NA       0.0000   9999     0     0     0    
2019/07/29  16:07:00  BASE  7.57932  222  9.04344  226  -3.4  100   -3.4  32    0     992.3    NA       0.0000   9999     0     0     0    
2019/07/29  16:08:00  BASE  7.38528  224  9.04344  226  -3.4  100   -3.4  34    0     992.3    NA       0.0000   9999     0     0     0    
2019/07/29  16:09:00  BASE  7.67928  227  9.04344  226  -3.4  100   -3.4  37    0     992.3    NA       0.0000   9999     0     0     0    
2019/07/29  16:10:00  BASE  7.86744  230  8.86116  223  -3.4  100   -3.4  38    0     992.3    NA       0.0000   9999     0     0     0    
2019/07/29  16:11:00  BASE  7.80276  229  8.86116  223  -3.4  100   -3.4  39    0     992.3    NA       0.0000   9999     0     0     0    
2019/07/29  16:12:00  BASE  7.72632  227  8.86116  223  -3.4  100   -3.4  42    0     992.4    NA       0.0000   9999     0     0     0    
2019/07/29  16:13:00  BASE  7.26768  226  8.53188  221  -3.4  100   -3.4  46    0     992.4    NA       0.0000   9999     0     0     0    
2019/07/29  16:14:00  BASE  6.80316  225  8.3202   221  -3.4  100   -3.4  50    0     992.4    NA       0.0000   9999     0     0     0    
2019/07/29  16:15:00  BASE  7.34412  224  8.4084   224  -3.3  99    -3.4  53    0     992.4    NA       0.0000   9999     1570  0     0    
2019/07/29  16:16:00  BASE  7.64988  224  8.4084   224  -3.3  99    -3.4  57    0     992.5    NA       0.0000   9999     6660  0     0    
2019/07/29  16:17:00  BASE  7.42056  226  8.4084   224  -3.3  99    -3.5  57    0     992.5    NA       0.0000   9999     1640  6630  0    
2019/07/29  16:18:00  BASE  7.3794   225  8.4084   224  -3.3  99    -3.5  57    0     992.5    NA       0.0000   9999     1640  6730  0    
2019/07/29  16:19:00  BASE  7.47348  224  8.4084   224  -3.4  99    -3.5  59    0     992.6    NA       0.0000   9999     6660  0     0    
2019/07/29  16:20:00  BASE  7.77336  226  8.80236  231  -3.4  98    -3.6  60    0     992.6    NA       0.0000   9999     0     0     0    
2019/07/29  16:21:00  BASE  7.89096  226  8.80236  231  -3.4  98    -3.7  68    0     992.6    NA       0.0000   9999     6730  0     0    
2019/07/29  16:22:00  BASE  8.03208  227  9.04344  229  -3.4  97    -3.7  54    0     992.6    NA       0.0000   9999     6790  0     0    
2019/07/29  16:23:00  BASE  8.33784  228  9.04344  229  -3.4  97    -3.8  55    0     992.6    NA       0.0000   9999     6760  0     0    
2019/07/29  16:24:00  BASE  8.32608  225  9.10224  223  -3.4  97    -3.9  63    0     992.6    NA       0.0000   9999     6790  0     0    
2019/07/29  16:25:00  BASE  8.33784  225  9.10224  223  -3.4  96    -3.9  122   0     992.7    NA       0.0000   9999     0     0     0    
2019/07/29  16:26:00  BASE  8.4966   226  9.4374   221  -3.4  96    -4.0  122   0     992.7    NA       0.0000   9999     0     0     0    
2019/07/29  16:27:00  BASE  8.36724  223  9.4374   221  -3.4  95    -4.1  120   0     992.7    NA       0.0000   9999     0     0     0    
2019/07/29  16:28:00  BASE  8.13204  223  9.4374   221  -3.4  94    -4.2  96    0     992.7    NA       0.0000   9999     0     0     0    
2019/07/29  16:29:00  BASE  7.8498   222  9.4374   221  -3.4  93    -4.3  95    0     992.8    NA       0.0000   9999     0     0     0    
2019/07/29  16:30:00  BASE  8.09088  217  9.4374   221  -3.4  92    -4.4  51    0     992.8    NA       0.0000   9999     0     0     0    
2019/07/29  16:31:00  BASE  8.67888  215  9.4374   221  -3.3  91    -4.5  67    0     992.8    NA       0.0000   9999     0     0     0    
2019/07/29  16:32:00  BASE  8.74356  215  9.4374   221  -3.3  91    -4.6  48    0     992.8    NA       0.0000   9999     0     0     0    
2019/07/29  16:33:00  BASE  8.10852  213  9.4374   221  -3.3  90    -4.8  95    0     992.8    NA       0.0000   9999     0     0     0    
2019/07/29  16:34:00  BASE  7.5558   216  9.4374   221  -3.3  89    -4.8  62    0     992.9    NA       0.0000   9999     0     0     0    
2019/07/29  16:35:00  BASE  7.32648  217  9.4374   221  -3.3  89    -4.9  62    0     992.9    NA       0.0000   9999     0     0     0    
2019/07/29  16:36:00  BASE  7.12068  212  9.25512  215  -3.3  88    -5.0  38    0     992.9    NA       0.0000   9999     0     0     0    
2019/07/29  16:37:00  BASE  7.2912   213  9.25512  215  -3.3  88    -5.0  34    0     992.9    NA       0.0000   9999     0     0     0    
2019/07/29  16:38:00  BASE  7.497    218  9.25512  215  -3.3  88    -5.1  34    0     993.0    NA       0.0000   9999     0     0     0    
2019/07/29  16:39:00  BASE  7.90272  220  9.25512  215  -3.3  88    -5.1  33    0     993.0    NA       0.0000   9999     0     0     0    
2019/07/29  16:40:00  BASE  7.93212  221  9.25512  215  -3.3  87    -5.1  35    0     993.0    NA       0.0000   9999     7090  0     0    
2019/07/29  16:41:00  BASE  7.62048  221  9.19632  217  -3.3  87    -5.1  36    0     993.0    NA       0.0000   9999     7120  0     0    
2019/07/29  16:42:00  BASE  7.5264   220  8.92584  220  -3.3  87    -5.1  40    0     993.0    NA       0.0000   9999     7220  0     0    
2019/07/29  16:43:00  BASE  7.43232  221  8.92584  220  -3.3  87    -5.1  39    0     993.0    NA       0.0000   9999     0     0     0    
2019/07/29  16:44:00  BASE  7.10892  220  8.92584  220  -3.3  87    -5.1  41    0     993.0    NA       0.0000   9999     0     0     0    
2019/07/29  16:45:00  BASE  6.97956  220  8.92584  220  -3.3  87    -5.1  88    0     993.0    NA       0.0000   9999     0     0     0    
2019/07/29  16:46:00  BASE  7.3794   220  8.92584  220  -3.2  87    -5.1  96    0     993.0    NA       0.0000   9999     0     0     0    
2019/07/29  16:47:00  BASE  7.21476  220  8.92584  220  -3.2  87    -5.0  101   0     993.0    NA       0.0000   9999     0     0     0    
2019/07/29  16:48:00  BASE  7.30884  220  8.92584  221  -3.2  88    -4.9  103   0     993.0    NA       0.0000   9999     0     0     0    
2019/07/29  16:49:00  BASE  7.77924  223  8.92584  221  -3.2  88    -4.9  70    0     993.0    NA       0.0000   9999     0     0     0    
2019/07/29  16:50:00  BASE  8.09676  224  8.92584  221  -3.2  88    -4.9  53    0     993.0    NA       0.0000   9999     0     0     0    
2019/07/29  16:51:00  BASE  8.13792  221  8.92584  221  -3.2  88    -4.9  75    0     993.1    NA       0.0000   9999     0     0     0    
2019/07/29  16:52:00  BASE  7.97916  220  8.92584  220  -3.3  88    -5.0  101   0     993.1    NA       0.0000   9999     0     0     0    
2019/07/29  16:53:00  BASE  7.9968   220  8.92584  220  -3.3  88    -5.0  103   0     993.2    NA       0.0000   9999     6590  0     0    
2019/07/29  16:54:00  BASE  8.16732  220  9.13752  222  -3.3  88    -5.0  103   0     993.2    NA       0.0000   9999     6690  0     0    
2019/07/29  16:55:00  BASE  8.07912  221  9.13752  222  -3.3  87    -5.1  106   0     993.2    NA       0.0000   9999     0     0     0    
2019/07/29  16:56:00  BASE  8.12028  221  9.13752  222  -3.3  87    -5.1  92    0     993.2    NA       0.0000   9999     7120  0     0    
2019/07/29  16:57:00  BASE  8.40252  221  9.13752  222  -3.3  86    -5.2  94    0     993.2    NA       0.0000   9999     7120  0     0    
2019/07/29  16:58:00  BASE  8.22024  220  9.13752  222  -3.2  86    -5.2  107   0     993.2    NA       0.0000   9999     0     0     0    
2019/07/29  16:59:00  BASE  8.09088  220  9.13752  222  -3.2  86    -5.3  97    0     993.3    NA       0.0000   9999     0     0     0    
2019/07/29  17:00:00  BASE  7.83216  219  9.13752  222  -3.2  85    -5.3  83    0     993.3    NA       0.0000   9999     0     0     0    
2019/07/29  17:01:00  BASE  7.40292  218  9.13752  222  -3.2  85    -5.3  49    0     993.3    NA       0.0000   9999     0     0     0    
2019/07/29  17:02:00  BASE  6.90312  219  9.13752  222  -3.2  85    -5.4  72    0     993.3    NA       0.0000   9999     0     0     0    
2019/07/29  17:03:00  BASE  6.85608  217  9.13752  222  -3.2  85    -5.4  78    0     993.3    NA       0.0000   9999     0     0     0    
2019/07/29  17:04:00  BASE  7.24416  216  8.95524  218  -3.2  85    -5.4  99    0     993.3    NA       0.0000   9999     0     0     0    
2019/07/29  17:05:00  BASE  7.25004  218  8.95524  218  -3.2  85    -5.4  99    0     993.4    NA       0.0000   9999     0     0     0    
2019/07/29  17:06:00  BASE  7.47936  219  8.95524  218  -3.2  85    -5.4  102   0     993.4    NA       0.0000   9999     0     0     0    
2019/07/29  17:07:00  BASE  7.8204   218  8.95524  218  -3.2  84    -5.5  106   0     993.4    NA       0.0000   9999     0     0     0    
2019/07/29  17:08:00  BASE  7.62048  218  8.80236  220  -3.2  84    -5.5  108   0     993.4    NA       0.0000   9999     0     0     0    
2019/07/29  17:09:00  BASE  7.56168  219  8.3202   220  -3.2  84    -5.6  109   0     993.4    NA       0.0000   9999     0     0     0    
2019/07/29  17:10:00  BASE  7.27944  217  8.3202   220  -3.2  83    -5.6  110   0     993.4    NA       0.0000   9999     0     0     0    
2019/07/29  17:11:00  BASE  6.73848  218  8.3202   220  -3.1  83    -5.7  105   0     993.4    NA       0.0000   9999     21820 0     0    
2019/07/29  17:12:00  BASE  6.91488  219  8.3202   220  -3.1  82    -5.7  93    0     993.4    NA       0.0000   9999     21720 0     0    
2019/07/29  17:13:00  BASE  7.27356  220  8.4378   223  -3.1  82    -5.7  67    0     993.5    NA       0.0000   9999     0     0     0    
2019/07/29  17:14:00  BASE  7.3794   222  8.4378   223  -3.1  82    -5.7  64    0     993.4    NA       0.0000   9999     0     0     0    
2019/07/29  17:15:00  BASE  7.25004  226  8.4378   223  -3.1  82    -5.8  69    0     993.4    NA       0.0000   9999     0     0     0    
2019/07/29  17:16:00  BASE  7.10304  228  8.4378   223  -3.1  82    -5.8  62    0     993.5    NA       0.0000   9999     0     0     0    
2019/07/29  17:17:00  BASE  7.27944  228  8.4378   223  -3.2  82    -5.8  71    0     993.5    NA       0.0000   9999     0     0     0    
2019/07/29  17:18:00  BASE  7.39704  224  8.4378   223  -3.2  82    -5.8  76    0     993.5    NA       0.0000   9999     0     0     0    
2019/07/29  17:19:00  BASE  7.52052  220  8.4378   223  -3.2  82    -5.8  71    0     993.5    NA       0.0000   9999     0     0     0    
2019/07/29  17:20:00  BASE  7.62636  221  8.4378   223  -3.2  82    -5.8  88    0     993.6    NA       0.0000   9999     0     0     0    
2019/07/29  17:21:00  BASE  7.71456  223  8.4378   223  -3.2  82    -5.8  95    0     993.6    NA       0.0000   9999     0     0     0    
2019/07/29  17:22:00  BASE  7.65576  221  8.4378   223  -3.2  82    -5.8  108   0     993.6    NA       0.0000   9999     0     0     0    
2019/07/29  17:23:00  BASE  7.21476  220  8.19672  224  -3.2  82    -5.8  104   0     993.6    NA       0.0000   9999     0     0     0    
2019/07/29  17:24:00  BASE  6.93252  222  8.19672  224  -3.2  82    -5.8  89    0     993.7    NA       0.0000   9999     0     0     0    
2019/07/29  17:25:00  BASE  7.12656  226  8.19672  224  -3.2  82    -5.9  99    0     993.7    NA       0.0000   9999     0     0     0    
2019/07/29  17:26:00  BASE  7.04424  226  8.19672  224  -3.2  81    -6.0  97    0     993.7    NA       0.0000   9999     0     0     0    
2019/07/29  17:27:00  BASE  6.80904  225  8.19672  224  -3.2  81    -6.1  94    0     993.7    NA       0.0000   9999     0     0     0    
2019/07/29  17:28:00  BASE  7.03248  228  8.19672  224  -3.2  80    -6.2  92    0     993.7    NA       0.0000   9999     0     0     0    
2019/07/29  17:29:00  BASE  7.26768  228  8.19672  224  -3.2  80    -6.2  90    0     993.7    NA       0.0000   9999     0     0     0    
2019/07/29  17:30:00  BASE  7.21476  224  8.13792  223  -3.2  79    -6.3  89    0     993.8    NA       0.0000   9999     0     0     0    
2019/07/29  17:31:00  BASE  7.34412  219  7.89684  217  -3.2  79    -6.3  87    0     993.8    NA       0.0000   9999     0     0     0    
2019/07/29  17:32:00  BASE  7.53816  216  7.89684  217  -3.2  79    -6.3  86    0     993.9    NA       0.0000   9999     0     0     0    
2019/07/29  17:33:00  BASE  7.4382   217  8.13792  218  -3.2  79    -6.3  85    0     993.9    NA       0.0000   9999     0     0     0    
2019/07/29  17:34:00  BASE  7.15008  218  8.13792  218  -3.1  79    -6.3  84    0     994.0    NA       0.0000   9999     0     0     0    
2019/07/29  17:35:00  BASE  7.12068  217  8.13792  218  -3.1  79    -6.2  84    0     994.0    NA       0.0000   9999     0     0     0    
2019/07/29  17:36:00  BASE  6.98544  219  8.13792  218  -3.1  79    -6.2  84    0     994.0    NA       0.0000   9999     0     0     0    
2019/07/29  17:37:00  BASE  6.5268   220  8.13792  218  -3.1  79    -6.2  84    0     994.0    NA       0.0000   9999     0     0     0    
2019/07/29  17:38:00  BASE  5.97408  222  8.13792  218  -3.0  79    -6.1  83    0     994.1    NA       0.0000   9999     0     0     0    
2019/07/29  17:39:00  BASE  5.53896  226  8.13792  218  -3.0  80    -6.0  83    0     994.1    NA       0.0000   9999     0     0     0    
2019/07/29  17:40:00  BASE  6.39156  228  8.13792  218  -3.1  80    -6.0  83    0     994.1    NA       0.0000   9999     0     0     0    
2019/07/29  17:41:00  BASE  7.26768  227  8.13792  218  -3.1  81    -6.0  83    0     994.1    NA       0.0000   9999     0     0     0    
2019/07/29  17:42:00  BASE  6.72672  228  8.13792  218  -3.1  81    -6.0  83    0     994.1    NA       0.0000   9999     0     0     0    
2019/07/29  17:43:00  BASE  6.66204  230  7.86744  228  -3.2  81    -6.0  82    0     994.1    NA       0.0000   9999     0     0     0    
2019/07/29  17:44:00  BASE  6.86196  229  7.86744  228  -3.2  81    -6.0  81    0     994.1    NA       0.0000   9999     0     0     0    
2019/07/29  17:45:00  BASE  6.22692  228  7.86744  228  -3.2  81    -6.0  81    0     994.1    NA       0.0000   9999     0     0     0    
2019/07/29  17:46:00  BASE  6.2034   228  7.86744  228  -3.2  81    -6.0  79    0     994.1    NA       0.0000   9999     0     0     0    
2019/07/29  17:47:00  BASE  6.62088  226  7.86744  228  -3.2  81    -6.0  78    0     994.1    NA       0.0000   9999     0     0     0    
2019/07/29  17:48:00  BASE  6.25044  223  7.86744  228  -3.2  81    -6.1  77    0     994.1    NA       0.0000   9999     0     0     0    
2019/07/29  17:49:00  BASE  5.70948  225  7.86744  228  -3.2  80    -6.1  75    0     994.1    NA       0.0000   9999     0     0     0    
2019/07/29  17:50:00  BASE  6.10932  225  7.86744  228  -3.2  80    -6.1  73    0     994.1    NA       0.0000   9999     0     0     0    
2019/07/29  17:51:00  BASE  6.75612  223  7.86744  228  -3.2  80    -6.2  71    0     994.1    NA       0.0000   9999     0     0     0    
2019/07/29  17:52:00  BASE  6.8502   220  7.86744  228  -3.2  80    -6.1  70    0     994.1    NA       0.0000   9999     0     0     0    
2019/07/29  17:53:00  BASE  6.80316  218  7.71456  217  -3.2  80    -6.1  69    0     994.1    NA       0.0000   9999     0     0     0    
2019/07/29  17:54:01  BASE  6.85608  221  7.71456  217  -3.2  80    -6.2  68    0     994.1    NA       0.0000   9999     0     0     0    
2019/07/29  17:55:00  BASE  7.09128  222  7.74396  215  -3.2  80    -6.2  67    0     994.2    NA       0.0000   9999     0     0     0    
2019/07/29  17:56:00  BASE  7.35     221  7.83216  222  -3.2  79    -6.2  66    0     994.2    NA       0.0000   9999     0     0     0    
2019/07/29  17:57:00  BASE  7.3206   223  7.86744  228  -3.2  79    -6.2  66    0     994.2    NA       0.0000   9999     0     0     0    
2019/07/29  17:58:00  BASE  7.2912   222  7.86744  228  -3.1  79    -6.3  65    0     994.2    NA       0.0000   9999     0     0     0    
2019/07/29  17:59:00  BASE  7.19124  218  7.86744  228  -3.2  79    -6.2  65    0     994.2    NA       0.0000   9999     0     0     0    
2019/07/29  18:00:00  BASE  6.95016  217  7.86744  228  -3.1  79    -6.2  64    0     994.3    NA       0.0000   9999     0     0     0    
2019/07/29  18:01:00  BASE  6.8796   220  7.86744  228  -3.1  80    -6.1  63    0     994.4    NA       0.0000   9999     0     0     0    
2019/07/29  18:02:00  BASE  6.89136  223  7.86744  228  -3.1  80    -6.1  61    0     994.4    NA       0.0000   9999     0     0     0    
2019/07/29  18:03:00  BASE  6.89724  223  7.86744  228  -3.1  80    -6.1  60    0     994.4    NA       0.0000   9999     0     0     0    
2019/07/29  18:04:00  BASE  7.10304  220  7.86744  228  -3.1  80    -6.0  59    0     994.4    NA       0.0000   9999     0     0     0    
2019/07/29  18:05:00  BASE  7.2324   218  7.86744  221  -3.1  80    -6.0  58    0     994.4    NA       0.0000   9999     0     0     0    
2019/07/29  18:06:00  BASE  6.909    221  7.86744  221  -3.2  80    -6.0  56    0     994.4    NA       0.0000   9999     0     0     0    
2019/07/29  18:07:00  BASE  6.87372  222  7.86744  221  -3.2  80    -6.1  55    0     994.5    NA       0.0000   9999     0     0     0    
2019/07/29  18:08:00  BASE  6.99132  220  7.86744  221  -3.2  80    -6.1  54    0     994.5    NA       0.0000   9999     0     0     0    
2019/07/29  18:09:00  BASE  6.63852  225  7.86744  221  -3.2  80    -6.1  53    0     994.5    NA       0.0000   9999     0     0     0    
2019/07/29  18:10:00  BASE  6.22104  231  7.86744  221  -3.2  80    -6.1  52    0     994.6    NA       0.0000   9999     0     0     0    
2019/07/29  18:11:00  BASE  6.45036  230  7.86744  221  -3.2  80    -6.1  52    0     994.5    NA       0.0000   9999     0     0     0    
2019/07/29  18:12:00  BASE  6.83844  224  7.86744  221  -3.2  80    -6.1  51    0     994.5    NA       0.0000   9999     0     0     0    
2019/07/29  18:13:00  BASE  6.60324  218  7.86744  221  -3.2  81    -6.0  50    0     994.6    NA       0.0000   9999     0     0     0    
2019/07/29  18:14:00  BASE  6.47388  218  7.86744  221  -3.2  81    -6.0  49    0     994.6    NA       0.0000   9999     0     0     0    
2019/07/29  18:15:00  BASE  6.54444  221  7.65576  225  -3.2  81    -6.0  48    0     994.6    NA       0.0000   9999     0     0     0    
2019/07/29  18:16:00  BASE  6.55032  223  7.65576  225  -3.2  81    -6.0  47    0     994.6    NA       0.0000   9999     0     0     0    
2019/07/29  18:17:00  BASE  6.3798   225  7.62048  216  -3.2  81    -6.1  47    0     994.7    NA       0.0000   9999     0     0     0    
2019/07/29  18:18:00  BASE  6.03876  227  7.62048  216  -3.2  80    -6.1  46    0     994.7    NA       0.0000   9999     0     0     0    
2019/07/29  18:19:00  BASE  5.74476  227  7.62048  216  -3.2  80    -6.2  45    0     994.7    NA       0.0000   9999     0     0     0    
2019/07/29  18:20:00  BASE  5.81532  227  7.62048  216  -3.3  80    -6.2  45    0     994.7    NA       0.0000   9999     0     0     0    
2019/07/29  18:21:00  BASE  6.22692  228  7.62048  216  -3.3  80    -6.1  44    0     994.7    NA       0.0000   9999     0     0     0    
2019/07/29  18:22:00  BASE  6.321    229  7.4088   225  -3.3  81    -6.1  43    0     994.7    NA       0.0000   9999     0     0     0    
2019/07/29  18:23:00  BASE  5.78592  226  7.4088   225  -3.3  81    -6.1  42    0     994.7    NA       0.0000   9999     0     0     0    
2019/07/29  18:24:00  BASE  5.63304  223  7.4088   225  -3.3  81    -6.1  41    0     994.7    NA       0.0000   9999     0     0     0    
2019/07/29  18:25:00  BASE  5.63892  219  7.16772  224  -3.3  80    -6.2  40    0     994.7    NA       0.0000   9999     0     0     0    
2019/07/29  18:26:00  BASE  5.50956  217  6.98544  225  -3.3  80    -6.2  39    0     994.7    NA       0.0000   9999     0     0     0    
2019/07/29  18:27:00  BASE  5.51544  221  6.83844  232  -3.3  80    -6.3  39    0     994.7    NA       0.0000   9999     0     0     0    
2019/07/29  18:28:00  BASE  5.48016  224  6.83844  232  -3.3  79    -6.4  38    0     994.7    NA       0.0000   9999     0     0     0    
2019/07/29  18:29:00  BASE  5.62716  224  6.83844  232  -3.3  79    -6.5  37    0     994.7    NA       0.0000   9999     0     0     0    
2019/07/29  18:30:00  BASE  5.72712  222  6.83844  232  -3.3  78    -6.6  36    0     994.7    NA       0.0000   9999     0     0     0    
2019/07/29  18:31:00  BASE  5.59776  225  6.83844  232  -3.3  77    -6.7  35    0     994.7    NA       0.0000   9999     0     0     0    
2019/07/29  18:32:00  BASE  5.65656  224  6.44448  227  -3.3  77    -6.8  35    0     994.7    NA       0.0000   9999     0     0     0    
2019/07/29  18:33:00  BASE  5.48604  219  6.44448  227  -3.3  76    -6.9  34    0     994.7    NA       0.0000   9999     0     0     0    
2019/07/29  18:34:00  BASE  5.21556  222  6.44448  227  -3.3  76    -6.9  33    0     994.7    NA       0.0000   9999     0     0     0    
2019/07/29  18:35:00  BASE  5.58012  226  6.53268  226  -3.3  76    -6.9  32    0     994.7    NA       0.0000   9999     0     0     0    
2019/07/29  18:36:00  BASE  5.92116  227  6.92664  223  -3.3  76    -6.9  32    0     994.7    NA       0.0000   9999     0     0     0    
2019/07/29  18:37:00  BASE  6.0858   228  6.92664  223  -3.3  76    -7.0  31    0     994.8    NA       0.0000   9999     0     0     0    
2019/07/29  18:38:00  BASE  6.19752  226  6.92664  223  -3.4  75    -7.1  31    0     994.8    NA       0.0000   9999     0     0     0    
2019/07/29  18:39:01  BASE  6.09756  220  6.92664  223  -3.4  75    -7.2  30    0     994.9    NA       0.0000   9999     0     0     0    
2019/07/29  18:40:00  BASE  5.72124  218  6.92664  223  -3.4  75    -7.3  29    0     994.9    NA       0.0000   9999     0     0     0    
2019/07/29  18:41:00  BASE  5.28024  215  6.92664  223  -3.4  74    -7.4  29    0     994.9    NA       0.0000   9999     0     0     0    
2019/07/29  18:42:00  BASE  5.30376  218  6.92664  223  -3.4  74    -7.4  28    0     994.9    NA       0.0000   9999     0     0     0    
2019/07/29  18:43:00  BASE  5.92704  219  6.92664  223  -3.4  74    -7.4  27    0     994.9    NA       0.0000   9999     0     0     0    
2019/07/29  18:44:00  BASE  6.02112  216  6.92664  223  -3.4  74    -7.4  27    0     995.0    NA       0.0000   9999     0     0     0    
2019/07/29  18:45:00  BASE  5.86824  215  6.92664  223  -3.4  74    -7.4  26    0     995.0    NA       0.0000   9999     0     0     0    
2019/07/29  18:46:00  BASE  6.10932  215  6.74436  216  -3.3  73    -7.4  26    0     995.1    NA       0.0000   9999     0     0     0    
2019/07/29  18:47:00  BASE  5.89176  218  6.74436  216  -3.3  73    -7.5  25    0     995.1    NA       0.0000   9999     0     0     0    
2019/07/29  18:48:00  BASE  5.3802   217  6.74436  216  -3.3  72    -7.6  24    0     995.1    NA       0.0000   9999     0     0     0    
2019/07/29  18:49:00  BASE  5.08032  214  6.74436  216  -3.3  72    -7.7  24    0     995.1    NA       0.0000   9999     0     0     0    
2019/07/29  18:50:00  BASE  5.19792  217  6.74436  216  -3.3  71    -7.8  23    0     995.1    NA       0.0000   9999     0     0     0    
2019/07/29  18:51:00  BASE  5.71536  219  6.74436  216  -3.3  71    -7.8  22    0     995.1    NA       0.0000   9999     0     0     0    
2019/07/29  18:52:00  BASE  6.0858   218  6.74436  216  -3.3  71    -7.8  22    0     995.1    NA       0.0000   9999     0     0     0    
2019/07/29  18:53:00  BASE  6.09756  217  6.74436  216  -3.3  71    -7.8  21    0     995.1    NA       0.0000   9999     0     0     0    
2019/07/29  18:54:00  BASE  6.06228  217  6.74436  216  -3.3  71    -7.8  21    0     995.1    NA       0.0000   9999     0     0     0    
2019/07/29  18:55:00  BASE  5.7918   218  6.74436  216  -3.3  70    -7.9  20    0     995.2    NA       0.0000   9999     0     0     0    
2019/07/29  18:56:00  BASE  5.65656  218  6.56208  218  -3.3  70    -7.9  20    0     995.2    NA       0.0000   9999     0     0     0    
2019/07/29  18:57:00  BASE  5.95056  211  6.56208  218  -3.3  70    -8.0  19    0     995.2    NA       0.0000   9999     0     0     0    
2019/07/29  18:58:00  BASE  5.44488  208  6.56208  218  -3.3  70    -8.0  18    0     995.2    NA       0.0000   9999     0     0     0    
2019/07/29  18:59:00  BASE  5.292    217  6.56208  218  -3.3  70    -8.0  16    0     995.3    NA       0.0000   9999     0     0     0    
2019/07/29  19:00:00  BASE  5.60364  221  6.56208  218  -3.3  70    -8.0  14    0     995.3    NA       0.0000   9999     0     0     0    
2019/07/29  19:01:00  BASE  5.66244  217  6.56208  218  -3.3  71    -7.9  12    0     995.3    NA       0.0000   9999     0     0     0    
2019/07/29  19:02:00  BASE  5.6448   220  6.50328  224  -3.4  71    -7.9  11    0     995.3    NA       0.0000   9999     0     0     0    
2019/07/29  19:03:00  BASE  5.47428  224  6.50328  224  -3.4  71    -7.8  11    0     995.3    NA       0.0000   9999     0     0     0    
2019/07/29  19:04:00  BASE  5.82708  221  6.56208  214  -3.4  72    -7.8  10    0     995.3    NA       0.0000   9999     0     0     0    
2019/07/29  19:05:00  BASE  6.03288  216  6.56208  214  -3.4  72    -7.8  10    0     995.3    NA       0.0000   9999     0     0     0    
2019/07/29  19:06:00  BASE  5.9388   218  6.56208  214  -3.4  71    -7.9  10    0     995.3    NA       0.0000   9999     0     0     0    
2019/07/29  19:07:00  BASE  5.81532  220  6.56208  214  -3.4  71    -7.9  9     0     995.3    NA       0.0000   9999     0     0     0    
2019/07/29  19:08:00  BASE  5.48016  220  6.56208  214  -3.4  71    -7.9  9     0     995.4    NA       0.0000   9999     0     0     0    
2019/07/29  19:09:00  BASE  5.65068  219  6.56208  214  -3.4  71    -7.9  9     0     995.4    NA       0.0000   9999     0     0     0    
2019/07/29  19:10:00  BASE  5.99172  217  6.56208  214  -3.4  71    -7.9  9     0     995.4    NA       0.0000   9999     0     0     0    
2019/07/29  19:11:00  BASE  5.89176  215  6.56208  214  -3.5  71    -8.0  9     0     995.4    NA       0.0000   9999     0     0     0    
2019/07/29  19:12:00  BASE  5.78004  216  6.56208  214  -3.4  71    -8.0  9     0     995.4    NA       0.0000   9999     0     0     0    
2019/07/29  19:13:00  BASE  5.82708  216  6.56208  214  -3.4  70    -8.1  8     0     995.4    NA       0.0000   9999     0     0     0    
2019/07/29  19:14:00  BASE  5.95644  218  6.53268  220  -3.4  70    -8.2  8     0     995.4    NA       0.0000   9999     0     0     0    
2019/07/29  19:15:00  BASE  5.94468  218  6.53268  220  -3.4  69    -8.2  8     0     995.4    NA       0.0000   9999     0     0     0    
2019/07/29  19:16:00  BASE  5.92704  217  6.53268  220  -3.4  69    -8.2  8     0     995.4    NA       0.0000   9999     0     0     0    
2019/07/29  19:17:00  BASE  5.92704  220  6.53268  220  -3.4  69    -8.2  8     0     995.4    NA       0.0000   9999     0     0     0    
2019/07/29  19:18:00  BASE  6.0564   221  6.53268  220  -3.5  70    -8.2  8     0     995.4    NA       0.0000   9999     0     0     0    
2019/07/29  19:19:00  BASE  6.07992  218  6.53268  220  -3.5  70    -8.2  8     0     995.5    NA       0.0000   9999     0     0     0    
2019/07/29  19:20:00  BASE  5.80944  217  6.53268  220  -3.5  70    -8.1  8     0     995.5    NA       0.0000   9999     0     0     0    
2019/07/29  19:21:00  BASE  5.95056  214  6.77376  211  -3.5  70    -8.1  8     0     995.5    NA       0.0000   9999     0     0     0    
2019/07/29  19:22:00  BASE  6.12696  211  6.77376  211  -3.5  70    -8.1  8     0     995.5    NA       0.0000   9999     0     0     0    
2019/07/29  19:23:00  BASE  5.90352  214  6.77376  211  -3.5  70    -8.1  8     0     995.5    NA       0.0000   9999     0     0     0    
2019/07/29  19:24:00  BASE  5.75064  219  6.77376  211  -3.5  70    -8.1  7     0     995.6    NA       0.0000   9999     0     0     0    
2019/07/29  19:25:00  BASE  5.62128  221  6.77376  211  -3.5  70    -8.1  7     0     995.7    NA       0.0000   9999     0     0     0    
2019/07/29  19:26:00  BASE  5.30376  218  6.77376  211  -3.5  70    -8.2  7     0     995.7    NA       0.0000   9999     0     0     0    
2019/07/29  19:27:00  BASE  5.15676  213  6.77376  211  -3.5  70    -8.2  6     0     995.7    NA       0.0000   9999     0     0     0    
2019/07/29  19:28:00  BASE  5.6448   213  6.77376  211  -3.5  70    -8.2  6     0     995.7    NA       0.0000   9999     0     0     0    
2019/07/29  19:29:00  BASE  5.47428  215  6.77376  211  -3.5  70    -8.2  6     0     995.8    NA       0.0000   9999     0     0     0    
2019/07/29  19:30:00  BASE  4.75692  218  6.77376  211  -3.5  70    -8.1  5     0     995.8    NA       0.0000   9999     0     0     0    
2019/07/29  19:31:00  BASE  4.95684  219  6.59148  214  -3.5  71    -8.1  5     0     995.8    NA       0.0000   9999     0     0     0    
2019/07/29  19:32:00  BASE  5.09208  218  6.50328  214  -3.5  71    -8.1  4     0     995.8    NA       0.0000   9999     0     0     0    
2019/07/29  19:33:00  BASE  4.9392   213  6.50328  214  -3.5  71    -8.0  4     0     995.8    NA       0.0000   9999     0     0     0    
2019/07/29  19:34:00  BASE  5.36844  213  6.50328  214  -3.6  71    -8.1  4     0     995.9    NA       0.0000   9999     0     0     0    
2019/07/29  19:35:00  BASE  5.62716  216  6.50328  214  -3.6  71    -8.1  4     0     995.9    NA       0.0000   9999     0     0     0    
2019/07/29  19:36:00  BASE  5.2626   217  6.50328  214  -3.6  71    -8.1  3     0     995.9    NA       0.0000   9999     0     0     0    
2019/07/29  19:37:00  BASE  5.03328  221  6.50328  214  -3.6  71    -8.1  3     0     995.9    NA       0.0000   9999     0     0     0    
2019/07/29  19:38:00  BASE  5.56248  223  6.50328  223  -3.6  71    -8.1  3     0     995.9    NA       0.0000   9999     0     0     0    
2019/07/29  19:39:00  BASE  5.97408  223  6.50328  223  -3.6  71    -8.1  3     0     995.9    NA       0.0000   9999     0     0     0    
2019/07/29  19:40:00  BASE  5.80356  223  6.50328  223  -3.6  71    -8.2  3     0     996.0    NA       0.0000   9999     0     0     0    
2019/07/29  19:41:00  BASE  5.6742   220  6.50328  223  -3.6  70    -8.2  3     0     996.0    NA       0.0000   9999     0     0     0    
2019/07/29  19:42:00  BASE  5.31552  215  6.50328  223  -3.6  70    -8.3  3     0     996.0    NA       0.0000   9999     0     0     0    
2019/07/29  19:43:00  BASE  5.03916  213  6.50328  223  -3.6  69    -8.4  2     0     996.0    NA       0.0000   9999     0     0     0    
2019/07/29  19:44:00  BASE  4.5864   210  6.50328  223  -3.6  69    -8.4  2     0     996.0    NA       0.0000   9999     0     0     0    
2019/07/29  19:45:00  BASE  4.43352  204  6.50328  223  -3.6  69    -8.5  2     0     996.0    NA       0.0000   9999     0     0     0    
2019/07/29  19:46:00  BASE  4.84512  209  6.50328  223  -3.6  69    -8.5  2     0     996.0    NA       0.0000   9999     0     0     0    
2019/07/29  19:47:00  BASE  4.69224  214  6.50328  223  -3.6  69    -8.4  2     0     996.0    NA       0.0000   9999     0     0     0    
2019/07/29  19:48:00  BASE  4.4688   206  6.2916   227  -3.6  70    -8.4  2     0     996.0    NA       0.0000   9999     0     0     0    
2019/07/29  19:49:00  BASE  4.78632  200  6.13872  219  -3.7  70    -8.4  2     0     996.0    NA       0.0000   9999     0     0     0    
2019/07/29  19:50:00  BASE  4.82748  209  5.80944  216  -3.7  70    -8.4  2     0     996.0    NA       0.0000   9999     0     0     0    
2019/07/29  19:51:00  BASE  4.56876  216  5.78004  217  -3.7  70    -8.3  2     0     996.0    NA       0.0000   9999     0     0     0    
2019/07/29  19:52:00  BASE  4.36884  215  5.78004  217  -3.6  70    -8.3  2     0     996.0    NA       0.0000   9999     0     0     0    
2019/07/29  19:53:00  BASE  4.41588  220  5.78004  217  -3.6  70    -8.3  1     0     996.0    NA       0.0000   9999     0     0     0    
2019/07/29  19:54:00  BASE  4.39236  224  5.78004  217  -3.6  71    -8.2  1     0     996.1    NA       0.0000   9999     0     0     0    
2019/07/29  19:55:00  BASE  4.26888  228  5.78004  217  -3.6  71    -8.1  1     0     996.1    NA       0.0000   9999     0     0     0    
2019/07/29  19:56:00  BASE  4.06896  234  5.74476  198  -3.7  71    -8.2  1     0     996.1    NA       0.0000   9999     0     0     0    
2019/07/29  19:57:00  BASE  4.24536  231  5.74476  198  -3.8  71    -8.3  1     0     996.1    NA       0.0000   9999     0     0     0    
2019/07/29  19:58:00  BASE  4.51584  226  5.74476  198  -3.8  71    -8.3  1     0     996.1    NA       0.0000   9999     0     0     0    
2019/07/29  19:59:00  BASE  4.44528  230  5.38608  225  -3.8  71    -8.3  1     0     996.1    NA       0.0000   9999     3840  0     0    
2019/07/29  20:00:00  BASE  4.98036  230  5.71536  223  -3.8  71    -8.3  1     0     996.1    NA       0.0000   9999     3840  0     0    
2019/07/29  20:01:00  BASE  5.31552  230  5.92704  231  -3.8  71    -8.2  1     0     996.1    NA       0.0000   9999     3840  0     0    
2019/07/29  20:02:00  BASE  5.36844  231  5.92704  231  -3.8  71    -8.2  1     0     996.1    NA       0.0000   9999     0     0     0    
2019/07/29  20:03:00  BASE  5.06268  228  5.92704  231  -3.8  72    -8.2  1     0     996.1    NA       0.0000   9999     0     0     0    
2019/07/29  20:04:00  BASE  4.78632  226  5.92704  231  -3.8  72    -8.2  1     0     996.1    NA       0.0000   9999     0     0     0    
2019/07/29  20:05:00  BASE  4.9392   223  5.92704  231  -3.8  72    -8.1  1     0     996.1    NA       0.0000   9999     0     0     0    
2019/07/29  20:06:00  BASE  4.9392   222  5.92704  231  -3.8  72    -8.1  1     0     996.1    NA       0.0000   9999     0     0     0    
2019/07/29  20:07:00  BASE  4.87452  224  5.92704  231  -3.8  72    -8.1  0     0     996.1    NA       0.0000   9999     0     0     0    
2019/07/29  20:08:00  BASE  4.80984  225  5.92704  231  -3.8  71    -8.2  0     0     996.1    NA       0.0000   9999     0     0     0    
2019/07/29  20:09:00  BASE  4.35708  226  5.92704  231  -3.8  71    -8.3  0     0     996.1    NA       0.0000   9999     0     0     0    
2019/07/29  20:10:00  BASE  4.22184  226  5.92704  231  -3.8  71    -8.3  0     0     996.2    NA       0.0000   9999     0     0     0    
2019/07/29  20:11:00  BASE  4.31592  228  5.68596  228  -3.8  71    -8.3  0     0     996.3    NA       0.0000   9999     0     0     0    
2019/07/29  20:12:00  BASE  3.9102   226  5.65656  227  -3.8  71    -8.3  0     0     996.3    NA       0.0000   9999     0     0     0    
2019/07/29  20:13:00  BASE  3.88668  224  5.65656  227  -3.9  72    -8.2  0     0     996.3    NA       0.0000   9999     0     0     0    
2019/07/29  20:14:00  BASE  3.98664  227  5.53308  221  -3.9  72    -8.1  0     0     996.3    NA       0.0000   9999     0     0     0    
2019/07/29  20:15:00  BASE  4.06896  229  5.53308  221  -3.9  73    -8.0  0     0     996.3    NA       0.0000   9999     0     0     0    
2019/07/29  20:16:00  BASE  4.263    227  5.145    228  -3.9  74    -7.9  0     0     996.3    NA       0.0000   9999     0     0     0    
2019/07/29  20:17:00  BASE  4.32768  228  5.145    228  -3.9  74    -7.9  0     0     996.4    NA       0.0000   9999     0     0     0    
2019/07/29  20:18:00  BASE  4.18656  231  4.78044  226  -3.9  74    -7.8  0     0     996.4    NA       0.0000   9999     0     0     0    
2019/07/29  20:19:00  BASE  3.79848  233  4.78044  226  -3.9  74    -7.8  0     0     996.4    NA       0.0000   9999     0     0     0    
2019/07/29  20:20:00  BASE  3.68088  236  4.75104  224  -4.0  75    -7.8  0     0     996.4    NA       0.0000   9999     0     0     0    
2019/07/29  20:21:00  BASE  3.5868   235  4.75104  224  -4.0  75    -7.8  0     0     996.5    NA       0.0000   9999     0     0     0    
2019/07/29  20:22:00  BASE  3.33984  240  4.75104  224  -4.1  76    -7.7  0     0     996.5    NA       0.0000   9999     0     0     0    
2019/07/29  20:23:00  BASE  3.53976  248  4.75104  224  -4.1  76    -7.7  0     0     996.5    NA       0.0000   9999     0     0     0    
2019/07/29  20:24:00  BASE  3.79848  245  4.75104  224  -4.2  77    -7.6  0     0     996.5    NA       0.0000   9999     0     0     0    
2019/07/29  20:25:00  BASE  3.77496  243  4.75104  224  -4.2  77    -7.5  0     0     996.5    NA       0.0000   9999     0     0     0    
2019/07/29  20:26:00  BASE  3.77496  247  4.59816  232  -4.2  78    -7.5  0     0     996.5    NA       0.0000   9999     0     0     0    
2019/07/29  20:27:00  BASE  3.5574   248  4.56876  228  -4.3  78    -7.5  0     0     996.5    NA       0.0000   9999     0     0     0    
2019/07/29  20:28:00  BASE  3.57504  246  4.56876  228  -4.3  78    -7.5  0     0     996.6    NA       0.0000   9999     0     0     0    
2019/07/29  20:29:00  BASE  3.7632   239  4.35708  238  -4.3  78    -7.5  0     0     996.6    NA       0.0000   9999     0     0     0    
2019/07/29  20:30:00  BASE  3.675    238  4.35708  238  -4.3  78    -7.5  0     0     996.6    NA       0.0000   9999     0     0     0    
2019/07/29  20:31:00  BASE  3.72204  241  4.35708  238  -4.3  78    -7.5  0     0     996.6    NA       0.0000   9999     0     0     0    
2019/07/29  20:32:00  BASE  3.7926   243  4.35708  238  -4.3  79    -7.5  0     0     996.6    NA       0.0000   9999     0     0     0    
2019/07/29  20:33:00  BASE  3.89844  244  4.41588  247  -4.3  79    -7.4  0     0     996.6    NA       0.0000   9999     0     0     0    
2019/07/29  20:34:00  BASE  3.75144  244  4.41588  247  -4.3  79    -7.4  0     0     996.6    NA       0.0000   9999     0     0     0    
2019/07/29  20:35:00  BASE  3.48096  247  4.41588  247  -4.3  79    -7.4  0     0     996.6    NA       0.0000   9999     0     0     0    
2019/07/29  20:36:00  BASE  3.7044   249  4.41588  247  -4.2  79    -7.3  0     0     996.6    NA       0.0000   9999     0     0     0    
2019/07/29  20:37:00  BASE  3.93372  241  4.41588  247  -4.3  79    -7.4  0     0     996.6    NA       0.0000   9999     0     0     0    
2019/07/29  20:38:00  BASE  3.78084  232  4.41588  247  -4.3  79    -7.4  0     0     996.6    NA       0.0000   9999     0     0     0    
2019/07/29  20:39:00  BASE  3.50448  232  4.41588  247  -4.3  79    -7.4  0     0     996.6    NA       0.0000   9999     0     0     0    
2019/07/29  20:40:00  BASE  3.36336  235  4.41588  247  -4.4  79    -7.4  0     0     996.6    NA       0.0000   9999     0     0     0    
2019/07/29  20:41:00  BASE  3.49272  238  4.41588  247  -4.4  79    -7.4  0     0     996.6    NA       0.0000   9999     0     0     0    
2019/07/29  20:42:00  BASE  3.59856  239  4.41588  247  -4.4  80    -7.4  0     0     996.6    NA       0.0000   9999     0     0     0    
2019/07/29  20:43:00  BASE  3.12816  243  4.35708  235  -4.3  80    -7.3  0     0     996.6    NA       0.0000   9999     0     0     0    
2019/07/29  20:44:00  BASE  3.234    245  4.35708  235  -4.3  80    -7.3  0     0     996.6    NA       0.0000   9999     0     0     0    
2019/07/29  20:45:00  BASE  3.7044   240  4.35708  235  -4.3  80    -7.3  0     0     996.6    NA       0.0000   9999     0     0     0    
2019/07/29  20:46:00  BASE  3.6162   238  4.35708  235  -4.3  79    -7.3  0     0     996.6    NA       0.0000   9999     0     0     0    
2019/07/29  20:47:00  BASE  3.42216  237  4.2042   238  -4.3  79    -7.3  0     0     996.6    NA       0.0000   9999     0     0     0    
2019/07/29  20:48:00  BASE  3.32808  240  4.2042   238  -4.3  79    -7.4  0     0     996.6    NA       0.0000   9999     0     0     0    
2019/07/29  20:49:00  BASE  3.46332  245  4.2042   238  -4.2  79    -7.3  0     0     996.6    NA       0.0000   9999     0     0     0    
2019/07/29  20:50:00  BASE  3.528    249  4.2042   238  -4.2  79    -7.3  0     0     996.6    NA       0.0000   9999     0     0     0    
2019/07/29  20:51:00  BASE  3.31044  249  4.1454   239  -4.3  79    -7.4  0     0     996.6    NA       0.0000   9999     0     0     0    
2019/07/29  20:52:00  BASE  2.84592  241  4.08072  237  -4.3  79    -7.4  0     0     996.6    NA       0.0000   9999     0     0     0    
2019/07/29  20:53:00  BASE  2.74596  228  4.08072  237  -4.3  79    -7.4  0     0     996.6    NA       0.0000   9999     0     0     0    
2019/07/29  20:54:00  BASE  3.13992  219  3.99252  248  -4.3  79    -7.5  0     0     996.6    NA       0.0000   9999     0     0     0    
2019/07/29  20:55:00  BASE  3.3222   226  3.99252  223  -4.3  79    -7.5  0     0     996.7    NA       0.0000   9999     0     0     0    
2019/07/29  20:56:00  BASE  3.31632  230  3.99252  223  -4.3  79    -7.5  0     0     996.7    NA       0.0000   9999     0     0     0    
2019/07/29  20:57:00  BASE  3.27516  227  3.99252  223  -4.3  78    -7.5  0     0     996.7    NA       0.0000   9999     0     0     0    
2019/07/29  20:58:00  BASE  2.86944  228  3.99252  223  -4.3  78    -7.5  0     0     996.7    NA       0.0000   9999     0     0     0    
2019/07/29  20:59:00  BASE  2.52252  233  3.99252  223  -4.3  78    -7.6  0     0     996.7    NA       0.0000   9999     0     0     0    
2019/07/29  21:00:00  BASE  2.47548  239  3.99252  223  -4.3  78    -7.6  0     0     996.7    NA       0.0000   9999     0     0     0    
2019/07/29  21:01:00  BASE  2.48136  241  3.99252  223  -4.3  78    -7.6  0     0     996.7    NA       0.0000   9999     0     0     0    
2019/07/29  21:02:00  BASE  2.3226   241  3.99252  223  -4.3  78    -7.6  0     0     996.7    NA       0.0000   9999     0     0     0    
2019/07/29  21:03:00  BASE  2.22852  234  3.99252  223  -4.4  78    -7.6  0     0     996.7    NA       0.0000   9999     0     0     0    
2019/07/29  21:04:00  BASE  2.21676  231  3.99252  223  -4.4  78    -7.6  0     0     996.8    NA       0.0000   9999     0     0     0    
2019/07/29  21:05:00  BASE  2.19324  234  3.72204  228  -4.4  78    -7.6  0     0     996.8    NA       0.0000   9999     0     0     0    
2019/07/29  21:06:00  BASE  2.3814   236  3.48096  227  -4.4  78    -7.6  0     0     996.8    NA       0.0000   9999     0     0     0    
2019/07/29  21:07:00  BASE  2.38728  238  2.90472  252  -4.4  78    -7.6  0     0     996.8    NA       0.0000   9999     0     0     0    
2019/07/29  21:08:00  BASE  2.5284   236  3.087    242  -4.4  78    -7.6  0     0     996.8    NA       0.0000   9999     0     0     0    
2019/07/29  21:09:00  BASE  2.8518   230  3.087    242  -4.4  79    -7.6  0     0     996.9    NA       0.0000   9999     0     0     0    
2019/07/29  21:10:00  BASE  2.8518   229  3.087    242  -4.4  79    -7.6  0     0     997.0    NA       0.0000   9999     0     0     0    
2019/07/29  21:11:00  BASE  2.89884  231  3.48096  215  -4.4  79    -7.6  0     0     997.0    NA       0.0000   9999     0     0     0    
2019/07/29  21:12:00  BASE  3.02232  230  3.48096  215  -4.4  79    -7.5  0     0     997.0    NA       0.0000   9999     0     0     0    
2019/07/29  21:13:00  BASE  2.86944  231  3.48096  215  -4.4  80    -7.4  0     0     997.0    NA       0.0000   9999     0     0     0    
2019/07/29  21:14:00  BASE  2.56956  234  3.48096  215  -4.4  80    -7.4  0     0     997.0    NA       0.0000   9999     0     0     0    
2019/07/29  21:15:00  BASE  2.48724  243  3.48096  215  -4.4  81    -7.3  0     0     997.0    NA       0.0000   9999     0     0     0    
2019/07/29  21:16:00  BASE  2.98116  249  3.59856  244  -4.4  81    -7.1  0     0     997.0    NA       0.0000   9999     0     0     0    
2019/07/29  21:17:00  BASE  3.36336  247  3.59856  249  -4.4  82    -7.1  0     0     997.1    NA       0.0000   9999     0     0     0    
2019/07/29  21:18:00  BASE  3.36336  249  3.93372  247  -4.4  82    -7.1  0     0     997.1    NA       0.0000   9999     0     0     0    
2019/07/29  21:19:01  BASE  3.38688  246  3.93372  247  -4.5  82    -7.1  0     0     997.1    NA       0.0000   9999     0     0     0    
2019/07/29  21:20:00  BASE  3.37512  246  3.93372  247  -4.5  82    -7.1  0     0     997.1    NA       0.0000   9999     0     0     0    
2019/07/29  21:21:00  BASE  3.54564  252  3.93372  247  -4.6  82    -7.1  0     0     997.1    NA       0.0000   9999     0     0     0    
2019/07/29  21:22:00  BASE  3.58092  247  3.93372  247  -4.6  83    -7.1  0     0     997.2    NA       0.0000   9999     0     0     0    
2019/07/29  21:23:00  BASE  3.41628  244  3.93372  247  -4.6  83    -7.0  0     0     997.2    NA       0.0000   9999     0     0     0    
2019/07/29  21:24:00  BASE  3.31632  246  3.93372  247  -4.6  83    -7.0  0     0     997.2    NA       0.0000   9999     0     0     0    
2019/07/29  21:25:00  BASE  3.2634   248  3.93372  247  -4.6  84    -6.9  0     0     997.2    NA       0.0000   9999     0     0     0    
2019/07/29  21:26:00  BASE  3.1164   250  3.93372  247  -4.6  84    -6.9  0     0     997.2    NA       0.0000   9999     0     0     0    
2019/07/29  21:27:00  BASE  2.89884  251  3.93372  247  -4.6  84    -6.9  0     0     997.2    NA       0.0000   9999     0     0     0    
2019/07/29  21:28:00  BASE  2.48136  254  3.86904  246  -4.6  84    -6.8  0     0     997.2    NA       0.0000   9999     0     0     0    
2019/07/29  21:29:00  BASE  1.98156  269  3.86904  246  -4.5  84    -6.8  0     0     997.2    NA       0.0000   9999     0     0     0    
2019/07/29  21:30:00  BASE  1.69344  294  3.86904  246  -4.5  85    -6.7  0     0     997.2    NA       0.0000   9999     0     0     0    
2019/07/29  21:31:00  BASE  1.4112   318  3.86904  246  -4.6  85    -6.8  0     0     997.2    NA       0.0000   9999     0     0     0    
2019/07/29  21:32:00  BASE  0.8526   3    3.69264  241  -4.7  85    -6.9  0     0     997.2    NA       0.0000   9999     0     0     0    
2019/07/29  21:33:00  BASE  0.5586   57   3.62796  253  -4.8  85    -7.0  0     0     997.2    NA       0.0000   9999     0     0     0    
2019/07/29  21:34:00  BASE  0.95844  7    3.41628  247  -5.0  85    -7.1  0     0     997.3    NA       0.0000   9999     0     0     0    
2019/07/29  21:35:00  BASE  1.37004  37   3.32808  253  -5.1  85    -7.3  0     0     997.3    NA       0.0000   9999     0     0     0    
2019/07/29  21:36:00  BASE  1.34652  48   3.32808  253  -5.1  85    -7.3  0     0     997.3    NA       0.0000   9999     0     0     0    
2019/07/29  21:37:00  BASE  1.32888  41   2.54016  255  -5.1  85    -7.3  0     0     997.3    NA       0.0000   9999     0     0     0    
2019/07/29  21:38:00  BASE  1.47588  38   2.21088  253  -5.2  85    -7.3  0     0     997.3    NA       0.0000   9999     0     0     0    
2019/07/29  21:39:00  BASE  1.54644  41   2.0286   295  -5.2  85    -7.3  0     0     997.3    NA       0.0000   9999     0     0     0    
2019/07/29  21:40:00  BASE  1.69344  47   2.21088  50   -5.2  85    -7.3  0     0     997.3    NA       0.0000   9999     0     0     0    
2019/07/29  21:41:00  BASE  1.99332  45   2.54016  42   -5.2  86    -7.3  0     0     997.3    NA       0.0000   9999     0     0     0    
2019/07/29  21:42:00  BASE  2.02272  42   2.54016  42   -5.2  86    -7.2  0     0     997.3    NA       0.0000   9999     0     0     0    
2019/07/29  21:43:00  BASE  1.98156  45   2.54016  42   -5.2  86    -7.2  0     0     997.3    NA       0.0000   9999     0     0     0    
2019/07/29  21:44:01  BASE  2.03448  44   2.54016  42   -5.2  86    -7.2  0     0     997.3    NA       0.0000   9999     0     0     0    
2019/07/29  21:45:00  BASE  1.89924  39   2.54016  42   -5.2  86    -7.2  0     0     997.3    NA       0.0000   9999     0     0     0    
2019/07/29  21:46:00  BASE  1.86984  41   2.54016  42   -5.2  86    -7.2  0     0     997.3    NA       0.0000   9999     0     0     0    
2019/07/29  21:47:00  BASE  1.77576  52   2.54016  42   -5.2  86    -7.1  0     0     997.3    NA       0.0000   9999     0     0     0    
2019/07/29  21:48:00  BASE  1.28184  58   2.54016  42   -5.1  86    -7.0  0     0     997.3    NA       0.0000   9999     0     0     0    
2019/07/29  21:49:00  BASE  0.87612  68   2.54016  42   -5.1  87    -7.0  0     0     997.3    NA       0.0000   9999     0     0     0    
2019/07/29  21:50:00  BASE  0.9408   70   2.54016  42   -5.1  87    -6.9  0     0     997.4    NA       0.0000   9999     0     0     0    
2019/07/29  21:51:00  BASE  1.09956  65   2.54016  64   -5.0  87    -6.9  0     0     997.4    NA       0.0000   9999     0     0     0    
2019/07/29  21:52:00  BASE  1.65228  65   2.90472  34   -5.0  87    -6.8  0     0     997.5    NA       0.0000   9999     0     0     0    
2019/07/29  21:53:00  BASE  2.10504  54   2.90472  34   -5.0  87    -6.9  0     0     997.5    NA       0.0000   9999     0     0     0    
2019/07/29  21:54:00  BASE  2.0874   50   2.93412  59   -5.1  87    -6.9  0     0     997.5    NA       0.0000   9999     0     0     0    
2019/07/29  21:55:00  BASE  2.62248  52   3.44568  50   -5.1  87    -6.9  0     0     997.5    NA       0.0000   9999     0     0     0    
2019/07/29  21:56:00  BASE  3.1752   53   3.44568  50   -5.2  87    -7.0  0     0     997.5    NA       0.0000   9999     1900  0     0    
2019/07/29  21:57:00  BASE  3.02232  54   3.44568  50   -5.2  87    -7.1  0     0     997.6    NA       0.0000   9999     0     0     0    
2019/07/29  21:58:00  BASE  2.9988   59   3.44568  50   -5.3  87    -7.1  0     0     997.6    NA       0.0000   9999     0     0     0    
2019/07/29  21:59:00  BASE  3.18696  62   3.48096  60   -5.4  87    -7.2  0     0     997.6    NA       0.0000   9999     1870  0     0    
2019/07/29  22:00:00  BASE  3.19872  56   3.48096  60   -5.5  87    -7.3  0     0     997.6    NA       0.0000   9999     0     0     0    
2019/07/29  22:01:00  BASE  3.07524  56   3.48096  60   -5.6  87    -7.3  0     0     997.6    NA       0.0000   9999     1840  0     0    
2019/07/29  22:02:00  BASE  2.91648  56   3.48096  60   -5.6  88    -7.4  0     0     997.6    NA       0.0000   9999     1900  0     0    
2019/07/29  22:03:00  BASE  2.75184  55   3.48096  60   -5.7  88    -7.4  0     0     997.6    NA       0.0000   9999     1840  0     0    
2019/07/29  22:04:00  BASE  2.60484  51   3.48096  60   -5.7  88    -7.4  0     0     997.6    NA       0.0000   9999     1800  0     0    
2019/07/29  22:05:00  BASE  2.57544  46   3.48096  60   -5.7  88    -7.4  0     0     997.6    NA       0.0000   9999     1800  0     0    
2019/07/29  22:06:00  BASE  2.59896  41   3.48096  60   -5.8  88    -7.5  0     0     997.5    NA       0.0000   9999     1800  0     0    
2019/07/29  22:07:00  BASE  2.37552  41   3.48096  60   -5.9  88    -7.5  0     0     997.6    NA       0.0000   9999     1870  0     0    
2019/07/29  22:08:00  BASE  1.95804  42   3.48096  60   -5.9  88    -7.5  0     0     997.5    NA       0.0000   9999     1870  0     0    
2019/07/29  22:09:00  BASE  1.69344  35   3.38688  50   -5.9  89    -7.5  0     0     997.5    NA       0.0000   9999     0     0     0    
2019/07/29  22:10:00  BASE  1.6464   28   3.1458   54   -5.9  89    -7.4  0     0     997.5    NA       0.0000   9999     0     0     0    
2019/07/29  22:11:00  BASE  1.58172  36   3.02232  51   -5.8  89    -7.4  0     0     997.5    NA       0.0000   9999     0     0     0    
2019/07/29  22:12:00  BASE  1.56408  43   2.81064  45   -5.8  89    -7.3  0     0     997.5    NA       0.0000   9999     0     0     0    
2019/07/29  22:13:00  BASE  1.60524  41   2.81064  45   -5.7  89    -7.2  0     0     997.5    NA       0.0000   9999     0     0     0    
2019/07/29  22:14:00  BASE  1.56408  41   2.81064  45   -5.7  90    -7.1  0     0     997.5    NA       0.0000   9999     0     0     0    
2019/07/29  22:15:00  BASE  1.617    41   2.69304  37   -5.6  90    -7.0  0     0     997.5    NA       0.0000   9999     0     0     0    
2019/07/29  22:16:00  BASE  1.66992  45   2.63424  36   -5.6  90    -6.9  0     0     997.5    NA       0.0000   9999     0     0     0    
2019/07/29  22:17:00  BASE  1.7052   48   2.21088  44   -5.5  90    -6.9  0     0     997.6    NA       0.0000   9999     0     0     0    
2019/07/29  22:18:00  BASE  1.78752  47   2.0286   45   -5.5  90    -6.9  0     0     997.6    NA       0.0000   9999     1970  0     0    
2019/07/29  22:19:00  BASE  1.83456  48   2.0286   45   -5.5  90    -6.9  0     0     997.6    NA       0.0000   9999     0     0     0    
2019/07/29  22:20:00  BASE  1.98744  51   2.29908  50   -5.5  90    -6.9  0     0     997.6    NA       0.0000   9999     0     0     0    
2019/07/29  22:21:00  BASE  2.1462   52   2.29908  50   -5.5  90    -6.9  0     0     997.6    NA       0.0000   9999     0     0     0    
2019/07/29  22:22:00  BASE  2.16972  53   2.45196  52   -5.5  90    -6.8  0     0     997.6    NA       0.0000   9999     1970  0     0    
2019/07/29  22:23:00  BASE  2.33436  51   2.54016  51   -5.5  90    -6.8  0     0     997.6    NA       0.0000   9999     1940  0     0    
2019/07/29  22:24:00  BASE  2.2932   49   2.54016  51   -5.4  91    -6.7  0     0     997.7    NA       0.0000   9999     2000  0     0    
2019/07/29  22:25:00  BASE  2.058    48   2.54016  51   -5.4  91    -6.7  0     0     997.7    NA       0.0000   9999     1940  0     0    
2019/07/29  22:26:00  BASE  1.95804  46   2.54016  51   -5.4  91    -6.6  0     0     997.7    NA       0.0000   9999     0     0     0    
2019/07/29  22:27:00  BASE  1.86396  45   2.54016  51   -5.3  91    -6.6  0     0     997.7    NA       0.0000   9999     0     0     0    
2019/07/29  22:28:00  BASE  1.83456  44   2.54016  51   -5.3  91    -6.6  0     0     997.7    NA       0.0000   9999     0     0     0    
2019/07/29  22:29:00  BASE  1.911    45   2.54016  51   -5.4  90    -6.7  0     0     997.7    NA       0.0000   9999     0     0     0    
2019/07/29  22:30:00  BASE  1.97568  45   2.54016  51   -5.4  90    -6.7  0     0     997.7    NA       0.0000   9999     0     0     0    
2019/07/29  22:31:00  BASE  1.90512  43   2.54016  51   -5.4  90    -6.8  0     0     997.7    NA       0.0000   9999     0     0     0    
2019/07/29  22:32:00  BASE  1.84632  42   2.54016  51   -5.5  90    -6.8  0     0     997.7    NA       0.0000   9999     0     0     0    
2019/07/29  22:33:00  BASE  1.83456  40   2.29908  50   -5.5  90    -6.8  0     0     997.7    NA       0.0000   9999     0     0     0    
2019/07/29  22:34:00  BASE  1.85808  39   2.0874   45   -5.5  90    -6.9  0     0     997.7    NA       0.0000   9999     0     0     0    
2019/07/29  22:35:00  BASE  1.93452  39   2.1168   37   -5.6  90    -6.9  0     0     997.8    NA       0.0000   9999     0     0     0    
2019/07/29  22:36:00  BASE  1.99332  39   2.24028  39   -5.7  91    -7.0  0     0     997.8    NA       0.0000   9999     0     0     0    
2019/07/29  22:37:00  BASE  2.01096  40   2.24028  39   -5.8  91    -7.0  0     0     997.8    NA       0.0000   9999     0     0     0    
2019/07/29  22:38:00  BASE  2.03448  42   2.24028  43   -5.8  91    -7.0  0     0     997.8    NA       0.0000   9999     0     0     0    
2019/07/29  22:39:00  BASE  2.11092  41   2.26968  32   -5.8  91    -7.0  0     0     997.8    NA       0.0000   9999     0     0     0    
2019/07/29  22:40:00  BASE  2.1462   36   2.32848  38   -5.8  92    -7.0  0     0     997.8    NA       0.0000   9999     17090 0     0    
2019/07/29  22:41:00  BASE  2.25204  36   2.56956  33   -5.8  92    -6.9  0     0     997.8    NA       0.0000   9999     0     0     0    
2019/07/29  22:42:00  BASE  2.33436  39   2.56956  33   -5.8  92    -6.9  0     0     997.8    NA       0.0000   9999     17230 0     0    
2019/07/29  22:43:00  BASE  2.32848  39   2.56956  33   -5.8  92    -6.9  0     0     997.9    NA       0.0000   9999     17090 0     0    
2019/07/29  22:44:00  BASE  2.27556  37   2.56956  33   -5.8  92    -6.9  0     0     997.9    NA       0.0000   9999     0     0     0    
2019/07/29  22:45:00  BASE  2.1168   36   2.56956  33   -5.8  92    -6.9  0     0     997.9    NA       0.0000   9999     0     0     0    
2019/07/29  22:46:00  BASE  2.00508  38   2.56956  33   -5.8  92    -6.9  0     0     997.9    NA       0.0000   9999     0     0     0    
2019/07/29  22:47:00  BASE  1.9992   40   2.56956  33   -5.8  93    -6.8  0     0     997.9    NA       0.0000   9999     0     0     0    
2019/07/29  22:48:00  BASE  1.93452  41   2.56956  33   -5.8  93    -6.8  0     0     997.9    NA       0.0000   9999     0     0     0    
2019/07/29  22:49:00  BASE  1.91688  41   2.56956  33   -5.8  93    -6.8  0     0     997.9    NA       0.0000   9999     0     0     0    
2019/07/29  22:50:00  BASE  2.058    39   2.56956  33   -5.8  93    -6.8  0     0     997.9    NA       0.0000   9999     0     0     0    
2019/07/29  22:51:00  BASE  2.12856  35   2.54016  39   -5.8  93    -6.8  0     0     997.9    NA       0.0000   9999     0     0     0    
2019/07/29  22:52:00  BASE  1.99332  34   2.51076  39   -5.8  93    -6.7  0     0     997.9    NA       0.0000   9999     0     0     0    
2019/07/29  22:53:00  BASE  1.96392  37   2.51076  39   -5.8  93    -6.7  0     0     997.9    NA       0.0000   9999     0     0     0    
2019/07/29  22:54:00  BASE  2.0286   39   2.51076  39   -5.8  94    -6.6  0     0     997.9    NA       0.0000   9999     0     0     0    
2019/07/29  22:55:00  BASE  2.00508  42   2.51076  39   -5.7  94    -6.6  0     0     997.9    NA       0.0000   9999     0     0     0    
2019/07/29  22:56:00  BASE  1.96392  45   2.51076  39   -5.7  94    -6.5  0     0     997.9    NA       0.0000   9999     0     0     0    
2019/07/29  22:57:00  BASE  2.03448  42   2.51076  39   -5.7  94    -6.5  0     0     997.9    NA       0.0000   9999     0     0     0    
2019/07/29  22:58:00  BASE  2.1168   40   2.51076  39   -5.7  94    -6.5  0     0     997.9    NA       0.0000   9999     0     0     0    
2019/07/29  22:59:00  BASE  2.21088  40   2.56956  41   -5.6  94    -6.5  0     0     997.9    NA       0.0000   9999     0     0     0    
2019/07/29  23:00:00  BASE  2.4402   41   2.75184  43   -5.7  94    -6.5  0     0     997.9    NA       0.0000   9999     0     0     0    
2019/07/29  23:01:00  BASE  2.61072  43   2.90472  35   -5.7  93    -6.6  0     0     997.9    NA       0.0000   9999     0     0     0    
2019/07/29  23:02:00  BASE  2.63424  47   2.90472  35   -5.7  93    -6.6  0     0     997.9    NA       0.0000   9999     0     0     0    
2019/07/29  23:03:00  BASE  2.59308  50   2.90472  35   -5.6  93    -6.6  0     0     997.9    NA       0.0000   9999     0     0     0    
2019/07/29  23:04:00  BASE  2.51664  54   2.90472  35   -5.6  93    -6.6  0     0     997.9    NA       0.0000   9999     0     0     0    
2019/07/29  23:05:00  BASE  2.37552  60   2.93412  70   -5.6  93    -6.5  0     0     997.9    NA       0.0000   9999     0     0     0    
2019/07/29  23:06:00  BASE  2.53428  65   3.0576   67   -5.6  93    -6.5  0     0     997.9    NA       0.0000   9999     0     0     0    
2019/07/29  23:07:00  BASE  2.71068  62   3.0576   67   -5.5  93    -6.5  0     0     997.9    NA       0.0000   9999     0     0     0    
2019/07/29  23:08:00  BASE  2.74008  59   3.0576   67   -5.5  93    -6.5  0     0     997.8    NA       0.0000   9999     0     0     0    
2019/07/29  23:09:00  BASE  2.76948  66   3.087    73   -5.6  93    -6.5  0     0     997.8    NA       0.0000   9999     0     0     0    
2019/07/29  23:10:00  BASE  2.85768  69   3.26928  73   -5.6  93    -6.6  0     0     997.8    NA       0.0000   9999     0     0     0    
2019/07/29  23:11:00  BASE  3.05172  68   3.35748  73   -5.6  93    -6.6  0     0     997.8    NA       0.0000   9999     0     0     0    
2019/07/29  23:12:00  BASE  3.02232  73   3.35748  73   -5.6  92    -6.7  0     0     997.8    NA       0.0000   9999     0     0     0    
2019/07/29  23:13:00  BASE  2.6754   80   3.35748  73   -5.7  92    -6.7  0     0     997.8    NA       0.0000   9999     0     0     0    
2019/07/29  23:14:00  BASE  2.52252  82   3.35748  73   -5.7  92    -6.8  0     0     997.8    NA       0.0000   9999     0     0     0    
2019/07/29  23:15:00  BASE  2.62836  85   3.35748  73   -5.7  92    -6.8  0     0     997.8    NA       0.0000   9999     0     0     0    
2019/07/29  23:16:00  BASE  2.76948  82   3.35748  73   -5.7  92    -6.8  0     0     997.8    NA       0.0000   9999     0     0     0    
2019/07/29  23:17:00  BASE  2.81064  72   3.35748  73   -5.7  92    -6.8  0     0     997.8    NA       0.0000   9999     0     0     0    
2019/07/29  23:18:00  BASE  2.71068  70   3.35748  73   -5.8  92    -6.9  0     0     997.8    NA       0.0000   9999     0     0     0    
2019/07/29  23:19:00  BASE  2.646    66   3.35748  73   -5.8  92    -6.9  0     0     997.8    NA       0.0000   9999     0     0     0    
2019/07/29  23:20:00  BASE  2.68716  58   3.48096  47   -5.8  92    -6.9  0     0     997.8    NA       0.0000   9999     0     0     0    
2019/07/29  23:21:00  BASE  3.10464  49   3.78084  44   -5.9  92    -7.0  0     0     997.8    NA       0.0000   9999     0     0     0    
2019/07/29  23:22:00  BASE  3.45744  42   3.83964  40   -5.9  92    -7.0  0     0     997.8    NA       0.0000   9999     13850 0     0    
2019/07/29  23:23:00  BASE  3.68088  37   4.2042   36   -6.0  92    -7.1  0     0     997.8    NA       0.0000   9999     13810 0     0    
2019/07/29  23:24:01  BASE  3.82788  35   4.2042   36   -6.0  92    -7.1  0     0     997.8    NA       0.0000   9999     13550 0     0    
2019/07/29  23:25:00  BASE  3.65736  34   4.2042   36   -6.0  92    -7.1  0     0     997.8    NA       0.0000   9999     13350 0     0    
2019/07/29  23:26:00  BASE  3.48096  35   4.2042   36   -6.0  92    -7.1  0     0     997.8    NA       0.0000   9999     13190 0     0    
2019/07/29  23:27:00  BASE  3.37512  37   4.2042   36   -6.0  92    -7.0  0     0     997.8    NA       0.0000   9999     13060 0     0    
2019/07/29  23:28:00  BASE  3.35748  38   4.2042   36   -5.9  93    -6.9  0     0     997.8    NA       0.0000   9999     12800 0     0    
2019/07/29  23:29:00  BASE  3.39864  39   4.2042   36   -5.9  93    -6.9  0     0     997.8    NA       0.0000   9999     12530 0     0    
2019/07/29  23:30:00  BASE  3.39864  39   4.2042   36   -5.9  93    -6.8  0     0     997.8    NA       0.0000   9999     12930 0     0    
2019/07/29  23:31:00  BASE  3.45156  38   4.2042   36   -5.9  93    -6.8  0     0     997.8    NA       0.0000   9999     12800 0     0    
2019/07/29  23:32:00  BASE  3.37512  37   4.2042   36   -5.9  93    -6.8  0     0     997.9    NA       0.0000   9999     12700 0     0    
2019/07/29  23:33:00  BASE  3.25164  35   3.90432  35   -5.9  93    -6.8  0     0     997.9    NA       0.0000   9999     12660 0     0    
2019/07/29  23:34:01  BASE  3.18108  36   3.72204  38   -5.9  93    -6.8  0     0     997.9    NA       0.0000   9999     12630 0     0    
2019/07/29  23:35:00  BASE  3.08112  38   3.72204  38   -5.9  93    -6.8  0     0     997.9    NA       0.0000   9999     12570 0     0    
2019/07/29  23:36:00  BASE  3.03408  42   3.72204  38   -5.9  93    -6.9  0     0     997.9    NA       0.0000   9999     12530 0     0    
2019/07/29  23:37:00  BASE  3.03408  45   3.72204  38   -5.9  93    -6.9  0     0     997.9    NA       0.0000   9999     12730 0     0    
2019/07/29  23:38:00  BASE  2.95176  47   3.72204  38   -6.0  93    -6.9  0     0     997.9    NA       0.0000   9999     12800 0     0    
2019/07/29  23:39:00  BASE  2.79888  51   3.72204  38   -6.0  93    -7.0  0     0     997.9    NA       0.0000   9999     12700 0     0    
2019/07/29  23:40:00  BASE  2.74596  56   3.72204  38   -6.1  93    -7.0  0     0     997.9    NA       0.0000   9999     12660 0     0    
2019/07/29  23:41:00  BASE  2.59896  63   3.53976  39   -6.1  93    -7.0  0     0     997.9    NA       0.0000   9999     12930 0     0    
2019/07/29  23:42:00  BASE  2.25792  67   3.53976  39   -6.1  93    -7.0  0     0     997.9    NA       0.0000   9999     0     0     0    
2019/07/29  23:43:00  BASE  2.12856  63   3.234    43   -6.1  94    -6.9  0     0     997.9    NA       0.0000   9999     13420 0     0    
2019/07/29  23:44:00  BASE  1.89924  64   3.234    43   -6.0  94    -6.8  0     0     997.9    NA       0.0000   9999     13220 0     0    
2019/07/29  23:45:00  BASE  1.5288   61   3.234    43   -5.9  94    -6.8  0     0     997.9    NA       0.0000   9999     13390 0     0    
2019/07/29  23:46:00  BASE  2.18736  41   3.56916  19   -5.9  94    -6.7  0     0     997.9    NA       0.0000   9999     0     0     0    
2019/07/29  23:47:00  BASE  3.11052  21   3.56916  19   -5.9  93    -6.7  0     0     997.9    NA       0.0000   9999     0     0     0    
2019/07/29  23:48:00  BASE  3.36336  12   3.56916  19   -5.8  93    -6.7  0     0     997.9    NA       0.0000   9999     0     0     0    
2019/07/29  23:49:00  BASE  3.58092  1    4.1454   355  -5.7  93    -6.6  0     0     997.9    NA       0.0000   9999     0     0     0    
2019/07/29  23:50:00  BASE  3.87492  354  4.1454   355  -5.6  93    -6.5  0     0     997.9    NA       0.0000   9999     0     0     0    
2019/07/29  23:51:00  BASE  3.98664  2    4.1454   355  -5.5  94    -6.4  0     0     997.9    NA       0.0000   9999     0     0     0    
2019/07/29  23:52:00  BASE  3.94548  7    4.1454   355  -5.4  94    -6.3  0     0     997.8    NA       0.0000   9999     0     0     0    
2019/07/29  23:53:00  BASE  3.75144  10   4.1454   355  -5.4  94    -6.2  0     0     997.8    NA       0.0000   9999     0     0     0    
2019/07/29  23:54:00  BASE  3.49272  10   4.1454   355  -5.4  94    -6.2  0     0     997.8    NA       0.0000   9999     0     0     0    
2019/07/29  23:55:00  BASE  3.36924  8    4.1454   355  -5.3  94    -6.2  0     0     997.8    NA       0.0000   9999     0     0     0    
2019/07/29  23:56:00  BASE  3.21636  9    4.1454   355  -5.3  94    -6.2  0     0     997.8    NA       0.0000   9999     0     0     0    
2019/07/29  23:57:00  BASE  3.09288  11   4.1454   355  -5.3  94    -6.1  0     0     997.8    NA       0.0000   9999     0     0     0    
2019/07/29  23:58:00  BASE  2.9106   10   4.1454   355  -5.3  94    -6.1  0     0     997.8    NA       0.0000   9999     0     0     0    
2019/07/29  23:59:00  BASE  2.7342   8    4.116    8    -5.2  94    -6.0  0     0     997.8    NA       0.0000   9999     0     0     0